<?xml version='1.0' encoding='UTF-8'?><gpx version="1.1" creator="JPX - https://github.com/jenetics/jpx" xmlns="http://www.topografix.com/GPX/1/1"><trk><trkseg><trkpt lat="44.7037167" lon="8.7544767"><ele>177.0</ele><time>2026-04-28T08:15:34.312Z</time></trkpt><trkpt lat="44.703765" lon="8.75454"><ele>177.0</ele><time>2026-04-28T08:15:35.312Z</time></trkpt><trkpt lat="44.7038167" lon="8.75466"><ele>177.0</ele><time>2026-04-28T08:15:37.312Z</time></trkpt><trkpt lat="44.7038117" lon="8.7547733"><ele>177.0</ele><time>2026-04-28T08:15:39.312Z</time></trkpt><trkpt lat="44.7037417" lon="8.7549367"><ele>177.0</ele><time>2026-04-28T08:15:41.312Z</time></trkpt><trkpt lat="44.7036833" lon="8.755065"><ele>177.25</ele><time>2026-04-28T08:15:42.312Z</time></trkpt><trkpt lat="44.703615" lon="8.75522"><ele>177.5</ele><time>2026-04-28T08:15:43.312Z</time></trkpt><trkpt lat="44.7035433" lon="8.7553917"><ele>177.75</ele><time>2026-04-28T08:15:44.312Z</time></trkpt><trkpt lat="44.7034617" lon="8.7555633"><ele>178.0</ele><time>2026-04-28T08:15:45.312Z</time></trkpt><trkpt lat="44.7033717" lon="8.75574"><ele>178.0</ele><time>2026-04-28T08:15:46.312Z</time></trkpt><trkpt lat="44.703285" lon="8.7558967"><ele>178.0</ele><time>2026-04-28T08:15:47.312Z</time></trkpt><trkpt lat="44.703195" lon="8.7560333"><ele>178.0</ele><time>2026-04-28T08:15:48.312Z</time></trkpt><trkpt lat="44.7031033" lon="8.7561433"><ele>178.0</ele><time>2026-04-28T08:15:49.312Z</time></trkpt><trkpt lat="44.7029983" lon="8.7562533"><ele>178.75</ele><time>2026-04-28T08:15:50.312Z</time></trkpt><trkpt lat="44.7028833" lon="8.7563633"><ele>179.5</ele><time>2026-04-28T08:15:51.312Z</time></trkpt><trkpt lat="44.70277" lon="8.756475"><ele>180.25</ele><time>2026-04-28T08:15:52.312Z</time></trkpt><trkpt lat="44.7026483" lon="8.7565833"><ele>181.0</ele><time>2026-04-28T08:15:53.312Z</time></trkpt><trkpt lat="44.702535" lon="8.7567133"><ele>181.0</ele><time>2026-04-28T08:15:54.312Z</time></trkpt><trkpt lat="44.70242" lon="8.7568517"><ele>181.0</ele><time>2026-04-28T08:15:55.312Z</time></trkpt><trkpt lat="44.702305" lon="8.75699"><ele>181.0</ele><time>2026-04-28T08:15:56.312Z</time></trkpt><trkpt lat="44.70219" lon="8.7571533"><ele>183.0</ele><time>2026-04-28T08:15:57.312Z</time></trkpt><trkpt lat="44.7020683" lon="8.757305"><ele>185.0</ele><time>2026-04-28T08:15:58.311Z</time></trkpt><trkpt lat="44.7019583" lon="8.7574733"><ele>187.0</ele><time>2026-04-28T08:15:59.311Z</time></trkpt><trkpt lat="44.701835" lon="8.7576517"><ele>186.66666666666669</ele><time>2026-04-28T08:16:00.312Z</time></trkpt><trkpt lat="44.7017117" lon="8.7578267"><ele>186.33333333333334</ele><time>2026-04-28T08:16:01.312Z</time></trkpt><trkpt lat="44.7015883" lon="8.7580017"><ele>186.0</ele><time>2026-04-28T08:16:02.312Z</time></trkpt><trkpt lat="44.7014733" lon="8.7581667"><ele>186.0</ele><time>2026-04-28T08:16:03.312Z</time></trkpt><trkpt lat="44.7013733" lon="8.75834"><ele>186.0</ele><time>2026-04-28T08:16:04.312Z</time></trkpt><trkpt lat="44.7012683" lon="8.7585133"><ele>186.0</ele><time>2026-04-28T08:16:05.312Z</time></trkpt><trkpt lat="44.7011683" lon="8.7587"><ele>187.0</ele><time>2026-04-28T08:16:06.312Z</time></trkpt><trkpt lat="44.7010883" lon="8.7589167"><ele>188.0</ele><time>2026-04-28T08:16:07.312Z</time></trkpt><trkpt lat="44.7010133" lon="8.75914"><ele>189.0</ele><time>2026-04-28T08:16:08.311Z</time></trkpt><trkpt lat="44.7009333" lon="8.7593667"><ele>187.33333333333334</ele><time>2026-04-28T08:16:09.312Z</time></trkpt><trkpt lat="44.7008433" lon="8.75961"><ele>185.66666666666669</ele><time>2026-04-28T08:16:10.312Z</time></trkpt><trkpt lat="44.70076" lon="8.7598617"><ele>184.0</ele><time>2026-04-28T08:16:11.312Z</time></trkpt><trkpt lat="44.70067" lon="8.76012"><ele>185.66666666666669</ele><time>2026-04-28T08:16:12.312Z</time></trkpt><trkpt lat="44.70058" lon="8.76036"><ele>187.33333333333334</ele><time>2026-04-28T08:16:13.312Z</time></trkpt><trkpt lat="44.7004967" lon="8.7606"><ele>189.0</ele><time>2026-04-28T08:16:14.312Z</time></trkpt><trkpt lat="44.7004183" lon="8.7608283"><ele>189.66666666666666</ele><time>2026-04-28T08:16:15.312Z</time></trkpt><trkpt lat="44.7003533" lon="8.761055"><ele>190.33333333333331</ele><time>2026-04-28T08:16:16.312Z</time></trkpt><trkpt lat="44.700295" lon="8.7612867"><ele>191.0</ele><time>2026-04-28T08:16:17.312Z</time></trkpt><trkpt lat="44.7002417" lon="8.76151"><ele>191.0</ele><time>2026-04-28T08:16:18.311Z</time></trkpt><trkpt lat="44.7001917" lon="8.7617267"><ele>191.0</ele><time>2026-04-28T08:16:19.312Z</time></trkpt><trkpt lat="44.7001333" lon="8.7619183"><ele>191.0</ele><time>2026-04-28T08:16:20.312Z</time></trkpt><trkpt lat="44.7000517" lon="8.76211"><ele>192.0</ele><time>2026-04-28T08:16:21.312Z</time></trkpt><trkpt lat="44.6999467" lon="8.7623017"><ele>193.0</ele><time>2026-04-28T08:16:22.312Z</time></trkpt><trkpt lat="44.69983" lon="8.762495"><ele>194.0</ele><time>2026-04-28T08:16:23.312Z</time></trkpt><trkpt lat="44.69971" lon="8.7626933"><ele>195.0</ele><time>2026-04-28T08:16:24.312Z</time></trkpt><trkpt lat="44.6995733" lon="8.7628917"><ele>196.0</ele><time>2026-04-28T08:16:25.311Z</time></trkpt><trkpt lat="44.6994667" lon="8.7630683"><ele>197.0</ele><time>2026-04-28T08:16:26.311Z</time></trkpt><trkpt lat="44.6993533" lon="8.76323"><ele>197.0</ele><time>2026-04-28T08:16:27.312Z</time></trkpt><trkpt lat="44.6992483" lon="8.7634"><ele>197.0</ele><time>2026-04-28T08:16:28.312Z</time></trkpt><trkpt lat="44.6991417" lon="8.76359"><ele>197.0</ele><time>2026-04-28T08:16:29.312Z</time></trkpt><trkpt lat="44.69904" lon="8.7638"><ele>197.66666666666669</ele><time>2026-04-28T08:16:30.312Z</time></trkpt><trkpt lat="44.6989283" lon="8.7640267"><ele>198.33333333333331</ele><time>2026-04-28T08:16:31.312Z</time></trkpt><trkpt lat="44.6988033" lon="8.7642733"><ele>199.0</ele><time>2026-04-28T08:16:32.312Z</time></trkpt><trkpt lat="44.6986733" lon="8.7645517"><ele>200.5</ele><time>2026-04-28T08:16:33.312Z</time></trkpt><trkpt lat="44.6985433" lon="8.7648317"><ele>202.0</ele><time>2026-04-28T08:16:34.312Z</time></trkpt><trkpt lat="44.6984167" lon="8.7651183"><ele>203.0</ele><time>2026-04-28T08:16:35.312Z</time></trkpt><trkpt lat="44.6983017" lon="8.7653667"><ele>204.0</ele><time>2026-04-28T08:16:36.312Z</time></trkpt><trkpt lat="44.6981933" lon="8.7655983"><ele>205.0</ele><time>2026-04-28T08:16:37.312Z</time></trkpt><trkpt lat="44.6980833" lon="8.7658233"><ele>205.0</ele><time>2026-04-28T08:16:38.312Z</time></trkpt><trkpt lat="44.6979733" lon="8.76605"><ele>205.0</ele><time>2026-04-28T08:16:39.312Z</time></trkpt><trkpt lat="44.6978567" lon="8.7662533"><ele>205.0</ele><time>2026-04-28T08:16:40.312Z</time></trkpt><trkpt lat="44.6977383" lon="8.7664517"><ele>205.0</ele><time>2026-04-28T08:16:41.312Z</time></trkpt><trkpt lat="44.697615" lon="8.7666333"><ele>205.0</ele><time>2026-04-28T08:16:42.312Z</time></trkpt><trkpt lat="44.6975033" lon="8.7668067"><ele>205.0</ele><time>2026-04-28T08:16:43.312Z</time></trkpt><trkpt lat="44.697405" lon="8.766995"><ele>205.0</ele><time>2026-04-28T08:16:44.312Z</time></trkpt><trkpt lat="44.69732" lon="8.7671933"><ele>205.0</ele><time>2026-04-28T08:16:45.312Z</time></trkpt><trkpt lat="44.6972417" lon="8.767415"><ele>205.0</ele><time>2026-04-28T08:16:46.312Z</time></trkpt><trkpt lat="44.6971617" lon="8.76764"><ele>206.33333333333331</ele><time>2026-04-28T08:16:47.312Z</time></trkpt><trkpt lat="44.69709" lon="8.7678633"><ele>207.66666666666669</ele><time>2026-04-28T08:16:48.312Z</time></trkpt><trkpt lat="44.6970117" lon="8.7680833"><ele>209.0</ele><time>2026-04-28T08:16:49.312Z</time></trkpt><trkpt lat="44.6969283" lon="8.7682767"><ele>207.75</ele><time>2026-04-28T08:16:50.312Z</time></trkpt><trkpt lat="44.6968433" lon="8.7684517"><ele>206.5</ele><time>2026-04-28T08:16:51.312Z</time></trkpt><trkpt lat="44.6967517" lon="8.768595"><ele>205.25</ele><time>2026-04-28T08:16:52.312Z</time></trkpt><trkpt lat="44.6966467" lon="8.7687233"><ele>204.0</ele><time>2026-04-28T08:16:53.312Z</time></trkpt><trkpt lat="44.6965167" lon="8.7688383"><ele>207.25</ele><time>2026-04-28T08:16:54.312Z</time></trkpt><trkpt lat="44.6963917" lon="8.7689317"><ele>210.5</ele><time>2026-04-28T08:16:55.312Z</time></trkpt><trkpt lat="44.6962667" lon="8.76901"><ele>213.75</ele><time>2026-04-28T08:16:56.312Z</time></trkpt><trkpt lat="44.6961483" lon="8.769065"><ele>217.0</ele><time>2026-04-28T08:16:57.312Z</time></trkpt><trkpt lat="44.69604" lon="8.7691233"><ele>217.0</ele><time>2026-04-28T08:16:58.312Z</time></trkpt><trkpt lat="44.6959383" lon="8.7691967"><ele>217.0</ele><time>2026-04-28T08:16:59.312Z</time></trkpt><trkpt lat="44.695835" lon="8.7692883"><ele>217.0</ele><time>2026-04-28T08:17:00.312Z</time></trkpt><trkpt lat="44.6957283" lon="8.76938"><ele>217.0</ele><time>2026-04-28T08:17:01.312Z</time></trkpt><trkpt lat="44.6956317" lon="8.7694783"><ele>221.25</ele><time>2026-04-28T08:17:02.311Z</time></trkpt><trkpt lat="44.6955533" lon="8.7696"><ele>225.5</ele><time>2026-04-28T08:17:03.312Z</time></trkpt><trkpt lat="44.69547" lon="8.7697567"><ele>229.75</ele><time>2026-04-28T08:17:04.312Z</time></trkpt><trkpt lat="44.6953833" lon="8.7699283"><ele>234.0</ele><time>2026-04-28T08:17:05.311Z</time></trkpt><trkpt lat="44.6952967" lon="8.7701067"><ele>227.5</ele><time>2026-04-28T08:17:06.312Z</time></trkpt><trkpt lat="44.6952283" lon="8.7702817"><ele>221.0</ele><time>2026-04-28T08:17:07.312Z</time></trkpt><trkpt lat="44.6951733" lon="8.7704417"><ele>214.5</ele><time>2026-04-28T08:17:08.312Z</time></trkpt><trkpt lat="44.6951483" lon="8.770625"><ele>208.0</ele><time>2026-04-28T08:17:09.312Z</time></trkpt><trkpt lat="44.6951383" lon="8.7707917"><ele>208.0</ele><time>2026-04-28T08:17:10.312Z</time></trkpt><trkpt lat="44.6951483" lon="8.770925"><ele>208.0</ele><time>2026-04-28T08:17:11.312Z</time></trkpt><trkpt lat="44.6951733" lon="8.7710733"><ele>208.0</ele><time>2026-04-28T08:17:12.312Z</time></trkpt><trkpt lat="44.6952217" lon="8.7712283"><ele>208.0</ele><time>2026-04-28T08:17:13.311Z</time></trkpt><trkpt lat="44.6952833" lon="8.7714217"><ele>218.0</ele><time>2026-04-28T08:17:14.312Z</time></trkpt><trkpt lat="44.69534" lon="8.7716083"><ele>228.0</ele><time>2026-04-28T08:17:15.312Z</time></trkpt><trkpt lat="44.695385" lon="8.7718083"><ele>238.0</ele><time>2026-04-28T08:17:16.312Z</time></trkpt><trkpt lat="44.6954167" lon="8.77203"><ele>238.0</ele><time>2026-04-28T08:17:17.312Z</time></trkpt><trkpt lat="44.695435" lon="8.7722417"><ele>238.0</ele><time>2026-04-28T08:17:18.312Z</time></trkpt><trkpt lat="44.6954317" lon="8.7724633"><ele>238.0</ele><time>2026-04-28T08:17:19.312Z</time></trkpt><trkpt lat="44.6954333" lon="8.7726617"><ele>239.0</ele><time>2026-04-28T08:17:20.312Z</time></trkpt><trkpt lat="44.69544" lon="8.7728533"><ele>240.0</ele><time>2026-04-28T08:17:21.311Z</time></trkpt><trkpt lat="44.6954483" lon="8.7730533"><ele>241.0</ele><time>2026-04-28T08:17:22.312Z</time></trkpt><trkpt lat="44.6954667" lon="8.7732633"><ele>242.0</ele><time>2026-04-28T08:17:23.312Z</time></trkpt><trkpt lat="44.6954867" lon="8.7734983"><ele>244.33333333333334</ele><time>2026-04-28T08:17:24.312Z</time></trkpt><trkpt lat="44.6955083" lon="8.77375"><ele>246.66666666666669</ele><time>2026-04-28T08:17:25.312Z</time></trkpt><trkpt lat="44.6955317" lon="8.77399"><ele>249.0</ele><time>2026-04-28T08:17:26.312Z</time></trkpt><trkpt lat="44.695545" lon="8.7742217"><ele>249.33333333333331</ele><time>2026-04-28T08:17:27.312Z</time></trkpt><trkpt lat="44.6955583" lon="8.7744383"><ele>249.66666666666666</ele><time>2026-04-28T08:17:28.312Z</time></trkpt><trkpt lat="44.69555" lon="8.7746617"><ele>250.0</ele><time>2026-04-28T08:17:29.312Z</time></trkpt><trkpt lat="44.69554" lon="8.7748917"><ele>250.0</ele><time>2026-04-28T08:17:30.312Z</time></trkpt><trkpt lat="44.6955283" lon="8.7751217"><ele>250.0</ele><time>2026-04-28T08:17:31.312Z</time></trkpt><trkpt lat="44.69551" lon="8.7753483"><ele>250.0</ele><time>2026-04-28T08:17:32.312Z</time></trkpt><trkpt lat="44.6954883" lon="8.775575"><ele>249.25</ele><time>2026-04-28T08:17:33.312Z</time></trkpt><trkpt lat="44.69549" lon="8.7757867"><ele>248.5</ele><time>2026-04-28T08:17:34.312Z</time></trkpt><trkpt lat="44.69552" lon="8.7759917"><ele>247.75</ele><time>2026-04-28T08:17:35.312Z</time></trkpt><trkpt lat="44.6955583" lon="8.776185"><ele>247.0</ele><time>2026-04-28T08:17:36.312Z</time></trkpt><trkpt lat="44.6956333" lon="8.7763867"><ele>243.33333333333331</ele><time>2026-04-28T08:17:37.312Z</time></trkpt><trkpt lat="44.6957" lon="8.77659"><ele>239.66666666666669</ele><time>2026-04-28T08:17:38.312Z</time></trkpt><trkpt lat="44.6957567" lon="8.7768017"><ele>236.0</ele><time>2026-04-28T08:17:39.312Z</time></trkpt><trkpt lat="44.6957917" lon="8.777025"><ele>233.0</ele><time>2026-04-28T08:17:40.312Z</time></trkpt><trkpt lat="44.6958" lon="8.7772517"><ele>230.0</ele><time>2026-04-28T08:17:41.312Z</time></trkpt><trkpt lat="44.69578" lon="8.77749"><ele>227.0</ele><time>2026-04-28T08:17:42.312Z</time></trkpt><trkpt lat="44.6957417" lon="8.7777417"><ele>225.66666666666669</ele><time>2026-04-28T08:17:43.312Z</time></trkpt><trkpt lat="44.69569" lon="8.7779883"><ele>224.33333333333331</ele><time>2026-04-28T08:17:44.312Z</time></trkpt><trkpt lat="44.695655" lon="8.7782083"><ele>223.0</ele><time>2026-04-28T08:17:45.312Z</time></trkpt><trkpt lat="44.6956167" lon="8.778385"><ele>224.2</ele><time>2026-04-28T08:17:46.312Z</time></trkpt><trkpt lat="44.69559" lon="8.7785383"><ele>225.4</ele><time>2026-04-28T08:17:47.312Z</time></trkpt><trkpt lat="44.69554" lon="8.7786683"><ele>226.59999999999997</ele><time>2026-04-28T08:17:48.312Z</time></trkpt><trkpt lat="44.6954667" lon="8.77877"><ele>227.79999999999998</ele><time>2026-04-28T08:17:49.312Z</time></trkpt><trkpt lat="44.6953883" lon="8.7788467"><ele>229.0</ele><time>2026-04-28T08:17:50.312Z</time></trkpt><trkpt lat="44.69529" lon="8.778885"><ele>225.75</ele><time>2026-04-28T08:17:51.312Z</time></trkpt><trkpt lat="44.695155" lon="8.77888"><ele>222.5</ele><time>2026-04-28T08:17:52.311Z</time></trkpt><trkpt lat="44.69502" lon="8.7788183"><ele>219.25</ele><time>2026-04-28T08:17:53.312Z</time></trkpt><trkpt lat="44.694865" lon="8.778725"><ele>216.0</ele><time>2026-04-28T08:17:54.312Z</time></trkpt><trkpt lat="44.6947117" lon="8.778625"><ele>216.0</ele><time>2026-04-28T08:17:55.312Z</time></trkpt><trkpt lat="44.6945683" lon="8.7785333"><ele>216.0</ele><time>2026-04-28T08:17:56.312Z</time></trkpt><trkpt lat="44.6944433" lon="8.7784667"><ele>216.0</ele><time>2026-04-28T08:17:57.312Z</time></trkpt><trkpt lat="44.6943417" lon="8.7784333"><ele>216.0</ele><time>2026-04-28T08:17:58.312Z</time></trkpt><trkpt lat="44.69425" lon="8.77843"><ele>214.4</ele><time>2026-04-28T08:17:59.312Z</time></trkpt><trkpt lat="44.694165" lon="8.7784583"><ele>212.8</ele><time>2026-04-28T08:18:00.311Z</time></trkpt><trkpt lat="44.69409" lon="8.7785367"><ele>211.20000000000002</ele><time>2026-04-28T08:18:01.312Z</time></trkpt><trkpt lat="44.6940167" lon="8.7786683"><ele>209.60000000000002</ele><time>2026-04-28T08:18:02.312Z</time></trkpt><trkpt lat="44.6939633" lon="8.7788483"><ele>208.0</ele><time>2026-04-28T08:18:03.312Z</time></trkpt><trkpt lat="44.6939283" lon="8.7790733"><ele>208.0</ele><time>2026-04-28T08:18:04.312Z</time></trkpt><trkpt lat="44.6938933" lon="8.779345"><ele>208.0</ele><time>2026-04-28T08:18:05.312Z</time></trkpt><trkpt lat="44.6938583" lon="8.779615"><ele>208.0</ele><time>2026-04-28T08:18:06.311Z</time></trkpt><trkpt lat="44.6938367" lon="8.7798833"><ele>208.66666666666666</ele><time>2026-04-28T08:18:07.311Z</time></trkpt><trkpt lat="44.6937917" lon="8.780145"><ele>209.33333333333331</ele><time>2026-04-28T08:18:08.312Z</time></trkpt><trkpt lat="44.69376" lon="8.7803983"><ele>210.0</ele><time>2026-04-28T08:18:09.312Z</time></trkpt><trkpt lat="44.6937433" lon="8.78064"><ele>210.0</ele><time>2026-04-28T08:18:10.312Z</time></trkpt><trkpt lat="44.693735" lon="8.7808783"><ele>210.0</ele><time>2026-04-28T08:18:11.312Z</time></trkpt><trkpt lat="44.6937583" lon="8.7811083"><ele>210.0</ele><time>2026-04-28T08:18:12.312Z</time></trkpt><trkpt lat="44.693805" lon="8.781355"><ele>210.0</ele><time>2026-04-28T08:18:13.312Z</time></trkpt><trkpt lat="44.6938683" lon="8.7816067"><ele>210.0</ele><time>2026-04-28T08:18:14.312Z</time></trkpt><trkpt lat="44.6939267" lon="8.7818767"><ele>210.0</ele><time>2026-04-28T08:18:15.312Z</time></trkpt><trkpt lat="44.6939867" lon="8.78215"><ele>210.0</ele><time>2026-04-28T08:18:16.311Z</time></trkpt><trkpt lat="44.6940533" lon="8.7824233"><ele>210.0</ele><time>2026-04-28T08:18:17.312Z</time></trkpt><trkpt lat="44.6941383" lon="8.782695"><ele>210.0</ele><time>2026-04-28T08:18:18.312Z</time></trkpt><trkpt lat="44.69423" lon="8.7829683"><ele>207.33333333333331</ele><time>2026-04-28T08:18:19.312Z</time></trkpt><trkpt lat="44.694325" lon="8.78323"><ele>204.66666666666666</ele><time>2026-04-28T08:18:20.312Z</time></trkpt><trkpt lat="44.694415" lon="8.783485"><ele>202.0</ele><time>2026-04-28T08:18:21.312Z</time></trkpt><trkpt lat="44.6945017" lon="8.7837267"><ele>206.66666666666666</ele><time>2026-04-28T08:18:22.312Z</time></trkpt><trkpt lat="44.6945683" lon="8.7839567"><ele>211.33333333333331</ele><time>2026-04-28T08:18:23.312Z</time></trkpt><trkpt lat="44.6946233" lon="8.784185"><ele>216.0</ele><time>2026-04-28T08:18:24.312Z</time></trkpt><trkpt lat="44.6946817" lon="8.7844167"><ele>216.0</ele><time>2026-04-28T08:18:25.311Z</time></trkpt><trkpt lat="44.69475" lon="8.7846383"><ele>216.0</ele><time>2026-04-28T08:18:26.312Z</time></trkpt><trkpt lat="44.6948317" lon="8.7848567"><ele>216.0</ele><time>2026-04-28T08:18:27.311Z</time></trkpt><trkpt lat="44.6949267" lon="8.7850767"><ele>212.66666666666669</ele><time>2026-04-28T08:18:28.312Z</time></trkpt><trkpt lat="44.6950233" lon="8.7853033"><ele>209.33333333333334</ele><time>2026-04-28T08:18:29.312Z</time></trkpt><trkpt lat="44.6950983" lon="8.7855417"><ele>206.0</ele><time>2026-04-28T08:18:30.312Z</time></trkpt><trkpt lat="44.6951517" lon="8.785785"><ele>205.33333333333334</ele><time>2026-04-28T08:18:31.312Z</time></trkpt><trkpt lat="44.6952033" lon="8.7860317"><ele>204.66666666666669</ele><time>2026-04-28T08:18:32.312Z</time></trkpt><trkpt lat="44.6952667" lon="8.78628"><ele>204.0</ele><time>2026-04-28T08:18:33.312Z</time></trkpt><trkpt lat="44.6953467" lon="8.7865317"><ele>205.66666666666669</ele><time>2026-04-28T08:18:34.312Z</time></trkpt><trkpt lat="44.695435" lon="8.7867917"><ele>207.33333333333334</ele><time>2026-04-28T08:18:35.312Z</time></trkpt><trkpt lat="44.69554" lon="8.7870583"><ele>209.0</ele><time>2026-04-28T08:18:36.312Z</time></trkpt><trkpt lat="44.69566" lon="8.7873333"><ele>209.0</ele><time>2026-04-28T08:18:37.312Z</time></trkpt><trkpt lat="44.6957933" lon="8.787595"><ele>209.0</ele><time>2026-04-28T08:18:38.312Z</time></trkpt><trkpt lat="44.6959233" lon="8.78784"><ele>209.0</ele><time>2026-04-28T08:18:39.312Z</time></trkpt><trkpt lat="44.6960283" lon="8.78807"><ele>212.66666666666669</ele><time>2026-04-28T08:18:40.312Z</time></trkpt><trkpt lat="44.696125" lon="8.788305"><ele>216.33333333333331</ele><time>2026-04-28T08:18:41.312Z</time></trkpt><trkpt lat="44.6962" lon="8.7885517"><ele>220.0</ele><time>2026-04-28T08:18:42.312Z</time></trkpt><trkpt lat="44.696275" lon="8.7887917"><ele>220.0</ele><time>2026-04-28T08:18:43.312Z</time></trkpt><trkpt lat="44.6963467" lon="8.7890183"><ele>220.0</ele><time>2026-04-28T08:18:44.312Z</time></trkpt><trkpt lat="44.6964217" lon="8.789225"><ele>220.0</ele><time>2026-04-28T08:18:45.312Z</time></trkpt><trkpt lat="44.6965033" lon="8.7894233"><ele>217.0</ele><time>2026-04-28T08:18:46.312Z</time></trkpt><trkpt lat="44.6965867" lon="8.7895983"><ele>214.0</ele><time>2026-04-28T08:18:47.312Z</time></trkpt><trkpt lat="44.6966533" lon="8.7897883"><ele>211.0</ele><time>2026-04-28T08:18:48.312Z</time></trkpt><trkpt lat="44.6967117" lon="8.7899867"><ele>209.0</ele><time>2026-04-28T08:18:49.312Z</time></trkpt><trkpt lat="44.696755" lon="8.7901817"><ele>207.0</ele><time>2026-04-28T08:18:50.312Z</time></trkpt><trkpt lat="44.6967983" lon="8.790385"><ele>205.0</ele><time>2026-04-28T08:18:51.311Z</time></trkpt><trkpt lat="44.6968233" lon="8.7906067"><ele>205.0</ele><time>2026-04-28T08:18:52.312Z</time></trkpt><trkpt lat="44.6968433" lon="8.7908333"><ele>205.0</ele><time>2026-04-28T08:18:53.312Z</time></trkpt><trkpt lat="44.696855" lon="8.7910567"><ele>205.0</ele><time>2026-04-28T08:18:54.312Z</time></trkpt><trkpt lat="44.6968667" lon="8.791285"><ele>204.66666666666666</ele><time>2026-04-28T08:18:55.312Z</time></trkpt><trkpt lat="44.696875" lon="8.7915317"><ele>204.33333333333331</ele><time>2026-04-28T08:18:56.312Z</time></trkpt><trkpt lat="44.6968817" lon="8.7917733"><ele>204.0</ele><time>2026-04-28T08:18:57.312Z</time></trkpt><trkpt lat="44.6968983" lon="8.79201"><ele>205.33333333333331</ele><time>2026-04-28T08:18:58.312Z</time></trkpt><trkpt lat="44.6969083" lon="8.7922433"><ele>206.66666666666666</ele><time>2026-04-28T08:18:59.312Z</time></trkpt><trkpt lat="44.6969217" lon="8.79247"><ele>208.0</ele><time>2026-04-28T08:19:00.312Z</time></trkpt><trkpt lat="44.6969367" lon="8.792675"><ele>210.0</ele><time>2026-04-28T08:19:01.311Z</time></trkpt><trkpt lat="44.696935" lon="8.7928667"><ele>212.0</ele><time>2026-04-28T08:19:02.311Z</time></trkpt><trkpt lat="44.6969117" lon="8.7930467"><ele>214.0</ele><time>2026-04-28T08:19:03.312Z</time></trkpt><trkpt lat="44.696865" lon="8.793215"><ele>216.0</ele><time>2026-04-28T08:19:04.312Z</time></trkpt><trkpt lat="44.696795" lon="8.7933867"><ele>220.33333333333331</ele><time>2026-04-28T08:19:05.312Z</time></trkpt><trkpt lat="44.6966883" lon="8.7935733"><ele>224.66666666666666</ele><time>2026-04-28T08:19:06.312Z</time></trkpt><trkpt lat="44.6965683" lon="8.7937617"><ele>229.0</ele><time>2026-04-28T08:19:07.312Z</time></trkpt><trkpt lat="44.6964333" lon="8.7939567"><ele>229.0</ele><time>2026-04-28T08:19:08.312Z</time></trkpt><trkpt lat="44.6963183" lon="8.7941283"><ele>229.0</ele><time>2026-04-28T08:19:09.312Z</time></trkpt><trkpt lat="44.6962033" lon="8.7942833"><ele>229.0</ele><time>2026-04-28T08:19:10.312Z</time></trkpt><trkpt lat="44.696085" lon="8.794425"><ele>231.66666666666666</ele><time>2026-04-28T08:19:11.312Z</time></trkpt><trkpt lat="44.6959433" lon="8.7945567"><ele>234.33333333333331</ele><time>2026-04-28T08:19:12.312Z</time></trkpt><trkpt lat="44.6957883" lon="8.794675"><ele>237.0</ele><time>2026-04-28T08:19:13.311Z</time></trkpt><trkpt lat="44.6956367" lon="8.7947867"><ele>237.0</ele><time>2026-04-28T08:19:14.312Z</time></trkpt><trkpt lat="44.6954933" lon="8.7949"><ele>237.0</ele><time>2026-04-28T08:19:15.312Z</time></trkpt><trkpt lat="44.695355" lon="8.7950117"><ele>237.0</ele><time>2026-04-28T08:19:16.312Z</time></trkpt><trkpt lat="44.6952167" lon="8.7951067"><ele>238.5</ele><time>2026-04-28T08:19:17.311Z</time></trkpt><trkpt lat="44.6950833" lon="8.7952033"><ele>240.0</ele><time>2026-04-28T08:19:18.312Z</time></trkpt><trkpt lat="44.6949517" lon="8.7952833"><ele>241.5</ele><time>2026-04-28T08:19:19.312Z</time></trkpt><trkpt lat="44.6948283" lon="8.7953433"><ele>243.0</ele><time>2026-04-28T08:19:20.312Z</time></trkpt><trkpt lat="44.6947133" lon="8.7954083"><ele>243.0</ele><time>2026-04-28T08:19:21.311Z</time></trkpt><trkpt lat="44.6946117" lon="8.7954933"><ele>243.0</ele><time>2026-04-28T08:19:22.311Z</time></trkpt><trkpt lat="44.6945217" lon="8.7955933"><ele>243.0</ele><time>2026-04-28T08:19:23.312Z</time></trkpt><trkpt lat="44.69444" lon="8.7957267"><ele>243.0</ele><time>2026-04-28T08:19:24.312Z</time></trkpt><trkpt lat="44.6943567" lon="8.79586"><ele>242.25</ele><time>2026-04-28T08:19:25.312Z</time></trkpt><trkpt lat="44.6942767" lon="8.795995"><ele>241.5</ele><time>2026-04-28T08:19:26.311Z</time></trkpt><trkpt lat="44.6941967" lon="8.7961217"><ele>240.75</ele><time>2026-04-28T08:19:27.311Z</time></trkpt><trkpt lat="44.6941117" lon="8.7962383"><ele>240.0</ele><time>2026-04-28T08:19:28.312Z</time></trkpt><trkpt lat="44.6940133" lon="8.7963367"><ele>240.0</ele><time>2026-04-28T08:19:29.312Z</time></trkpt><trkpt lat="44.6939083" lon="8.7964383"><ele>240.0</ele><time>2026-04-28T08:19:30.312Z</time></trkpt><trkpt lat="44.69382" lon="8.79652"><ele>240.0</ele><time>2026-04-28T08:19:31.312Z</time></trkpt><trkpt lat="44.6937317" lon="8.7966033"><ele>240.0</ele><time>2026-04-28T08:19:32.312Z</time></trkpt><trkpt lat="44.6936483" lon="8.7967017"><ele>240.0</ele><time>2026-04-28T08:19:33.312Z</time></trkpt><trkpt lat="44.6935783" lon="8.7968283"><ele>238.5</ele><time>2026-04-28T08:19:34.312Z</time></trkpt><trkpt lat="44.6935167" lon="8.797"><ele>237.0</ele><time>2026-04-28T08:19:35.312Z</time></trkpt><trkpt lat="44.6934517" lon="8.7971967"><ele>235.5</ele><time>2026-04-28T08:19:36.312Z</time></trkpt><trkpt lat="44.6933933" lon="8.7973817"><ele>234.0</ele><time>2026-04-28T08:19:37.312Z</time></trkpt><trkpt lat="44.6933317" lon="8.7975567"><ele>238.0</ele><time>2026-04-28T08:19:38.312Z</time></trkpt><trkpt lat="44.693245" lon="8.7977183"><ele>242.0</ele><time>2026-04-28T08:19:39.312Z</time></trkpt><trkpt lat="44.6931417" lon="8.7978833"><ele>246.0</ele><time>2026-04-28T08:19:40.312Z</time></trkpt><trkpt lat="44.6930367" lon="8.7980517"><ele>246.0</ele><time>2026-04-28T08:19:41.312Z</time></trkpt><trkpt lat="44.692945" lon="8.7982183"><ele>246.0</ele><time>2026-04-28T08:19:42.312Z</time></trkpt><trkpt lat="44.6928567" lon="8.7983767"><ele>246.0</ele><time>2026-04-28T08:19:43.312Z</time></trkpt><trkpt lat="44.6927667" lon="8.7985167"><ele>246.0</ele><time>2026-04-28T08:19:44.312Z</time></trkpt><trkpt lat="44.692665" lon="8.7986367"><ele>241.25</ele><time>2026-04-28T08:19:45.312Z</time></trkpt><trkpt lat="44.6925667" lon="8.79875"><ele>236.5</ele><time>2026-04-28T08:19:46.312Z</time></trkpt><trkpt lat="44.6924683" lon="8.7988383"><ele>231.75</ele><time>2026-04-28T08:19:47.312Z</time></trkpt><trkpt lat="44.6923767" lon="8.7989217"><ele>227.0</ele><time>2026-04-28T08:19:48.312Z</time></trkpt><trkpt lat="44.6923033" lon="8.799015"><ele>227.0</ele><time>2026-04-28T08:19:49.312Z</time></trkpt><trkpt lat="44.6922567" lon="8.7991217"><ele>227.0</ele><time>2026-04-28T08:19:50.312Z</time></trkpt><trkpt lat="44.6922483" lon="8.7992683"><ele>227.0</ele><time>2026-04-28T08:19:51.311Z</time></trkpt><trkpt lat="44.692255" lon="8.7994083"><ele>227.0</ele><time>2026-04-28T08:19:52.312Z</time></trkpt><trkpt lat="44.69226" lon="8.7995417"><ele>227.0</ele><time>2026-04-28T08:19:53.312Z</time></trkpt><trkpt lat="44.6922417" lon="8.79964"><ele>226.00000000000003</ele><time>2026-04-28T08:19:54.312Z</time></trkpt><trkpt lat="44.6922017" lon="8.7997367"><ele>225.0</ele><time>2026-04-28T08:19:55.312Z</time></trkpt><trkpt lat="44.692145" lon="8.79983"><ele>224.0</ele><time>2026-04-28T08:19:56.311Z</time></trkpt><trkpt lat="44.6920683" lon="8.799895"><ele>223.0</ele><time>2026-04-28T08:19:57.312Z</time></trkpt><trkpt lat="44.6919883" lon="8.7999467"><ele>222.00000000000003</ele><time>2026-04-28T08:19:58.312Z</time></trkpt><trkpt lat="44.6919" lon="8.7999917"><ele>221.0</ele><time>2026-04-28T08:19:59.312Z</time></trkpt><trkpt lat="44.6917983" lon="8.8000167"><ele>220.60000000000002</ele><time>2026-04-28T08:20:00.312Z</time></trkpt><trkpt lat="44.6916983" lon="8.8000217"><ele>220.20000000000002</ele><time>2026-04-28T08:20:01.312Z</time></trkpt><trkpt lat="44.6915967" lon="8.8000117"><ele>219.79999999999998</ele><time>2026-04-28T08:20:02.312Z</time></trkpt><trkpt lat="44.6915" lon="8.7999983"><ele>219.39999999999998</ele><time>2026-04-28T08:20:03.312Z</time></trkpt><trkpt lat="44.69141" lon="8.7999883"><ele>219.0</ele><time>2026-04-28T08:20:04.312Z</time></trkpt><trkpt lat="44.691325" lon="8.79998"><ele>219.0</ele><time>2026-04-28T08:20:05.312Z</time></trkpt><trkpt lat="44.691255" lon="8.7999667"><ele>219.0</ele><time>2026-04-28T08:20:06.312Z</time></trkpt><trkpt lat="44.69118" lon="8.7999483"><ele>219.0</ele><time>2026-04-28T08:20:07.312Z</time></trkpt><trkpt lat="44.6910983" lon="8.7999067"><ele>219.0</ele><time>2026-04-28T08:20:08.311Z</time></trkpt><trkpt lat="44.6910167" lon="8.7998583"><ele>219.0</ele><time>2026-04-28T08:20:09.312Z</time></trkpt><trkpt lat="44.6909333" lon="8.7998367"><ele>219.0</ele><time>2026-04-28T08:20:10.312Z</time></trkpt><trkpt lat="44.6908583" lon="8.7998317"><ele>220.0</ele><time>2026-04-28T08:20:11.312Z</time></trkpt><trkpt lat="44.6907867" lon="8.7998383"><ele>220.99999999999997</ele><time>2026-04-28T08:20:12.312Z</time></trkpt><trkpt lat="44.69067" lon="8.7998833"><ele>221.99999999999997</ele><time>2026-04-28T08:20:14.312Z</time></trkpt><trkpt lat="44.6905817" lon="8.7999733"><ele>223.0</ele><time>2026-04-28T08:20:16.312Z</time></trkpt><trkpt lat="44.6904983" lon="8.8000533"><ele>224.0</ele><time>2026-04-28T08:20:18.312Z</time></trkpt><trkpt lat="44.6904133" lon="8.800125"><ele>224.0</ele><time>2026-04-28T08:20:20.312Z</time></trkpt><trkpt lat="44.6903017" lon="8.8001233"><ele>223.99999999999997</ele><time>2026-04-28T08:20:22.311Z</time></trkpt><trkpt lat="44.6901917" lon="8.80016"><ele>223.99999999999997</ele><time>2026-04-28T08:20:24.312Z</time></trkpt><trkpt lat="44.6901317" lon="8.8001967"><ele>224.0</ele><time>2026-04-28T08:20:25.312Z</time></trkpt><trkpt lat="44.6900767" lon="8.8002517"><ele>224.0</ele><time>2026-04-28T08:20:26.312Z</time></trkpt><trkpt lat="44.6899717" lon="8.800385"><ele>224.33333333333334</ele><time>2026-04-28T08:20:28.312Z</time></trkpt><trkpt lat="44.6899167" lon="8.8004567"><ele>224.66666666666669</ele><time>2026-04-28T08:20:29.312Z</time></trkpt><trkpt lat="44.689865" lon="8.8005183"><ele>225.0</ele><time>2026-04-28T08:20:30.312Z</time></trkpt><trkpt lat="44.6898133" lon="8.800575"><ele>225.33333333333331</ele><time>2026-04-28T08:20:31.312Z</time></trkpt><trkpt lat="44.6897533" lon="8.800685"><ele>225.66666666666666</ele><time>2026-04-28T08:20:33.312Z</time></trkpt><trkpt lat="44.6896817" lon="8.8008167"><ele>226.0</ele><time>2026-04-28T08:20:35.312Z</time></trkpt><trkpt lat="44.6896117" lon="8.8009333"><ele>226.0</ele><time>2026-04-28T08:20:37.311Z</time></trkpt><trkpt lat="44.6895633" lon="8.8009917"><ele>226.00000000000003</ele><time>2026-04-28T08:20:38.312Z</time></trkpt><trkpt lat="44.6895117" lon="8.8010983"><ele>226.00000000000003</ele><time>2026-04-28T08:20:40.311Z</time></trkpt><trkpt lat="44.689465" lon="8.8011933"><ele>226.0</ele><time>2026-04-28T08:20:41.312Z</time></trkpt><trkpt lat="44.6894117" lon="8.80132"><ele>226.0</ele><time>2026-04-28T08:20:42.312Z</time></trkpt><trkpt lat="44.689355" lon="8.8014567"><ele>226.4</ele><time>2026-04-28T08:20:43.312Z</time></trkpt><trkpt lat="44.6892833" lon="8.801585"><ele>226.8</ele><time>2026-04-28T08:20:44.312Z</time></trkpt><trkpt lat="44.6892233" lon="8.8017033"><ele>227.20000000000002</ele><time>2026-04-28T08:20:45.312Z</time></trkpt><trkpt lat="44.6891517" lon="8.8018"><ele>227.60000000000002</ele><time>2026-04-28T08:20:46.312Z</time></trkpt><trkpt lat="44.68909" lon="8.8018783"><ele>228.0</ele><time>2026-04-28T08:20:47.312Z</time></trkpt><trkpt lat="44.6890083" lon="8.801965"><ele>228.66666666666666</ele><time>2026-04-28T08:20:48.312Z</time></trkpt><trkpt lat="44.688945" lon="8.8020583"><ele>229.33333333333331</ele><time>2026-04-28T08:20:49.312Z</time></trkpt><trkpt lat="44.6888817" lon="8.80215"><ele>230.0</ele><time>2026-04-28T08:20:50.311Z</time></trkpt><trkpt lat="44.6888233" lon="8.8022383"><ele>230.66666666666666</ele><time>2026-04-28T08:20:51.312Z</time></trkpt><trkpt lat="44.6887833" lon="8.8023283"><ele>231.33333333333331</ele><time>2026-04-28T08:20:52.312Z</time></trkpt><trkpt lat="44.6887317" lon="8.8023983"><ele>232.0</ele><time>2026-04-28T08:20:53.312Z</time></trkpt><trkpt lat="44.6886517" lon="8.80252"><ele>231.99999999999997</ele><time>2026-04-28T08:20:55.312Z</time></trkpt><trkpt lat="44.688585" lon="8.8026167"><ele>232.0</ele><time>2026-04-28T08:20:57.312Z</time></trkpt><trkpt lat="44.68853" lon="8.8027117"><ele>232.0</ele><time>2026-04-28T08:20:59.312Z</time></trkpt><trkpt lat="44.6884533" lon="8.8028183"><ele>232.0</ele><time>2026-04-28T08:21:01.312Z</time></trkpt><trkpt lat="44.6884" lon="8.802905"><ele>231.99999999999997</ele><time>2026-04-28T08:21:03.312Z</time></trkpt><trkpt lat="44.6883617" lon="8.802995"><ele>232.0</ele><time>2026-04-28T08:21:06.312Z</time></trkpt><trkpt lat="44.68831" lon="8.8031067"><ele>232.00000000000003</ele><time>2026-04-28T08:21:09.312Z</time></trkpt><trkpt lat="44.688275" lon="8.8032167"><ele>232.0</ele><time>2026-04-28T08:21:12.312Z</time></trkpt><trkpt lat="44.68825" lon="8.8033233"><ele>232.00000000000003</ele><time>2026-04-28T08:21:15.312Z</time></trkpt><trkpt lat="44.6882217" lon="8.8034183"><ele>232.00000000000003</ele><time>2026-04-28T08:21:18.312Z</time></trkpt><trkpt lat="44.6881933" lon="8.8035083"><ele>232.0</ele><time>2026-04-28T08:21:21.312Z</time></trkpt><trkpt lat="44.68818" lon="8.803595"><ele>232.00000000000003</ele><time>2026-04-28T08:21:23.311Z</time></trkpt><trkpt lat="44.6881583" lon="8.8036883"><ele>232.00000000000003</ele><time>2026-04-28T08:21:25.312Z</time></trkpt><trkpt lat="44.688145" lon="8.8037833"><ele>231.83333333333331</ele><time>2026-04-28T08:21:27.312Z</time></trkpt><trkpt lat="44.688135" lon="8.803885"><ele>231.66666666666666</ele><time>2026-04-28T08:21:29.312Z</time></trkpt><trkpt lat="44.6881283" lon="8.8039883"><ele>231.5</ele><time>2026-04-28T08:21:31.312Z</time></trkpt><trkpt lat="44.6881283" lon="8.8040917"><ele>231.33333333333331</ele><time>2026-04-28T08:21:33.312Z</time></trkpt><trkpt lat="44.6881117" lon="8.8041983"><ele>231.16666666666666</ele><time>2026-04-28T08:21:35.312Z</time></trkpt><trkpt lat="44.6881017" lon="8.8043083"><ele>231.0</ele><time>2026-04-28T08:21:37.312Z</time></trkpt><trkpt lat="44.6881" lon="8.8044167"><ele>230.83333333333334</ele><time>2026-04-28T08:21:39.312Z</time></trkpt><trkpt lat="44.6881217" lon="8.804515"><ele>230.66666666666669</ele><time>2026-04-28T08:21:41.312Z</time></trkpt><trkpt lat="44.6881433" lon="8.8046033"><ele>230.5</ele><time>2026-04-28T08:21:43.312Z</time></trkpt><trkpt lat="44.688145" lon="8.8047167"><ele>230.33333333333334</ele><time>2026-04-28T08:21:45.312Z</time></trkpt><trkpt lat="44.6881533" lon="8.8048217"><ele>230.16666666666669</ele><time>2026-04-28T08:21:47.312Z</time></trkpt><trkpt lat="44.6881617" lon="8.8049517"><ele>230.0</ele><time>2026-04-28T08:21:50.312Z</time></trkpt><trkpt lat="44.688165" lon="8.8050483"><ele>229.83333333333334</ele><time>2026-04-28T08:21:52.312Z</time></trkpt><trkpt lat="44.6881767" lon="8.805165"><ele>229.66666666666669</ele><time>2026-04-28T08:21:54.311Z</time></trkpt><trkpt lat="44.68821" lon="8.805275"><ele>229.5</ele><time>2026-04-28T08:21:56.312Z</time></trkpt><trkpt lat="44.6882267" lon="8.8053683"><ele>229.33333333333331</ele><time>2026-04-28T08:21:58.312Z</time></trkpt><trkpt lat="44.6882333" lon="8.8054683"><ele>229.16666666666666</ele><time>2026-04-28T08:22:00.312Z</time></trkpt><trkpt lat="44.6882083" lon="8.80559"><ele>229.0</ele><time>2026-04-28T08:22:02.312Z</time></trkpt><trkpt lat="44.6881683" lon="8.8056817"><ele>229.0</ele><time>2026-04-28T08:22:03.312Z</time></trkpt><trkpt lat="44.6881267" lon="8.8057867"><ele>228.99999999999997</ele><time>2026-04-28T08:22:04.312Z</time></trkpt><trkpt lat="44.6880867" lon="8.8059183"><ele>228.99999999999997</ele><time>2026-04-28T08:22:05.312Z</time></trkpt><trkpt lat="44.6880483" lon="8.8060717"><ele>229.0</ele><time>2026-04-28T08:22:06.312Z</time></trkpt><trkpt lat="44.6879983" lon="8.806235"><ele>229.0</ele><time>2026-04-28T08:22:07.312Z</time></trkpt><trkpt lat="44.687955" lon="8.8063933"><ele>228.6</ele><time>2026-04-28T08:22:08.312Z</time></trkpt><trkpt lat="44.687905" lon="8.8065467"><ele>228.2</ele><time>2026-04-28T08:22:09.312Z</time></trkpt><trkpt lat="44.6878617" lon="8.80669"><ele>227.79999999999998</ele><time>2026-04-28T08:22:10.312Z</time></trkpt><trkpt lat="44.6878117" lon="8.8068167"><ele>227.39999999999998</ele><time>2026-04-28T08:22:11.312Z</time></trkpt><trkpt lat="44.687745" lon="8.8069033"><ele>227.0</ele><time>2026-04-28T08:22:12.312Z</time></trkpt><trkpt lat="44.6876683" lon="8.80695"><ele>227.0</ele><time>2026-04-28T08:22:13.312Z</time></trkpt><trkpt lat="44.6875717" lon="8.8069583"><ele>227.0</ele><time>2026-04-28T08:22:14.311Z</time></trkpt><trkpt lat="44.6874617" lon="8.806925"><ele>227.0</ele><time>2026-04-28T08:22:15.312Z</time></trkpt><trkpt lat="44.6873367" lon="8.8068833"><ele>227.0</ele><time>2026-04-28T08:22:16.312Z</time></trkpt><trkpt lat="44.6872067" lon="8.806815"><ele>225.75</ele><time>2026-04-28T08:22:17.312Z</time></trkpt><trkpt lat="44.6870767" lon="8.8067383"><ele>224.5</ele><time>2026-04-28T08:22:18.312Z</time></trkpt><trkpt lat="44.686955" lon="8.806655"><ele>223.25</ele><time>2026-04-28T08:22:19.311Z</time></trkpt><trkpt lat="44.6868433" lon="8.8065917"><ele>222.0</ele><time>2026-04-28T08:22:20.312Z</time></trkpt><trkpt lat="44.68674" lon="8.8065383"><ele>220.75</ele><time>2026-04-28T08:22:21.312Z</time></trkpt><trkpt lat="44.6866267" lon="8.80652"><ele>219.5</ele><time>2026-04-28T08:22:22.312Z</time></trkpt><trkpt lat="44.6864917" lon="8.80652"><ele>218.25</ele><time>2026-04-28T08:22:23.312Z</time></trkpt><trkpt lat="44.6863467" lon="8.8065433"><ele>217.0</ele><time>2026-04-28T08:22:24.312Z</time></trkpt><trkpt lat="44.6861983" lon="8.8065717"><ele>217.5</ele><time>2026-04-28T08:22:25.312Z</time></trkpt><trkpt lat="44.6860467" lon="8.8065717"><ele>218.0</ele><time>2026-04-28T08:22:26.312Z</time></trkpt><trkpt lat="44.685915" lon="8.806565"><ele>218.5</ele><time>2026-04-28T08:22:27.312Z</time></trkpt><trkpt lat="44.6857783" lon="8.8065917"><ele>219.0</ele><time>2026-04-28T08:22:28.312Z</time></trkpt><trkpt lat="44.6856283" lon="8.8066217"><ele>219.0</ele><time>2026-04-28T08:22:29.312Z</time></trkpt><trkpt lat="44.685485" lon="8.8066483"><ele>219.0</ele><time>2026-04-28T08:22:30.312Z</time></trkpt><trkpt lat="44.6853367" lon="8.8066917"><ele>219.0</ele><time>2026-04-28T08:22:31.312Z</time></trkpt><trkpt lat="44.68519" lon="8.8067583"><ele>218.66666666666669</ele><time>2026-04-28T08:22:32.312Z</time></trkpt><trkpt lat="44.685045" lon="8.80681"><ele>218.33333333333334</ele><time>2026-04-28T08:22:33.312Z</time></trkpt><trkpt lat="44.6849033" lon="8.8068817"><ele>218.0</ele><time>2026-04-28T08:22:34.312Z</time></trkpt><trkpt lat="44.6847617" lon="8.80697"><ele>218.66666666666669</ele><time>2026-04-28T08:22:35.312Z</time></trkpt><trkpt lat="44.6846167" lon="8.8070717"><ele>219.33333333333331</ele><time>2026-04-28T08:22:36.311Z</time></trkpt><trkpt lat="44.68447" lon="8.8071617"><ele>220.0</ele><time>2026-04-28T08:22:37.312Z</time></trkpt><trkpt lat="44.6843317" lon="8.8072383"><ele>220.0</ele><time>2026-04-28T08:22:38.312Z</time></trkpt><trkpt lat="44.6841883" lon="8.8073167"><ele>220.0</ele><time>2026-04-28T08:22:39.312Z</time></trkpt><trkpt lat="44.68404" lon="8.807385"><ele>220.0</ele><time>2026-04-28T08:22:40.312Z</time></trkpt><trkpt lat="44.68388" lon="8.8074517"><ele>220.0</ele><time>2026-04-28T08:22:41.312Z</time></trkpt><trkpt lat="44.683715" lon="8.807515"><ele>220.0</ele><time>2026-04-28T08:22:42.312Z</time></trkpt><trkpt lat="44.6835567" lon="8.807565"><ele>220.0</ele><time>2026-04-28T08:22:43.312Z</time></trkpt><trkpt lat="44.6833867" lon="8.80762"><ele>220.66666666666666</ele><time>2026-04-28T08:22:44.312Z</time></trkpt><trkpt lat="44.6832283" lon="8.8076733"><ele>221.33333333333331</ele><time>2026-04-28T08:22:45.312Z</time></trkpt><trkpt lat="44.683075" lon="8.8077217"><ele>222.0</ele><time>2026-04-28T08:22:46.312Z</time></trkpt><trkpt lat="44.68293" lon="8.8077767"><ele>222.0</ele><time>2026-04-28T08:22:47.312Z</time></trkpt><trkpt lat="44.6828017" lon="8.8078167"><ele>222.0</ele><time>2026-04-28T08:22:48.312Z</time></trkpt><trkpt lat="44.68268" lon="8.80786"><ele>222.0</ele><time>2026-04-28T08:22:49.312Z</time></trkpt><trkpt lat="44.6825783" lon="8.80791"><ele>222.0</ele><time>2026-04-28T08:22:50.312Z</time></trkpt><trkpt lat="44.6824667" lon="8.8079633"><ele>221.75</ele><time>2026-04-28T08:22:51.312Z</time></trkpt><trkpt lat="44.6823583" lon="8.808045"><ele>221.5</ele><time>2026-04-28T08:22:52.312Z</time></trkpt><trkpt lat="44.6822567" lon="8.808155"><ele>221.25</ele><time>2026-04-28T08:22:53.312Z</time></trkpt><trkpt lat="44.6821667" lon="8.8083"><ele>221.0</ele><time>2026-04-28T08:22:54.312Z</time></trkpt><trkpt lat="44.682075" lon="8.8084633"><ele>220.66666666666669</ele><time>2026-04-28T08:22:55.312Z</time></trkpt><trkpt lat="44.6819617" lon="8.8086567"><ele>220.33333333333331</ele><time>2026-04-28T08:22:56.312Z</time></trkpt><trkpt lat="44.68184" lon="8.80888"><ele>220.0</ele><time>2026-04-28T08:22:57.311Z</time></trkpt><trkpt lat="44.6817167" lon="8.809105"><ele>220.0</ele><time>2026-04-28T08:22:58.312Z</time></trkpt><trkpt lat="44.6815967" lon="8.8093217"><ele>220.0</ele><time>2026-04-28T08:22:59.311Z</time></trkpt><trkpt lat="44.6814817" lon="8.8095283"><ele>220.0</ele><time>2026-04-28T08:23:00.312Z</time></trkpt><trkpt lat="44.68137" lon="8.80972"><ele>220.0</ele><time>2026-04-28T08:23:01.312Z</time></trkpt><trkpt lat="44.6812767" lon="8.8099083"><ele>220.0</ele><time>2026-04-28T08:23:02.312Z</time></trkpt><trkpt lat="44.68117" lon="8.8100933"><ele>220.0</ele><time>2026-04-28T08:23:03.312Z</time></trkpt><trkpt lat="44.6810717" lon="8.81028"><ele>219.66666666666666</ele><time>2026-04-28T08:23:04.312Z</time></trkpt><trkpt lat="44.6809767" lon="8.8104483"><ele>219.33333333333331</ele><time>2026-04-28T08:23:05.312Z</time></trkpt><trkpt lat="44.6808767" lon="8.8106183"><ele>219.0</ele><time>2026-04-28T08:23:06.312Z</time></trkpt><trkpt lat="44.68078" lon="8.8107833"><ele>219.0</ele><time>2026-04-28T08:23:07.312Z</time></trkpt><trkpt lat="44.680685" lon="8.810955"><ele>219.0</ele><time>2026-04-28T08:23:08.311Z</time></trkpt><trkpt lat="44.68059" lon="8.8111083"><ele>219.0</ele><time>2026-04-28T08:23:09.312Z</time></trkpt><trkpt lat="44.680505" lon="8.81126"><ele>219.0</ele><time>2026-04-28T08:23:10.312Z</time></trkpt><trkpt lat="44.6804317" lon="8.8114067"><ele>220.0</ele><time>2026-04-28T08:23:11.312Z</time></trkpt><trkpt lat="44.680365" lon="8.8115417"><ele>221.0</ele><time>2026-04-28T08:23:12.311Z</time></trkpt><trkpt lat="44.6803033" lon="8.8116833"><ele>222.0</ele><time>2026-04-28T08:23:13.312Z</time></trkpt><trkpt lat="44.6802317" lon="8.8118367"><ele>223.0</ele><time>2026-04-28T08:23:14.312Z</time></trkpt><trkpt lat="44.6801433" lon="8.812015"><ele>223.0</ele><time>2026-04-28T08:23:15.312Z</time></trkpt><trkpt lat="44.6800533" lon="8.81222"><ele>223.0</ele><time>2026-04-28T08:23:16.312Z</time></trkpt><trkpt lat="44.679965" lon="8.8124283"><ele>223.0</ele><time>2026-04-28T08:23:17.312Z</time></trkpt><trkpt lat="44.6798933" lon="8.8126333"><ele>224.5</ele><time>2026-04-28T08:23:18.312Z</time></trkpt><trkpt lat="44.6798333" lon="8.8128333"><ele>226.0</ele><time>2026-04-28T08:23:19.312Z</time></trkpt><trkpt lat="44.6797967" lon="8.8130067"><ele>227.5</ele><time>2026-04-28T08:23:20.312Z</time></trkpt><trkpt lat="44.679775" lon="8.813145"><ele>229.0</ele><time>2026-04-28T08:23:21.312Z</time></trkpt><trkpt lat="44.6797533" lon="8.8132333"><ele>229.0</ele><time>2026-04-28T08:23:22.312Z</time></trkpt><trkpt lat="44.6797333" lon="8.813355"><ele>228.99999999999997</ele><time>2026-04-28T08:23:24.312Z</time></trkpt><trkpt lat="44.6797617" lon="8.813235"><ele>228.99999999999997</ele><time>2026-04-28T08:23:41.312Z</time></trkpt><trkpt lat="44.6796833" lon="8.8131867"><ele>229.0</ele><time>2026-04-28T08:23:45.311Z</time></trkpt><trkpt lat="44.6795633" lon="8.81327"><ele>229.0</ele><time>2026-04-28T08:23:47.312Z</time></trkpt><trkpt lat="44.6794833" lon="8.8133383"><ele>227.5</ele><time>2026-04-28T08:23:48.312Z</time></trkpt><trkpt lat="44.6793833" lon="8.8134233"><ele>226.0</ele><time>2026-04-28T08:23:49.312Z</time></trkpt><trkpt lat="44.6792683" lon="8.8135167"><ele>224.5</ele><time>2026-04-28T08:23:50.312Z</time></trkpt><trkpt lat="44.6791533" lon="8.81362"><ele>223.0</ele><time>2026-04-28T08:23:51.312Z</time></trkpt><trkpt lat="44.679025" lon="8.8137233"><ele>223.0</ele><time>2026-04-28T08:23:52.312Z</time></trkpt><trkpt lat="44.678895" lon="8.8138333"><ele>223.0</ele><time>2026-04-28T08:23:53.312Z</time></trkpt><trkpt lat="44.6787633" lon="8.81394"><ele>223.0</ele><time>2026-04-28T08:23:54.312Z</time></trkpt><trkpt lat="44.6786367" lon="8.8140233"><ele>223.0</ele><time>2026-04-28T08:23:55.312Z</time></trkpt><trkpt lat="44.6785167" lon="8.814085"><ele>222.75</ele><time>2026-04-28T08:23:56.311Z</time></trkpt><trkpt lat="44.6783983" lon="8.8140983"><ele>222.5</ele><time>2026-04-28T08:23:57.312Z</time></trkpt><trkpt lat="44.6782683" lon="8.8140817"><ele>222.25</ele><time>2026-04-28T08:23:58.312Z</time></trkpt><trkpt lat="44.6781367" lon="8.8140617"><ele>222.0</ele><time>2026-04-28T08:23:59.312Z</time></trkpt><trkpt lat="44.67799" lon="8.81408"><ele>222.0</ele><time>2026-04-28T08:24:00.312Z</time></trkpt><trkpt lat="44.6778383" lon="8.814135"><ele>222.0</ele><time>2026-04-28T08:24:01.312Z</time></trkpt><trkpt lat="44.6776833" lon="8.81424"><ele>222.0</ele><time>2026-04-28T08:24:02.312Z</time></trkpt><trkpt lat="44.6775383" lon="8.8143833"><ele>222.66666666666669</ele><time>2026-04-28T08:24:03.312Z</time></trkpt><trkpt lat="44.6773867" lon="8.8145567"><ele>223.33333333333334</ele><time>2026-04-28T08:24:04.312Z</time></trkpt><trkpt lat="44.6772167" lon="8.8147383"><ele>224.0</ele><time>2026-04-28T08:24:05.312Z</time></trkpt><trkpt lat="44.677045" lon="8.81492"><ele>224.33333333333334</ele><time>2026-04-28T08:24:06.312Z</time></trkpt><trkpt lat="44.6768783" lon="8.81509"><ele>224.66666666666669</ele><time>2026-04-28T08:24:07.312Z</time></trkpt><trkpt lat="44.6767183" lon="8.815255"><ele>225.0</ele><time>2026-04-28T08:24:08.312Z</time></trkpt><trkpt lat="44.676565" lon="8.81541"><ele>225.0</ele><time>2026-04-28T08:24:09.312Z</time></trkpt><trkpt lat="44.67642" lon="8.81557"><ele>225.0</ele><time>2026-04-28T08:24:10.312Z</time></trkpt><trkpt lat="44.6762833" lon="8.81572"><ele>225.0</ele><time>2026-04-28T08:24:11.312Z</time></trkpt><trkpt lat="44.6761483" lon="8.8158633"><ele>227.66666666666669</ele><time>2026-04-28T08:24:12.312Z</time></trkpt><trkpt lat="44.676015" lon="8.8160067"><ele>230.33333333333334</ele><time>2026-04-28T08:24:13.312Z</time></trkpt><trkpt lat="44.6758883" lon="8.8161467"><ele>233.0</ele><time>2026-04-28T08:24:14.312Z</time></trkpt><trkpt lat="44.6757633" lon="8.8162933"><ele>233.0</ele><time>2026-04-28T08:24:15.312Z</time></trkpt><trkpt lat="44.6756433" lon="8.8164567"><ele>233.0</ele><time>2026-04-28T08:24:16.312Z</time></trkpt><trkpt lat="44.6755167" lon="8.81663"><ele>233.0</ele><time>2026-04-28T08:24:17.312Z</time></trkpt><trkpt lat="44.6754" lon="8.8168033"><ele>232.66666666666669</ele><time>2026-04-28T08:24:18.312Z</time></trkpt><trkpt lat="44.6752817" lon="8.816995"><ele>232.33333333333331</ele><time>2026-04-28T08:24:19.312Z</time></trkpt><trkpt lat="44.6751517" lon="8.8171933"><ele>232.0</ele><time>2026-04-28T08:24:20.312Z</time></trkpt><trkpt lat="44.6750333" lon="8.8173933"><ele>233.33333333333331</ele><time>2026-04-28T08:24:21.312Z</time></trkpt><trkpt lat="44.6749067" lon="8.81759"><ele>234.66666666666669</ele><time>2026-04-28T08:24:22.311Z</time></trkpt><trkpt lat="44.6747783" lon="8.817795"><ele>236.0</ele><time>2026-04-28T08:24:23.312Z</time></trkpt><trkpt lat="44.6746433" lon="8.8179983"><ele>235.66666666666669</ele><time>2026-04-28T08:24:24.312Z</time></trkpt><trkpt lat="44.6745067" lon="8.8181917"><ele>235.33333333333331</ele><time>2026-04-28T08:24:25.311Z</time></trkpt><trkpt lat="44.6743617" lon="8.8183817"><ele>235.0</ele><time>2026-04-28T08:24:26.312Z</time></trkpt><trkpt lat="44.6742083" lon="8.818555"><ele>235.0</ele><time>2026-04-28T08:24:27.312Z</time></trkpt><trkpt lat="44.6740533" lon="8.8187167"><ele>235.0</ele><time>2026-04-28T08:24:28.312Z</time></trkpt><trkpt lat="44.673885" lon="8.8188667"><ele>235.0</ele><time>2026-04-28T08:24:29.312Z</time></trkpt><trkpt lat="44.6737117" lon="8.8189967"><ele>236.66666666666666</ele><time>2026-04-28T08:24:30.312Z</time></trkpt><trkpt lat="44.67353" lon="8.8191133"><ele>238.33333333333331</ele><time>2026-04-28T08:24:31.312Z</time></trkpt><trkpt lat="44.673345" lon="8.8192067"><ele>240.0</ele><time>2026-04-28T08:24:32.312Z</time></trkpt><trkpt lat="44.67314" lon="8.8192783"><ele>239.5</ele><time>2026-04-28T08:24:33.312Z</time></trkpt><trkpt lat="44.67291" lon="8.8193433"><ele>239.0</ele><time>2026-04-28T08:24:34.312Z</time></trkpt><trkpt lat="44.6726833" lon="8.8194133"><ele>239.0</ele><time>2026-04-28T08:24:35.312Z</time></trkpt><trkpt lat="44.6724733" lon="8.8194733"><ele>239.0</ele><time>2026-04-28T08:24:36.312Z</time></trkpt><trkpt lat="44.6722733" lon="8.8195333"><ele>239.0</ele><time>2026-04-28T08:24:37.312Z</time></trkpt><trkpt lat="44.6720883" lon="8.81959"><ele>240.33333333333334</ele><time>2026-04-28T08:24:38.312Z</time></trkpt><trkpt lat="44.6719083" lon="8.8196483"><ele>241.66666666666669</ele><time>2026-04-28T08:24:39.312Z</time></trkpt><trkpt lat="44.671725" lon="8.8197033"><ele>243.0</ele><time>2026-04-28T08:24:40.312Z</time></trkpt><trkpt lat="44.67154" lon="8.8197583"><ele>243.0</ele><time>2026-04-28T08:24:41.312Z</time></trkpt><trkpt lat="44.6713517" lon="8.8198133"><ele>243.0</ele><time>2026-04-28T08:24:42.311Z</time></trkpt><trkpt lat="44.67116" lon="8.819865"><ele>243.0</ele><time>2026-04-28T08:24:43.312Z</time></trkpt><trkpt lat="44.670975" lon="8.819915"><ele>245.66666666666669</ele><time>2026-04-28T08:24:44.312Z</time></trkpt><trkpt lat="44.6707933" lon="8.8199667"><ele>248.33333333333334</ele><time>2026-04-28T08:24:45.312Z</time></trkpt><trkpt lat="44.6706217" lon="8.8200233"><ele>251.0</ele><time>2026-04-28T08:24:46.312Z</time></trkpt><trkpt lat="44.6704433" lon="8.8200717"><ele>251.33333333333334</ele><time>2026-04-28T08:24:47.312Z</time></trkpt><trkpt lat="44.6702683" lon="8.8201217"><ele>251.66666666666669</ele><time>2026-04-28T08:24:48.312Z</time></trkpt><trkpt lat="44.6700917" lon="8.8201817"><ele>252.0</ele><time>2026-04-28T08:24:49.312Z</time></trkpt><trkpt lat="44.6699183" lon="8.8202317"><ele>251.33333333333331</ele><time>2026-04-28T08:24:50.312Z</time></trkpt><trkpt lat="44.6697433" lon="8.8202867"><ele>250.66666666666666</ele><time>2026-04-28T08:24:51.312Z</time></trkpt><trkpt lat="44.669565" lon="8.820355"><ele>250.0</ele><time>2026-04-28T08:24:52.311Z</time></trkpt><trkpt lat="44.669395" lon="8.8204217"><ele>250.0</ele><time>2026-04-28T08:24:53.312Z</time></trkpt><trkpt lat="44.6692233" lon="8.8204983"><ele>250.0</ele><time>2026-04-28T08:24:54.312Z</time></trkpt><trkpt lat="44.6690567" lon="8.8206033"><ele>250.0</ele><time>2026-04-28T08:24:55.311Z</time></trkpt><trkpt lat="44.6688967" lon="8.820735"><ele>250.0</ele><time>2026-04-28T08:24:56.312Z</time></trkpt><trkpt lat="44.6687383" lon="8.82086"><ele>250.0</ele><time>2026-04-28T08:24:57.312Z</time></trkpt><trkpt lat="44.6685817" lon="8.8209983"><ele>250.0</ele><time>2026-04-28T08:24:58.312Z</time></trkpt><trkpt lat="44.66842" lon="8.8211483"><ele>250.33333333333331</ele><time>2026-04-28T08:24:59.312Z</time></trkpt><trkpt lat="44.6682667" lon="8.8212883"><ele>250.66666666666669</ele><time>2026-04-28T08:25:00.311Z</time></trkpt><trkpt lat="44.6681133" lon="8.8214333"><ele>251.0</ele><time>2026-04-28T08:25:01.312Z</time></trkpt><trkpt lat="44.66796" lon="8.8215733"><ele>251.0</ele><time>2026-04-28T08:25:02.312Z</time></trkpt><trkpt lat="44.66781" lon="8.8217083"><ele>251.0</ele><time>2026-04-28T08:25:03.312Z</time></trkpt><trkpt lat="44.667655" lon="8.8218367"><ele>251.0</ele><time>2026-04-28T08:25:04.312Z</time></trkpt><trkpt lat="44.667495" lon="8.821965"><ele>252.0</ele><time>2026-04-28T08:25:05.312Z</time></trkpt><trkpt lat="44.6673333" lon="8.8221017"><ele>253.0</ele><time>2026-04-28T08:25:06.312Z</time></trkpt><trkpt lat="44.6671783" lon="8.8222367"><ele>254.0</ele><time>2026-04-28T08:25:07.312Z</time></trkpt><trkpt lat="44.6670233" lon="8.8223717"><ele>254.66666666666669</ele><time>2026-04-28T08:25:08.312Z</time></trkpt><trkpt lat="44.66687" lon="8.8225117"><ele>255.33333333333331</ele><time>2026-04-28T08:25:09.312Z</time></trkpt><trkpt lat="44.6667167" lon="8.82267"><ele>256.0</ele><time>2026-04-28T08:25:10.311Z</time></trkpt><trkpt lat="44.66657" lon="8.8228333"><ele>256.0</ele><time>2026-04-28T08:25:11.312Z</time></trkpt><trkpt lat="44.6664317" lon="8.823015"><ele>256.0</ele><time>2026-04-28T08:25:12.312Z</time></trkpt><trkpt lat="44.6663067" lon="8.8231917"><ele>256.0</ele><time>2026-04-28T08:25:13.312Z</time></trkpt><trkpt lat="44.6661817" lon="8.8233617"><ele>255.33333333333331</ele><time>2026-04-28T08:25:14.311Z</time></trkpt><trkpt lat="44.6660433" lon="8.8235283"><ele>254.66666666666669</ele><time>2026-04-28T08:25:15.311Z</time></trkpt><trkpt lat="44.665905" lon="8.8236767"><ele>254.0</ele><time>2026-04-28T08:25:16.312Z</time></trkpt><trkpt lat="44.6657583" lon="8.8238133"><ele>254.0</ele><time>2026-04-28T08:25:17.311Z</time></trkpt><trkpt lat="44.6656033" lon="8.823945"><ele>254.0</ele><time>2026-04-28T08:25:18.312Z</time></trkpt><trkpt lat="44.6654567" lon="8.8240617"><ele>254.0</ele><time>2026-04-28T08:25:19.312Z</time></trkpt><trkpt lat="44.6653067" lon="8.8241783"><ele>255.33333333333334</ele><time>2026-04-28T08:25:20.311Z</time></trkpt><trkpt lat="44.6651517" lon="8.8242983"><ele>256.6666666666667</ele><time>2026-04-28T08:25:21.311Z</time></trkpt><trkpt lat="44.6649917" lon="8.8244167"><ele>258.0</ele><time>2026-04-28T08:25:22.311Z</time></trkpt><trkpt lat="44.6648267" lon="8.8245367"><ele>258.0</ele><time>2026-04-28T08:25:23.312Z</time></trkpt><trkpt lat="44.6646633" lon="8.8246383"><ele>258.0</ele><time>2026-04-28T08:25:24.312Z</time></trkpt><trkpt lat="44.664495" lon="8.82474"><ele>258.0</ele><time>2026-04-28T08:25:25.312Z</time></trkpt><trkpt lat="44.6643317" lon="8.8248367"><ele>257.0</ele><time>2026-04-28T08:25:26.312Z</time></trkpt><trkpt lat="44.664175" lon="8.82494"><ele>256.0</ele><time>2026-04-28T08:25:27.311Z</time></trkpt><trkpt lat="44.66401" lon="8.8250383"><ele>255.0</ele><time>2026-04-28T08:25:28.312Z</time></trkpt><trkpt lat="44.6638433" lon="8.8251467"><ele>255.0</ele><time>2026-04-28T08:25:29.312Z</time></trkpt><trkpt lat="44.6636767" lon="8.8252617"><ele>255.0</ele><time>2026-04-28T08:25:30.312Z</time></trkpt><trkpt lat="44.663515" lon="8.8253683"><ele>255.0</ele><time>2026-04-28T08:25:31.312Z</time></trkpt><trkpt lat="44.663355" lon="8.825475"><ele>254.66666666666669</ele><time>2026-04-28T08:25:32.312Z</time></trkpt><trkpt lat="44.6632017" lon="8.825585"><ele>254.33333333333334</ele><time>2026-04-28T08:25:33.312Z</time></trkpt><trkpt lat="44.663055" lon="8.8256883"><ele>254.0</ele><time>2026-04-28T08:25:34.312Z</time></trkpt><trkpt lat="44.66291" lon="8.825805"><ele>254.0</ele><time>2026-04-28T08:25:35.312Z</time></trkpt><trkpt lat="44.6627833" lon="8.8259433"><ele>254.0</ele><time>2026-04-28T08:25:36.312Z</time></trkpt><trkpt lat="44.66267" lon="8.8261"><ele>254.0</ele><time>2026-04-28T08:25:37.312Z</time></trkpt><trkpt lat="44.6625483" lon="8.8262883"><ele>252.0</ele><time>2026-04-28T08:25:38.312Z</time></trkpt><trkpt lat="44.6624283" lon="8.826505"><ele>250.0</ele><time>2026-04-28T08:25:39.312Z</time></trkpt><trkpt lat="44.6623267" lon="8.8267467"><ele>248.0</ele><time>2026-04-28T08:25:40.312Z</time></trkpt><trkpt lat="44.6622233" lon="8.82701"><ele>248.66666666666669</ele><time>2026-04-28T08:25:41.312Z</time></trkpt><trkpt lat="44.6621233" lon="8.8272733"><ele>249.33333333333331</ele><time>2026-04-28T08:25:42.312Z</time></trkpt><trkpt lat="44.6620267" lon="8.8275217"><ele>250.0</ele><time>2026-04-28T08:25:43.312Z</time></trkpt><trkpt lat="44.661935" lon="8.827765"><ele>250.0</ele><time>2026-04-28T08:25:44.312Z</time></trkpt><trkpt lat="44.66184" lon="8.828005"><ele>250.0</ele><time>2026-04-28T08:25:45.311Z</time></trkpt><trkpt lat="44.66175" lon="8.8282217"><ele>250.0</ele><time>2026-04-28T08:25:46.312Z</time></trkpt><trkpt lat="44.6616683" lon="8.8284317"><ele>250.66666666666666</ele><time>2026-04-28T08:25:47.312Z</time></trkpt><trkpt lat="44.66159" lon="8.828625"><ele>251.33333333333331</ele><time>2026-04-28T08:25:48.312Z</time></trkpt><trkpt lat="44.661515" lon="8.8288317"><ele>252.0</ele><time>2026-04-28T08:25:49.312Z</time></trkpt><trkpt lat="44.6614267" lon="8.8290433"><ele>252.0</ele><time>2026-04-28T08:25:50.312Z</time></trkpt><trkpt lat="44.66135" lon="8.829235"><ele>252.0</ele><time>2026-04-28T08:25:51.312Z</time></trkpt><trkpt lat="44.6612567" lon="8.82943"><ele>252.0</ele><time>2026-04-28T08:25:52.312Z</time></trkpt><trkpt lat="44.6611683" lon="8.82961"><ele>252.0</ele><time>2026-04-28T08:25:53.312Z</time></trkpt><trkpt lat="44.6610583" lon="8.8297733"><ele>252.0</ele><time>2026-04-28T08:25:54.312Z</time></trkpt><trkpt lat="44.66094" lon="8.8299167"><ele>252.0</ele><time>2026-04-28T08:25:55.312Z</time></trkpt><trkpt lat="44.6608133" lon="8.830065"><ele>251.66666666666669</ele><time>2026-04-28T08:25:56.312Z</time></trkpt><trkpt lat="44.6606833" lon="8.8302167"><ele>251.33333333333334</ele><time>2026-04-28T08:25:57.312Z</time></trkpt><trkpt lat="44.6605533" lon="8.8303633"><ele>251.0</ele><time>2026-04-28T08:25:58.312Z</time></trkpt><trkpt lat="44.660425" lon="8.83051"><ele>251.0</ele><time>2026-04-28T08:25:59.312Z</time></trkpt><trkpt lat="44.6603067" lon="8.83066"><ele>251.0</ele><time>2026-04-28T08:26:00.312Z</time></trkpt><trkpt lat="44.6601833" lon="8.8308117"><ele>251.0</ele><time>2026-04-28T08:26:01.312Z</time></trkpt><trkpt lat="44.6600617" lon="8.8309617"><ele>252.75</ele><time>2026-04-28T08:26:02.312Z</time></trkpt><trkpt lat="44.6599467" lon="8.831095"><ele>254.5</ele><time>2026-04-28T08:26:03.312Z</time></trkpt><trkpt lat="44.6598467" lon="8.8312267"><ele>256.25</ele><time>2026-04-28T08:26:04.312Z</time></trkpt><trkpt lat="44.65974" lon="8.8313317"><ele>258.0</ele><time>2026-04-28T08:26:05.311Z</time></trkpt><trkpt lat="44.659625" lon="8.8314217"><ele>258.0</ele><time>2026-04-28T08:26:06.312Z</time></trkpt><trkpt lat="44.6595033" lon="8.83147"><ele>258.0</ele><time>2026-04-28T08:26:07.312Z</time></trkpt><trkpt lat="44.65938" lon="8.831495"><ele>258.0</ele><time>2026-04-28T08:26:08.312Z</time></trkpt><trkpt lat="44.6592583" lon="8.8314717"><ele>258.0</ele><time>2026-04-28T08:26:09.312Z</time></trkpt><trkpt lat="44.6591433" lon="8.8314083"><ele>259.5</ele><time>2026-04-28T08:26:10.312Z</time></trkpt><trkpt lat="44.65903" lon="8.8313233"><ele>261.0</ele><time>2026-04-28T08:26:11.312Z</time></trkpt><trkpt lat="44.6589067" lon="8.8312117"><ele>262.5</ele><time>2026-04-28T08:26:12.312Z</time></trkpt><trkpt lat="44.6587733" lon="8.831105"><ele>264.0</ele><time>2026-04-28T08:26:13.312Z</time></trkpt><trkpt lat="44.658635" lon="8.831"><ele>266.6666666666667</ele><time>2026-04-28T08:26:14.312Z</time></trkpt><trkpt lat="44.6584933" lon="8.8309017"><ele>269.33333333333337</ele><time>2026-04-28T08:26:15.312Z</time></trkpt><trkpt lat="44.65834" lon="8.8308083"><ele>272.0</ele><time>2026-04-28T08:26:16.312Z</time></trkpt><trkpt lat="44.6581633" lon="8.83072"><ele>272.0</ele><time>2026-04-28T08:26:17.312Z</time></trkpt><trkpt lat="44.6579717" lon="8.8306267"><ele>272.0</ele><time>2026-04-28T08:26:18.312Z</time></trkpt><trkpt lat="44.657795" lon="8.8305483"><ele>272.0</ele><time>2026-04-28T08:26:19.312Z</time></trkpt><trkpt lat="44.6576317" lon="8.830475"><ele>273.25</ele><time>2026-04-28T08:26:20.312Z</time></trkpt><trkpt lat="44.657475" lon="8.83042"><ele>274.5</ele><time>2026-04-28T08:26:21.312Z</time></trkpt><trkpt lat="44.6573333" lon="8.8303817"><ele>275.75</ele><time>2026-04-28T08:26:22.312Z</time></trkpt><trkpt lat="44.657215" lon="8.8303333"><ele>277.0</ele><time>2026-04-28T08:26:23.312Z</time></trkpt><trkpt lat="44.6570983" lon="8.8303"><ele>277.0</ele><time>2026-04-28T08:26:24.311Z</time></trkpt><trkpt lat="44.6569617" lon="8.830295"><ele>277.0</ele><time>2026-04-28T08:26:25.312Z</time></trkpt><trkpt lat="44.6568033" lon="8.83032"><ele>277.0</ele><time>2026-04-28T08:26:26.312Z</time></trkpt><trkpt lat="44.656635" lon="8.83035"><ele>276.66666666666663</ele><time>2026-04-28T08:26:27.312Z</time></trkpt><trkpt lat="44.6564733" lon="8.83036"><ele>276.3333333333333</ele><time>2026-04-28T08:26:28.312Z</time></trkpt><trkpt lat="44.6563" lon="8.8303867"><ele>276.0</ele><time>2026-04-28T08:26:29.312Z</time></trkpt><trkpt lat="44.6561333" lon="8.8304067"><ele>276.25</ele><time>2026-04-28T08:26:30.312Z</time></trkpt><trkpt lat="44.6559817" lon="8.830415"><ele>276.5</ele><time>2026-04-28T08:26:31.312Z</time></trkpt><trkpt lat="44.655845" lon="8.830435"><ele>276.75</ele><time>2026-04-28T08:26:32.312Z</time></trkpt><trkpt lat="44.655705" lon="8.8304467"><ele>277.0</ele><time>2026-04-28T08:26:33.311Z</time></trkpt><trkpt lat="44.655555" lon="8.8304567"><ele>277.0</ele><time>2026-04-28T08:26:34.312Z</time></trkpt><trkpt lat="44.65541" lon="8.8304617"><ele>277.0</ele><time>2026-04-28T08:26:35.312Z</time></trkpt><trkpt lat="44.6552533" lon="8.83047"><ele>277.0</ele><time>2026-04-28T08:26:36.312Z</time></trkpt><trkpt lat="44.6550967" lon="8.8304633"><ele>277.0</ele><time>2026-04-28T08:26:37.312Z</time></trkpt><trkpt lat="44.65494" lon="8.8304683"><ele>277.0</ele><time>2026-04-28T08:26:38.312Z</time></trkpt><trkpt lat="44.65479" lon="8.830475"><ele>277.0</ele><time>2026-04-28T08:26:39.312Z</time></trkpt><trkpt lat="44.6546383" lon="8.83048"><ele>277.0</ele><time>2026-04-28T08:26:40.312Z</time></trkpt><trkpt lat="44.654485" lon="8.8304833"><ele>277.0</ele><time>2026-04-28T08:26:41.312Z</time></trkpt><trkpt lat="44.65433" lon="8.8304917"><ele>277.0</ele><time>2026-04-28T08:26:42.312Z</time></trkpt><trkpt lat="44.6541733" lon="8.8304933"><ele>278.3333333333333</ele><time>2026-04-28T08:26:43.312Z</time></trkpt><trkpt lat="44.6540167" lon="8.8304933"><ele>279.6666666666667</ele><time>2026-04-28T08:26:44.312Z</time></trkpt><trkpt lat="44.6538567" lon="8.8304933"><ele>281.0</ele><time>2026-04-28T08:26:45.312Z</time></trkpt><trkpt lat="44.6536967" lon="8.8304933"><ele>280.0</ele><time>2026-04-28T08:26:46.312Z</time></trkpt><trkpt lat="44.65354" lon="8.8305"><ele>279.0</ele><time>2026-04-28T08:26:47.312Z</time></trkpt><trkpt lat="44.6533817" lon="8.8305"><ele>278.0</ele><time>2026-04-28T08:26:48.312Z</time></trkpt><trkpt lat="44.6532217" lon="8.8304867"><ele>278.0</ele><time>2026-04-28T08:26:49.312Z</time></trkpt><trkpt lat="44.6530717" lon="8.8304433"><ele>278.0</ele><time>2026-04-28T08:26:50.312Z</time></trkpt><trkpt lat="44.652935" lon="8.8303917"><ele>278.0</ele><time>2026-04-28T08:26:51.312Z</time></trkpt><trkpt lat="44.652815" lon="8.8303367"><ele>278.0</ele><time>2026-04-28T08:26:52.312Z</time></trkpt><trkpt lat="44.652685" lon="8.8303083"><ele>276.5</ele><time>2026-04-28T08:26:53.312Z</time></trkpt><trkpt lat="44.6525533" lon="8.8303083"><ele>275.0</ele><time>2026-04-28T08:26:54.312Z</time></trkpt><trkpt lat="44.652405" lon="8.8303317"><ele>273.5</ele><time>2026-04-28T08:26:55.312Z</time></trkpt><trkpt lat="44.6522583" lon="8.830355"><ele>272.0</ele><time>2026-04-28T08:26:56.312Z</time></trkpt><trkpt lat="44.6521217" lon="8.8303883"><ele>272.0</ele><time>2026-04-28T08:26:57.312Z</time></trkpt><trkpt lat="44.651975" lon="8.83045"><ele>272.0</ele><time>2026-04-28T08:26:58.312Z</time></trkpt><trkpt lat="44.651835" lon="8.8305267"><ele>272.0</ele><time>2026-04-28T08:26:59.312Z</time></trkpt><trkpt lat="44.65169" lon="8.8306283"><ele>273.6666666666667</ele><time>2026-04-28T08:27:00.312Z</time></trkpt><trkpt lat="44.6515467" lon="8.8307217"><ele>275.3333333333333</ele><time>2026-04-28T08:27:01.312Z</time></trkpt><trkpt lat="44.6514117" lon="8.830825"><ele>277.0</ele><time>2026-04-28T08:27:02.311Z</time></trkpt><trkpt lat="44.6512917" lon="8.8309383"><ele>275.5</ele><time>2026-04-28T08:27:03.312Z</time></trkpt><trkpt lat="44.6511833" lon="8.83103"><ele>274.0</ele><time>2026-04-28T08:27:04.312Z</time></trkpt><trkpt lat="44.6510567" lon="8.831145"><ele>272.5</ele><time>2026-04-28T08:27:05.312Z</time></trkpt><trkpt lat="44.6509117" lon="8.83125"><ele>271.0</ele><time>2026-04-28T08:27:06.312Z</time></trkpt><trkpt lat="44.6507633" lon="8.8313333"><ele>271.0</ele><time>2026-04-28T08:27:07.312Z</time></trkpt><trkpt lat="44.6506133" lon="8.8314233"><ele>271.0</ele><time>2026-04-28T08:27:08.311Z</time></trkpt><trkpt lat="44.65045" lon="8.83152"><ele>271.0</ele><time>2026-04-28T08:27:09.312Z</time></trkpt><trkpt lat="44.6502867" lon="8.8316133"><ele>270.0</ele><time>2026-04-28T08:27:10.311Z</time></trkpt><trkpt lat="44.6501217" lon="8.8317067"><ele>269.0</ele><time>2026-04-28T08:27:11.311Z</time></trkpt><trkpt lat="44.6499533" lon="8.83181"><ele>268.0</ele><time>2026-04-28T08:27:12.312Z</time></trkpt><trkpt lat="44.6497867" lon="8.831915"><ele>268.0</ele><time>2026-04-28T08:27:13.312Z</time></trkpt><trkpt lat="44.6496217" lon="8.8320267"><ele>268.0</ele><time>2026-04-28T08:27:14.312Z</time></trkpt><trkpt lat="44.6494617" lon="8.8321367"><ele>268.0</ele><time>2026-04-28T08:27:15.312Z</time></trkpt><trkpt lat="44.6493333" lon="8.8322267"><ele>270.5</ele><time>2026-04-28T08:27:16.312Z</time></trkpt><trkpt lat="44.649215" lon="8.8322933"><ele>273.0</ele><time>2026-04-28T08:27:17.312Z</time></trkpt><trkpt lat="44.6491017" lon="8.8323233"><ele>275.5</ele><time>2026-04-28T08:27:18.312Z</time></trkpt><trkpt lat="44.6489883" lon="8.832295"><ele>278.0</ele><time>2026-04-28T08:27:19.311Z</time></trkpt><trkpt lat="44.6488933" lon="8.832195"><ele>278.0</ele><time>2026-04-28T08:27:20.311Z</time></trkpt><trkpt lat="44.6488183" lon="8.8320567"><ele>278.0</ele><time>2026-04-28T08:27:21.312Z</time></trkpt><trkpt lat="44.6487533" lon="8.8319083"><ele>278.0</ele><time>2026-04-28T08:27:22.312Z</time></trkpt><trkpt lat="44.6486767" lon="8.83176"><ele>278.0</ele><time>2026-04-28T08:27:23.312Z</time></trkpt><trkpt lat="44.648575" lon="8.8316483"><ele>279.0</ele><time>2026-04-28T08:27:24.312Z</time></trkpt><trkpt lat="44.6484517" lon="8.8315783"><ele>280.0</ele><time>2026-04-28T08:27:25.312Z</time></trkpt><trkpt lat="44.6483183" lon="8.831545"><ele>281.0</ele><time>2026-04-28T08:27:26.312Z</time></trkpt><trkpt lat="44.648165" lon="8.8315233"><ele>282.0</ele><time>2026-04-28T08:27:27.311Z</time></trkpt><trkpt lat="44.6479833" lon="8.8315033"><ele>282.0</ele><time>2026-04-28T08:27:28.311Z</time></trkpt><trkpt lat="44.647795" lon="8.8314883"><ele>282.0</ele><time>2026-04-28T08:27:29.312Z</time></trkpt><trkpt lat="44.6476033" lon="8.8314817"><ele>282.0</ele><time>2026-04-28T08:27:30.312Z</time></trkpt><trkpt lat="44.6474167" lon="8.8315283"><ele>277.0</ele><time>2026-04-28T08:27:31.312Z</time></trkpt><trkpt lat="44.64721" lon="8.8316117"><ele>272.0</ele><time>2026-04-28T08:27:32.312Z</time></trkpt><trkpt lat="44.646985" lon="8.8317083"><ele>271.0</ele><time>2026-04-28T08:27:33.312Z</time></trkpt><trkpt lat="44.6467333" lon="8.8318133"><ele>270.0</ele><time>2026-04-28T08:27:34.311Z</time></trkpt><trkpt lat="44.64648" lon="8.8319"><ele>270.0</ele><time>2026-04-28T08:27:35.312Z</time></trkpt><trkpt lat="44.64625" lon="8.8319583"><ele>270.0</ele><time>2026-04-28T08:27:36.312Z</time></trkpt><trkpt lat="44.6460267" lon="8.8320083"><ele>272.6666666666667</ele><time>2026-04-28T08:27:37.312Z</time></trkpt><trkpt lat="44.6458017" lon="8.8320883"><ele>275.33333333333337</ele><time>2026-04-28T08:27:38.312Z</time></trkpt><trkpt lat="44.645595" lon="8.8321767"><ele>278.0</ele><time>2026-04-28T08:27:39.312Z</time></trkpt><trkpt lat="44.6454083" lon="8.8322717"><ele>279.0</ele><time>2026-04-28T08:27:40.312Z</time></trkpt><trkpt lat="44.6452433" lon="8.83236"><ele>280.0</ele><time>2026-04-28T08:27:41.312Z</time></trkpt><trkpt lat="44.645075" lon="8.8324617"><ele>281.0</ele><time>2026-04-28T08:27:42.312Z</time></trkpt><trkpt lat="44.6449133" lon="8.832565"><ele>281.33333333333337</ele><time>2026-04-28T08:27:43.312Z</time></trkpt><trkpt lat="44.6447517" lon="8.83267"><ele>281.6666666666667</ele><time>2026-04-28T08:27:44.312Z</time></trkpt><trkpt lat="44.644585" lon="8.832785"><ele>282.0</ele><time>2026-04-28T08:27:45.312Z</time></trkpt><trkpt lat="44.6444267" lon="8.8328717"><ele>284.0</ele><time>2026-04-28T08:27:46.312Z</time></trkpt><trkpt lat="44.6442667" lon="8.8329417"><ele>286.0</ele><time>2026-04-28T08:27:47.312Z</time></trkpt><trkpt lat="44.6441" lon="8.832995"><ele>288.0</ele><time>2026-04-28T08:27:48.312Z</time></trkpt><trkpt lat="44.6439217" lon="8.8330517"><ele>288.0</ele><time>2026-04-28T08:27:49.312Z</time></trkpt><trkpt lat="44.64374" lon="8.8331117"><ele>288.0</ele><time>2026-04-28T08:27:50.312Z</time></trkpt><trkpt lat="44.6435517" lon="8.8331617"><ele>288.0</ele><time>2026-04-28T08:27:51.311Z</time></trkpt><trkpt lat="44.64336" lon="8.8332333"><ele>290.6666666666667</ele><time>2026-04-28T08:27:52.312Z</time></trkpt><trkpt lat="44.643185" lon="8.8333017"><ele>293.33333333333337</ele><time>2026-04-28T08:27:53.312Z</time></trkpt><trkpt lat="44.6430183" lon="8.83337"><ele>296.0</ele><time>2026-04-28T08:27:54.312Z</time></trkpt><trkpt lat="44.6428667" lon="8.833425"><ele>296.33333333333337</ele><time>2026-04-28T08:27:55.312Z</time></trkpt><trkpt lat="44.6427033" lon="8.833485"><ele>296.6666666666667</ele><time>2026-04-28T08:27:56.312Z</time></trkpt><trkpt lat="44.6425467" lon="8.8335517"><ele>297.0</ele><time>2026-04-28T08:27:57.311Z</time></trkpt><trkpt lat="44.642395" lon="8.8336383"><ele>297.0</ele><time>2026-04-28T08:27:58.312Z</time></trkpt><trkpt lat="44.6422367" lon="8.8337367"><ele>297.0</ele><time>2026-04-28T08:27:59.312Z</time></trkpt><trkpt lat="44.642075" lon="8.8338417"><ele>297.0</ele><time>2026-04-28T08:28:00.311Z</time></trkpt><trkpt lat="44.6419117" lon="8.8339383"><ele>300.0</ele><time>2026-04-28T08:28:01.312Z</time></trkpt><trkpt lat="44.6417533" lon="8.83404"><ele>303.0</ele><time>2026-04-28T08:28:02.312Z</time></trkpt><trkpt lat="44.6416017" lon="8.8341317"><ele>306.0</ele><time>2026-04-28T08:28:03.312Z</time></trkpt><trkpt lat="44.6414433" lon="8.8342167"><ele>306.0</ele><time>2026-04-28T08:28:04.312Z</time></trkpt><trkpt lat="44.6412717" lon="8.8343033"><ele>306.0</ele><time>2026-04-28T08:28:05.312Z</time></trkpt><trkpt lat="44.6411083" lon="8.8343783"><ele>306.0</ele><time>2026-04-28T08:28:06.312Z</time></trkpt><trkpt lat="44.6409533" lon="8.83444"><ele>302.75</ele><time>2026-04-28T08:28:07.312Z</time></trkpt><trkpt lat="44.6408083" lon="8.8344867"><ele>299.5</ele><time>2026-04-28T08:28:08.312Z</time></trkpt><trkpt lat="44.6406717" lon="8.8344767"><ele>296.25</ele><time>2026-04-28T08:28:09.312Z</time></trkpt><trkpt lat="44.6405533" lon="8.83444"><ele>293.0</ele><time>2026-04-28T08:28:10.311Z</time></trkpt><trkpt lat="44.640445" lon="8.834405"><ele>293.0</ele><time>2026-04-28T08:28:11.312Z</time></trkpt><trkpt lat="44.6403383" lon="8.834365"><ele>293.0</ele><time>2026-04-28T08:28:12.311Z</time></trkpt><trkpt lat="44.640235" lon="8.8343417"><ele>293.0</ele><time>2026-04-28T08:28:13.312Z</time></trkpt><trkpt lat="44.6401183" lon="8.834335"><ele>293.0</ele><time>2026-04-28T08:28:14.311Z</time></trkpt><trkpt lat="44.6399933" lon="8.83436"><ele>294.75</ele><time>2026-04-28T08:28:15.312Z</time></trkpt><trkpt lat="44.6398783" lon="8.8344033"><ele>296.5</ele><time>2026-04-28T08:28:16.312Z</time></trkpt><trkpt lat="44.6397733" lon="8.8344633"><ele>298.25</ele><time>2026-04-28T08:28:17.312Z</time></trkpt><trkpt lat="44.639675" lon="8.8345467"><ele>300.0</ele><time>2026-04-28T08:28:18.312Z</time></trkpt><trkpt lat="44.6395867" lon="8.8346583"><ele>300.0</ele><time>2026-04-28T08:28:19.312Z</time></trkpt><trkpt lat="44.6394933" lon="8.834785"><ele>300.0</ele><time>2026-04-28T08:28:20.312Z</time></trkpt><trkpt lat="44.63941" lon="8.834905"><ele>300.0</ele><time>2026-04-28T08:28:21.312Z</time></trkpt><trkpt lat="44.63931" lon="8.8350167"><ele>300.0</ele><time>2026-04-28T08:28:22.312Z</time></trkpt><trkpt lat="44.63919" lon="8.8351217"><ele>303.0</ele><time>2026-04-28T08:28:23.312Z</time></trkpt><trkpt lat="44.6390583" lon="8.8352033"><ele>306.0</ele><time>2026-04-28T08:28:24.312Z</time></trkpt><trkpt lat="44.6389433" lon="8.8352617"><ele>309.0</ele><time>2026-04-28T08:28:25.312Z</time></trkpt><trkpt lat="44.6388467" lon="8.8353033"><ele>312.0</ele><time>2026-04-28T08:28:26.312Z</time></trkpt><trkpt lat="44.63877" lon="8.8353267"><ele>315.0</ele><time>2026-04-28T08:28:27.312Z</time></trkpt><trkpt lat="44.6386683" lon="8.83542"><ele>316.2</ele><time>2026-04-28T08:29:37.312Z</time></trkpt><trkpt lat="44.6386133" lon="8.8354967"><ele>317.4</ele><time>2026-04-28T08:29:38.312Z</time></trkpt><trkpt lat="44.63856" lon="8.8355883"><ele>318.6</ele><time>2026-04-28T08:29:39.311Z</time></trkpt><trkpt lat="44.63851" lon="8.8356883"><ele>319.8</ele><time>2026-04-28T08:29:40.312Z</time></trkpt><trkpt lat="44.638475" lon="8.835835"><ele>321.0</ele><time>2026-04-28T08:29:41.312Z</time></trkpt><trkpt lat="44.6384467" lon="8.83603"><ele>321.0</ele><time>2026-04-28T08:29:42.311Z</time></trkpt><trkpt lat="44.63841" lon="8.8362317"><ele>321.0</ele><time>2026-04-28T08:29:43.312Z</time></trkpt><trkpt lat="44.6383483" lon="8.8364533"><ele>321.0</ele><time>2026-04-28T08:29:44.312Z</time></trkpt><trkpt lat="44.6382633" lon="8.8366983"><ele>318.0</ele><time>2026-04-28T08:29:45.312Z</time></trkpt><trkpt lat="44.6381633" lon="8.8369617"><ele>315.0</ele><time>2026-04-28T08:29:46.312Z</time></trkpt><trkpt lat="44.63805" lon="8.837245"><ele>312.0</ele><time>2026-04-28T08:29:47.312Z</time></trkpt><trkpt lat="44.63794" lon="8.8375167"><ele>309.6666666666667</ele><time>2026-04-28T08:29:48.312Z</time></trkpt><trkpt lat="44.637835" lon="8.837765"><ele>307.33333333333337</ele><time>2026-04-28T08:29:49.312Z</time></trkpt><trkpt lat="44.637725" lon="8.838"><ele>305.0</ele><time>2026-04-28T08:29:50.312Z</time></trkpt><trkpt lat="44.6376383" lon="8.8382117"><ele>309.0</ele><time>2026-04-28T08:29:51.311Z</time></trkpt><trkpt lat="44.6375517" lon="8.83844"><ele>313.0</ele><time>2026-04-28T08:29:52.311Z</time></trkpt><trkpt lat="44.637475" lon="8.838665"><ele>317.0</ele><time>2026-04-28T08:29:53.311Z</time></trkpt><trkpt lat="44.6374133" lon="8.8388667"><ele>317.0</ele><time>2026-04-28T08:29:54.312Z</time></trkpt><trkpt lat="44.6373267" lon="8.8390583"><ele>317.0</ele><time>2026-04-28T08:29:55.312Z</time></trkpt><trkpt lat="44.6372167" lon="8.8392333"><ele>317.0</ele><time>2026-04-28T08:29:56.312Z</time></trkpt><trkpt lat="44.6370883" lon="8.8394133"><ele>319.0</ele><time>2026-04-28T08:29:57.312Z</time></trkpt><trkpt lat="44.6369483" lon="8.8396217"><ele>321.0</ele><time>2026-04-28T08:29:58.312Z</time></trkpt><trkpt lat="44.6367983" lon="8.839835"><ele>323.0</ele><time>2026-04-28T08:29:59.312Z</time></trkpt><trkpt lat="44.6366617" lon="8.8400167"><ele>320.0</ele><time>2026-04-28T08:30:00.312Z</time></trkpt><trkpt lat="44.636505" lon="8.840225"><ele>317.0</ele><time>2026-04-28T08:30:01.312Z</time></trkpt><trkpt lat="44.6363583" lon="8.84042"><ele>314.0</ele><time>2026-04-28T08:30:02.312Z</time></trkpt><trkpt lat="44.6362233" lon="8.84061"><ele>316.33333333333337</ele><time>2026-04-28T08:30:03.312Z</time></trkpt><trkpt lat="44.6360883" lon="8.8408083"><ele>318.6666666666667</ele><time>2026-04-28T08:30:04.311Z</time></trkpt><trkpt lat="44.6359633" lon="8.8410333"><ele>321.0</ele><time>2026-04-28T08:30:05.312Z</time></trkpt><trkpt lat="44.6358433" lon="8.8412683"><ele>321.0</ele><time>2026-04-28T08:30:06.312Z</time></trkpt><trkpt lat="44.635725" lon="8.8414883"><ele>321.0</ele><time>2026-04-28T08:30:07.312Z</time></trkpt><trkpt lat="44.6356217" lon="8.8416967"><ele>321.0</ele><time>2026-04-28T08:30:08.312Z</time></trkpt><trkpt lat="44.635525" lon="8.8418933"><ele>321.25</ele><time>2026-04-28T08:30:09.312Z</time></trkpt><trkpt lat="44.6354367" lon="8.84207"><ele>321.5</ele><time>2026-04-28T08:30:10.312Z</time></trkpt><trkpt lat="44.6353467" lon="8.8422267"><ele>321.75</ele><time>2026-04-28T08:30:11.312Z</time></trkpt><trkpt lat="44.63525" lon="8.8423433"><ele>322.0</ele><time>2026-04-28T08:30:12.312Z</time></trkpt><trkpt lat="44.63514" lon="8.8424283"><ele>322.0</ele><time>2026-04-28T08:30:13.312Z</time></trkpt><trkpt lat="44.6349967" lon="8.8424767"><ele>322.0</ele><time>2026-04-28T08:30:14.312Z</time></trkpt><trkpt lat="44.63482" lon="8.8425067"><ele>322.0</ele><time>2026-04-28T08:30:15.312Z</time></trkpt><trkpt lat="44.634615" lon="8.8425833"><ele>316.66666666666663</ele><time>2026-04-28T08:30:16.312Z</time></trkpt><trkpt lat="44.6344067" lon="8.84266"><ele>311.3333333333333</ele><time>2026-04-28T08:30:17.312Z</time></trkpt><trkpt lat="44.6342133" lon="8.842725"><ele>306.0</ele><time>2026-04-28T08:30:18.312Z</time></trkpt><trkpt lat="44.63402" lon="8.8427783"><ele>306.0</ele><time>2026-04-28T08:30:19.312Z</time></trkpt><trkpt lat="44.6338067" lon="8.842805"><ele>306.0</ele><time>2026-04-28T08:30:20.312Z</time></trkpt><trkpt lat="44.6336" lon="8.8428283"><ele>306.0</ele><time>2026-04-28T08:30:21.312Z</time></trkpt><trkpt lat="44.6333967" lon="8.8428517"><ele>309.0</ele><time>2026-04-28T08:30:22.312Z</time></trkpt><trkpt lat="44.6332167" lon="8.8429033"><ele>312.0</ele><time>2026-04-28T08:30:23.312Z</time></trkpt><trkpt lat="44.633055" lon="8.842985"><ele>315.0</ele><time>2026-04-28T08:30:24.312Z</time></trkpt><trkpt lat="44.6329017" lon="8.84307"><ele>315.25</ele><time>2026-04-28T08:30:25.312Z</time></trkpt><trkpt lat="44.632765" lon="8.8431167"><ele>315.5</ele><time>2026-04-28T08:30:26.312Z</time></trkpt><trkpt lat="44.6326367" lon="8.8431083"><ele>315.75</ele><time>2026-04-28T08:30:27.312Z</time></trkpt><trkpt lat="44.63253" lon="8.84304"><ele>316.0</ele><time>2026-04-28T08:30:28.312Z</time></trkpt><trkpt lat="44.6324517" lon="8.8429283"><ele>316.0</ele><time>2026-04-28T08:30:29.312Z</time></trkpt><trkpt lat="44.6324283" lon="8.84279"><ele>316.0</ele><time>2026-04-28T08:30:30.312Z</time></trkpt><trkpt lat="44.63243" lon="8.8426367"><ele>316.0</ele><time>2026-04-28T08:30:31.311Z</time></trkpt><trkpt lat="44.6324517" lon="8.8424667"><ele>316.0</ele><time>2026-04-28T08:30:32.312Z</time></trkpt><trkpt lat="44.63245" lon="8.84229"><ele>318.5</ele><time>2026-04-28T08:30:33.312Z</time></trkpt><trkpt lat="44.632415" lon="8.84211"><ele>321.0</ele><time>2026-04-28T08:30:34.311Z</time></trkpt><trkpt lat="44.6323433" lon="8.841955"><ele>323.5</ele><time>2026-04-28T08:30:35.312Z</time></trkpt><trkpt lat="44.6322417" lon="8.841835"><ele>326.0</ele><time>2026-04-28T08:30:36.312Z</time></trkpt><trkpt lat="44.63213" lon="8.84176"><ele>327.75</ele><time>2026-04-28T08:30:37.312Z</time></trkpt><trkpt lat="44.6320083" lon="8.8417083"><ele>329.5</ele><time>2026-04-28T08:30:38.312Z</time></trkpt><trkpt lat="44.6318783" lon="8.8417033"><ele>331.25</ele><time>2026-04-28T08:30:39.312Z</time></trkpt><trkpt lat="44.6317383" lon="8.8417417"><ele>333.0</ele><time>2026-04-28T08:30:40.312Z</time></trkpt><trkpt lat="44.6316033" lon="8.8417983"><ele>325.6666666666667</ele><time>2026-04-28T08:30:41.312Z</time></trkpt><trkpt lat="44.6314467" lon="8.8418617"><ele>318.33333333333337</ele><time>2026-04-28T08:30:42.312Z</time></trkpt><trkpt lat="44.6312967" lon="8.8419283"><ele>311.0</ele><time>2026-04-28T08:30:43.312Z</time></trkpt><trkpt lat="44.6311567" lon="8.8419933"><ele>310.75</ele><time>2026-04-28T08:30:44.312Z</time></trkpt><trkpt lat="44.6310133" lon="8.8420467"><ele>310.5</ele><time>2026-04-28T08:30:45.312Z</time></trkpt><trkpt lat="44.630875" lon="8.8420883"><ele>310.25</ele><time>2026-04-28T08:30:46.312Z</time></trkpt><trkpt lat="44.6307433" lon="8.842105"><ele>310.0</ele><time>2026-04-28T08:30:47.312Z</time></trkpt><trkpt lat="44.630615" lon="8.842105"><ele>310.0</ele><time>2026-04-28T08:30:48.312Z</time></trkpt><trkpt lat="44.6304867" lon="8.84207"><ele>310.0</ele><time>2026-04-28T08:30:49.311Z</time></trkpt><trkpt lat="44.630365" lon="8.84204"><ele>310.0</ele><time>2026-04-28T08:30:50.312Z</time></trkpt><trkpt lat="44.630245" lon="8.8420033"><ele>310.0</ele><time>2026-04-28T08:30:51.312Z</time></trkpt><trkpt lat="44.6301183" lon="8.8420167"><ele>311.66666666666663</ele><time>2026-04-28T08:30:52.312Z</time></trkpt><trkpt lat="44.6299783" lon="8.8420733"><ele>313.3333333333333</ele><time>2026-04-28T08:30:53.312Z</time></trkpt><trkpt lat="44.62983" lon="8.8421617"><ele>315.0</ele><time>2026-04-28T08:30:54.312Z</time></trkpt><trkpt lat="44.6296667" lon="8.8422783"><ele>315.0</ele><time>2026-04-28T08:30:55.311Z</time></trkpt><trkpt lat="44.6294917" lon="8.8424"><ele>315.0</ele><time>2026-04-28T08:30:56.312Z</time></trkpt><trkpt lat="44.62932" lon="8.84252"><ele>315.0</ele><time>2026-04-28T08:30:57.312Z</time></trkpt><trkpt lat="44.629165" lon="8.8426233"><ele>315.0</ele><time>2026-04-28T08:30:58.312Z</time></trkpt><trkpt lat="44.629015" lon="8.8426967"><ele>315.0</ele><time>2026-04-28T08:30:59.312Z</time></trkpt><trkpt lat="44.6288467" lon="8.8427417"><ele>315.0</ele><time>2026-04-28T08:31:00.312Z</time></trkpt><trkpt lat="44.6286483" lon="8.8427467"><ele>316.3333333333333</ele><time>2026-04-28T08:31:01.312Z</time></trkpt><trkpt lat="44.62843" lon="8.84274"><ele>317.66666666666663</ele><time>2026-04-28T08:31:02.312Z</time></trkpt><trkpt lat="44.6282217" lon="8.84275"><ele>319.0</ele><time>2026-04-28T08:31:03.312Z</time></trkpt><trkpt lat="44.6280283" lon="8.8427783"><ele>319.0</ele><time>2026-04-28T08:31:04.312Z</time></trkpt><trkpt lat="44.6278383" lon="8.842815"><ele>319.0</ele><time>2026-04-28T08:31:05.312Z</time></trkpt><trkpt lat="44.62766" lon="8.842835"><ele>319.0</ele><time>2026-04-28T08:31:06.312Z</time></trkpt><trkpt lat="44.6274833" lon="8.842865"><ele>321.3333333333333</ele><time>2026-04-28T08:31:07.312Z</time></trkpt><trkpt lat="44.6273267" lon="8.8428983"><ele>323.6666666666667</ele><time>2026-04-28T08:31:08.312Z</time></trkpt><trkpt lat="44.6271717" lon="8.842945"><ele>326.0</ele><time>2026-04-28T08:31:09.312Z</time></trkpt><trkpt lat="44.627015" lon="8.8430067"><ele>326.33333333333337</ele><time>2026-04-28T08:31:10.311Z</time></trkpt><trkpt lat="44.6268683" lon="8.8430717"><ele>326.6666666666667</ele><time>2026-04-28T08:31:11.311Z</time></trkpt><trkpt lat="44.626715" lon="8.84314"><ele>327.0</ele><time>2026-04-28T08:31:12.312Z</time></trkpt><trkpt lat="44.62657" lon="8.8432283"><ele>327.0</ele><time>2026-04-28T08:31:13.311Z</time></trkpt><trkpt lat="44.6264283" lon="8.8433333"><ele>327.0</ele><time>2026-04-28T08:31:14.312Z</time></trkpt><trkpt lat="44.62629" lon="8.843465"><ele>327.0</ele><time>2026-04-28T08:31:15.312Z</time></trkpt><trkpt lat="44.626155" lon="8.84361"><ele>327.3333333333333</ele><time>2026-04-28T08:31:16.311Z</time></trkpt><trkpt lat="44.626035" lon="8.8437717"><ele>327.66666666666663</ele><time>2026-04-28T08:31:17.312Z</time></trkpt><trkpt lat="44.6259117" lon="8.84394"><ele>328.0</ele><time>2026-04-28T08:31:18.312Z</time></trkpt><trkpt lat="44.62578" lon="8.8441083"><ele>328.0</ele><time>2026-04-28T08:31:19.312Z</time></trkpt><trkpt lat="44.6256417" lon="8.8442667"><ele>328.0</ele><time>2026-04-28T08:31:20.312Z</time></trkpt><trkpt lat="44.6255167" lon="8.8444317"><ele>328.0</ele><time>2026-04-28T08:31:21.312Z</time></trkpt><trkpt lat="44.6253917" lon="8.8445917"><ele>326.3333333333333</ele><time>2026-04-28T08:31:22.312Z</time></trkpt><trkpt lat="44.6252633" lon="8.8447567"><ele>324.6666666666667</ele><time>2026-04-28T08:31:23.312Z</time></trkpt><trkpt lat="44.6251383" lon="8.8449233"><ele>323.0</ele><time>2026-04-28T08:31:24.312Z</time></trkpt><trkpt lat="44.6250067" lon="8.8450917"><ele>322.33333333333337</ele><time>2026-04-28T08:31:25.312Z</time></trkpt><trkpt lat="44.62487" lon="8.8452567"><ele>321.6666666666667</ele><time>2026-04-28T08:31:26.312Z</time></trkpt><trkpt lat="44.6247433" lon="8.84542"><ele>321.0</ele><time>2026-04-28T08:31:27.312Z</time></trkpt><trkpt lat="44.62461" lon="8.8455883"><ele>321.3333333333333</ele><time>2026-04-28T08:31:28.312Z</time></trkpt><trkpt lat="44.6244733" lon="8.845755"><ele>321.66666666666663</ele><time>2026-04-28T08:31:29.311Z</time></trkpt><trkpt lat="44.6243367" lon="8.8459283"><ele>322.0</ele><time>2026-04-28T08:31:30.312Z</time></trkpt><trkpt lat="44.6241983" lon="8.8461"><ele>322.0</ele><time>2026-04-28T08:31:31.312Z</time></trkpt><trkpt lat="44.624075" lon="8.8462483"><ele>322.0</ele><time>2026-04-28T08:31:32.312Z</time></trkpt><trkpt lat="44.6239467" lon="8.846375"><ele>322.0</ele><time>2026-04-28T08:31:33.312Z</time></trkpt><trkpt lat="44.6238167" lon="8.8464667"><ele>322.0</ele><time>2026-04-28T08:31:34.312Z</time></trkpt><trkpt lat="44.6236733" lon="8.8465483"><ele>322.0</ele><time>2026-04-28T08:31:35.312Z</time></trkpt><trkpt lat="44.6235117" lon="8.8466017"><ele>322.0</ele><time>2026-04-28T08:31:36.312Z</time></trkpt><trkpt lat="44.6233483" lon="8.8466367"><ele>322.0</ele><time>2026-04-28T08:31:37.311Z</time></trkpt><trkpt lat="44.6231817" lon="8.8466217"><ele>322.0</ele><time>2026-04-28T08:31:38.312Z</time></trkpt><trkpt lat="44.6230183" lon="8.8465817"><ele>322.0</ele><time>2026-04-28T08:31:39.312Z</time></trkpt><trkpt lat="44.6228533" lon="8.8465067"><ele>319.3333333333333</ele><time>2026-04-28T08:31:40.311Z</time></trkpt><trkpt lat="44.6226733" lon="8.8463833"><ele>316.6666666666667</ele><time>2026-04-28T08:31:41.312Z</time></trkpt><trkpt lat="44.6224883" lon="8.8462483"><ele>314.0</ele><time>2026-04-28T08:31:42.312Z</time></trkpt><trkpt lat="44.6222833" lon="8.846095"><ele>313.5</ele><time>2026-04-28T08:31:43.312Z</time></trkpt><trkpt lat="44.6220667" lon="8.8459467"><ele>313.0</ele><time>2026-04-28T08:31:44.312Z</time></trkpt><trkpt lat="44.6218683" lon="8.8458167"><ele>313.0</ele><time>2026-04-28T08:31:45.312Z</time></trkpt><trkpt lat="44.6216783" lon="8.8456883"><ele>313.0</ele><time>2026-04-28T08:31:46.312Z</time></trkpt><trkpt lat="44.6215" lon="8.8455767"><ele>313.0</ele><time>2026-04-28T08:31:47.312Z</time></trkpt><trkpt lat="44.6213183" lon="8.8454783"><ele>313.3333333333333</ele><time>2026-04-28T08:31:48.312Z</time></trkpt><trkpt lat="44.621135" lon="8.8454017"><ele>313.6666666666667</ele><time>2026-04-28T08:31:49.312Z</time></trkpt><trkpt lat="44.6209567" lon="8.8453317"><ele>314.0</ele><time>2026-04-28T08:31:50.312Z</time></trkpt><trkpt lat="44.620775" lon="8.8452583"><ele>314.0</ele><time>2026-04-28T08:31:51.312Z</time></trkpt><trkpt lat="44.6205933" lon="8.8451917"><ele>314.0</ele><time>2026-04-28T08:31:52.312Z</time></trkpt><trkpt lat="44.620415" lon="8.8451217"><ele>314.0</ele><time>2026-04-28T08:31:53.312Z</time></trkpt><trkpt lat="44.6202467" lon="8.8450533"><ele>316.0</ele><time>2026-04-28T08:31:54.312Z</time></trkpt><trkpt lat="44.620085" lon="8.8449917"><ele>318.0</ele><time>2026-04-28T08:31:55.312Z</time></trkpt><trkpt lat="44.6199267" lon="8.8449283"><ele>320.0</ele><time>2026-04-28T08:31:56.312Z</time></trkpt><trkpt lat="44.6197717" lon="8.8448583"><ele>320.0</ele><time>2026-04-28T08:31:57.312Z</time></trkpt><trkpt lat="44.6196217" lon="8.84479"><ele>320.0</ele><time>2026-04-28T08:31:58.312Z</time></trkpt><trkpt lat="44.619465" lon="8.8447267"><ele>320.0</ele><time>2026-04-28T08:31:59.312Z</time></trkpt><trkpt lat="44.61931" lon="8.8446717"><ele>324.33333333333337</ele><time>2026-04-28T08:32:00.312Z</time></trkpt><trkpt lat="44.6191533" lon="8.8446217"><ele>328.6666666666667</ele><time>2026-04-28T08:32:01.312Z</time></trkpt><trkpt lat="44.6190083" lon="8.8445967"><ele>333.0</ele><time>2026-04-28T08:32:02.311Z</time></trkpt><trkpt lat="44.618865" lon="8.844595"><ele>333.0</ele><time>2026-04-28T08:32:03.311Z</time></trkpt><trkpt lat="44.6187233" lon="8.84463"><ele>333.0</ele><time>2026-04-28T08:32:04.312Z</time></trkpt><trkpt lat="44.6185667" lon="8.8446967"><ele>333.0</ele><time>2026-04-28T08:32:05.312Z</time></trkpt><trkpt lat="44.6184233" lon="8.8448183"><ele>332.3333333333333</ele><time>2026-04-28T08:32:06.312Z</time></trkpt><trkpt lat="44.618295" lon="8.8449633"><ele>331.66666666666663</ele><time>2026-04-28T08:32:07.312Z</time></trkpt><trkpt lat="44.6181817" lon="8.8451133"><ele>331.0</ele><time>2026-04-28T08:32:08.312Z</time></trkpt><trkpt lat="44.6180517" lon="8.8452367"><ele>334.75</ele><time>2026-04-28T08:32:09.312Z</time></trkpt><trkpt lat="44.61792" lon="8.8453183"><ele>338.5</ele><time>2026-04-28T08:32:10.312Z</time></trkpt><trkpt lat="44.617785" lon="8.8453717"><ele>342.25</ele><time>2026-04-28T08:32:11.312Z</time></trkpt><trkpt lat="44.6176367" lon="8.8453717"><ele>346.0</ele><time>2026-04-28T08:32:12.312Z</time></trkpt><trkpt lat="44.6174783" lon="8.8453367"><ele>345.0</ele><time>2026-04-28T08:32:13.312Z</time></trkpt><trkpt lat="44.6173067" lon="8.845265"><ele>344.0</ele><time>2026-04-28T08:32:14.312Z</time></trkpt><trkpt lat="44.6171233" lon="8.8451717"><ele>343.0</ele><time>2026-04-28T08:32:15.312Z</time></trkpt><trkpt lat="44.616945" lon="8.8450883"><ele>343.0</ele><time>2026-04-28T08:32:16.311Z</time></trkpt><trkpt lat="44.6167617" lon="8.8449933"><ele>343.0</ele><time>2026-04-28T08:32:17.312Z</time></trkpt><trkpt lat="44.6166083" lon="8.8449033"><ele>343.0</ele><time>2026-04-28T08:32:18.311Z</time></trkpt><trkpt lat="44.61645" lon="8.8448017"><ele>343.0</ele><time>2026-04-28T08:32:19.312Z</time></trkpt><trkpt lat="44.6163033" lon="8.8447317"><ele>343.0</ele><time>2026-04-28T08:32:20.311Z</time></trkpt><trkpt lat="44.6161567" lon="8.84468"><ele>343.0</ele><time>2026-04-28T08:32:21.312Z</time></trkpt><trkpt lat="44.6160183" lon="8.8446567"><ele>343.0</ele><time>2026-04-28T08:32:22.311Z</time></trkpt><trkpt lat="44.6158917" lon="8.8446633"><ele>343.2</ele><time>2026-04-28T08:32:23.312Z</time></trkpt><trkpt lat="44.6157767" lon="8.8446933"><ele>343.4</ele><time>2026-04-28T08:32:24.312Z</time></trkpt><trkpt lat="44.6156817" lon="8.84471"><ele>343.59999999999997</ele><time>2026-04-28T08:32:25.312Z</time></trkpt><trkpt lat="44.6155967" lon="8.8447233"><ele>343.79999999999995</ele><time>2026-04-28T08:32:26.312Z</time></trkpt><trkpt lat="44.615525" lon="8.8447517"><ele>344.0</ele><time>2026-04-28T08:32:27.312Z</time></trkpt><trkpt lat="44.615445" lon="8.844805"><ele>344.0</ele><time>2026-04-28T08:32:28.312Z</time></trkpt><trkpt lat="44.6153533" lon="8.84489"><ele>344.0</ele><time>2026-04-28T08:32:29.312Z</time></trkpt><trkpt lat="44.61526" lon="8.8449767"><ele>344.0</ele><time>2026-04-28T08:32:30.312Z</time></trkpt><trkpt lat="44.6151567" lon="8.845075"><ele>344.0</ele><time>2026-04-28T08:32:31.312Z</time></trkpt><trkpt lat="44.615055" lon="8.84518"><ele>345.25</ele><time>2026-04-28T08:32:32.311Z</time></trkpt><trkpt lat="44.61496" lon="8.8453083"><ele>346.5</ele><time>2026-04-28T08:32:33.312Z</time></trkpt><trkpt lat="44.614865" lon="8.8454467"><ele>347.75</ele><time>2026-04-28T08:32:34.312Z</time></trkpt><trkpt lat="44.614765" lon="8.84557"><ele>349.0</ele><time>2026-04-28T08:32:35.312Z</time></trkpt><trkpt lat="44.6146667" lon="8.84568"><ele>349.0</ele><time>2026-04-28T08:32:36.311Z</time></trkpt><trkpt lat="44.6145717" lon="8.845765"><ele>349.0</ele><time>2026-04-28T08:32:37.311Z</time></trkpt><trkpt lat="44.614465" lon="8.8458333"><ele>349.0</ele><time>2026-04-28T08:32:38.312Z</time></trkpt><trkpt lat="44.61436" lon="8.8458967"><ele>349.0</ele><time>2026-04-28T08:32:39.312Z</time></trkpt><trkpt lat="44.61423" lon="8.8459467"><ele>351.0</ele><time>2026-04-28T08:32:40.312Z</time></trkpt><trkpt lat="44.6140983" lon="8.8459917"><ele>353.0</ele><time>2026-04-28T08:32:41.312Z</time></trkpt><trkpt lat="44.6139517" lon="8.8460267"><ele>355.0</ele><time>2026-04-28T08:32:42.312Z</time></trkpt><trkpt lat="44.6137983" lon="8.846075"><ele>357.0</ele><time>2026-04-28T08:32:43.312Z</time></trkpt><trkpt lat="44.6136233" lon="8.846135"><ele>357.0</ele><time>2026-04-28T08:32:44.312Z</time></trkpt><trkpt lat="44.61344" lon="8.8462017"><ele>357.0</ele><time>2026-04-28T08:32:45.312Z</time></trkpt><trkpt lat="44.6132667" lon="8.8462583"><ele>357.0</ele><time>2026-04-28T08:32:46.312Z</time></trkpt><trkpt lat="44.6131183" lon="8.8463183"><ele>357.0</ele><time>2026-04-28T08:32:47.312Z</time></trkpt><trkpt lat="44.61296" lon="8.84636"><ele>357.0</ele><time>2026-04-28T08:32:48.312Z</time></trkpt><trkpt lat="44.6128267" lon="8.8464133"><ele>357.0</ele><time>2026-04-28T08:32:49.312Z</time></trkpt><trkpt lat="44.6126917" lon="8.8464517"><ele>357.0</ele><time>2026-04-28T08:32:50.311Z</time></trkpt><trkpt lat="44.612555" lon="8.8464733"><ele>356.25</ele><time>2026-04-28T08:32:51.312Z</time></trkpt><trkpt lat="44.61241" lon="8.8464917"><ele>355.5</ele><time>2026-04-28T08:32:52.311Z</time></trkpt><trkpt lat="44.61227" lon="8.8465233"><ele>354.75</ele><time>2026-04-28T08:32:53.312Z</time></trkpt><trkpt lat="44.612125" lon="8.8465483"><ele>354.0</ele><time>2026-04-28T08:32:54.312Z</time></trkpt><trkpt lat="44.61198" lon="8.84658"><ele>352.25</ele><time>2026-04-28T08:32:55.312Z</time></trkpt><trkpt lat="44.6118333" lon="8.8466217"><ele>350.5</ele><time>2026-04-28T08:32:56.312Z</time></trkpt><trkpt lat="44.6116933" lon="8.84668"><ele>348.75</ele><time>2026-04-28T08:32:57.312Z</time></trkpt><trkpt lat="44.6115567" lon="8.8467383"><ele>347.0</ele><time>2026-04-28T08:32:58.312Z</time></trkpt><trkpt lat="44.6114183" lon="8.8467883"><ele>351.25</ele><time>2026-04-28T08:32:59.312Z</time></trkpt><trkpt lat="44.61129" lon="8.8468367"><ele>355.5</ele><time>2026-04-28T08:33:00.311Z</time></trkpt><trkpt lat="44.6111533" lon="8.846875"><ele>359.75</ele><time>2026-04-28T08:33:01.312Z</time></trkpt><trkpt lat="44.6110117" lon="8.8469"><ele>364.0</ele><time>2026-04-28T08:33:02.312Z</time></trkpt><trkpt lat="44.6108717" lon="8.8469233"><ele>364.5</ele><time>2026-04-28T08:33:03.312Z</time></trkpt><trkpt lat="44.61073" lon="8.84694"><ele>365.0</ele><time>2026-04-28T08:33:04.312Z</time></trkpt><trkpt lat="44.610585" lon="8.8469583"><ele>365.5</ele><time>2026-04-28T08:33:05.311Z</time></trkpt><trkpt lat="44.6104317" lon="8.84697"><ele>366.0</ele><time>2026-04-28T08:33:06.311Z</time></trkpt><trkpt lat="44.6102767" lon="8.846985"><ele>368.6666666666667</ele><time>2026-04-28T08:33:07.312Z</time></trkpt><trkpt lat="44.6101183" lon="8.8469967"><ele>371.33333333333337</ele><time>2026-04-28T08:33:08.311Z</time></trkpt><trkpt lat="44.6099583" lon="8.8470033"><ele>374.0</ele><time>2026-04-28T08:33:09.312Z</time></trkpt><trkpt lat="44.609805" lon="8.847015"><ele>374.0</ele><time>2026-04-28T08:33:10.312Z</time></trkpt><trkpt lat="44.6096517" lon="8.8470467"><ele>374.0</ele><time>2026-04-28T08:33:11.312Z</time></trkpt><trkpt lat="44.6095067" lon="8.84708"><ele>374.0</ele><time>2026-04-28T08:33:12.312Z</time></trkpt><trkpt lat="44.6093617" lon="8.8471433"><ele>370.0</ele><time>2026-04-28T08:33:13.311Z</time></trkpt><trkpt lat="44.6092217" lon="8.8472217"><ele>366.0</ele><time>2026-04-28T08:33:14.312Z</time></trkpt><trkpt lat="44.6090933" lon="8.8473267"><ele>362.0</ele><time>2026-04-28T08:33:15.312Z</time></trkpt><trkpt lat="44.60896" lon="8.8474633"><ele>364.0</ele><time>2026-04-28T08:33:16.312Z</time></trkpt><trkpt lat="44.6088333" lon="8.847635"><ele>366.0</ele><time>2026-04-28T08:33:17.311Z</time></trkpt><trkpt lat="44.6087183" lon="8.8478183"><ele>368.0</ele><time>2026-04-28T08:33:18.312Z</time></trkpt><trkpt lat="44.6086133" lon="8.8480067"><ele>368.0</ele><time>2026-04-28T08:33:19.312Z</time></trkpt><trkpt lat="44.6085167" lon="8.8481917"><ele>368.0</ele><time>2026-04-28T08:33:20.312Z</time></trkpt><trkpt lat="44.608475" lon="8.8483567"><ele>368.0</ele><time>2026-04-28T08:33:21.312Z</time></trkpt><trkpt lat="44.6083883" lon="8.8485733"><ele>369.6666666666667</ele><time>2026-04-28T08:33:22.312Z</time></trkpt><trkpt lat="44.6083317" lon="8.8487867"><ele>371.3333333333333</ele><time>2026-04-28T08:33:23.312Z</time></trkpt><trkpt lat="44.6083" lon="8.8490083"><ele>373.0</ele><time>2026-04-28T08:33:24.311Z</time></trkpt><trkpt lat="44.6082867" lon="8.84923"><ele>374.0</ele><time>2026-04-28T08:33:25.312Z</time></trkpt><trkpt lat="44.6082867" lon="8.849455"><ele>375.0</ele><time>2026-04-28T08:33:26.312Z</time></trkpt><trkpt lat="44.608305" lon="8.8496767"><ele>376.0</ele><time>2026-04-28T08:33:27.312Z</time></trkpt><trkpt lat="44.6083283" lon="8.8499"><ele>376.0</ele><time>2026-04-28T08:33:28.312Z</time></trkpt><trkpt lat="44.6083517" lon="8.8501133"><ele>376.0</ele><time>2026-04-28T08:33:29.312Z</time></trkpt><trkpt lat="44.6083817" lon="8.8503267"><ele>376.0</ele><time>2026-04-28T08:33:30.312Z</time></trkpt><trkpt lat="44.6084133" lon="8.8505383"><ele>375.3333333333333</ele><time>2026-04-28T08:33:31.312Z</time></trkpt><trkpt lat="44.60845" lon="8.85075"><ele>374.6666666666667</ele><time>2026-04-28T08:33:32.312Z</time></trkpt><trkpt lat="44.6084817" lon="8.85096"><ele>374.0</ele><time>2026-04-28T08:33:33.312Z</time></trkpt><trkpt lat="44.6085167" lon="8.8511617"><ele>374.0</ele><time>2026-04-28T08:33:34.311Z</time></trkpt><trkpt lat="44.608565" lon="8.85136"><ele>374.0</ele><time>2026-04-28T08:33:35.312Z</time></trkpt><trkpt lat="44.6086117" lon="8.851545"><ele>374.0</ele><time>2026-04-28T08:33:36.312Z</time></trkpt><trkpt lat="44.6086733" lon="8.85171"><ele>374.0</ele><time>2026-04-28T08:33:37.312Z</time></trkpt><trkpt lat="44.6087417" lon="8.851845"><ele>379.4</ele><time>2026-04-28T08:33:38.312Z</time></trkpt><trkpt lat="44.6087917" lon="8.85199"><ele>384.79999999999995</ele><time>2026-04-28T08:33:39.312Z</time></trkpt><trkpt lat="44.6088217" lon="8.8521317"><ele>390.20000000000005</ele><time>2026-04-28T08:33:40.312Z</time></trkpt><trkpt lat="44.6088233" lon="8.8522633"><ele>395.6</ele><time>2026-04-28T08:33:41.312Z</time></trkpt><trkpt lat="44.6087967" lon="8.8523867"><ele>401.0</ele><time>2026-04-28T08:33:42.312Z</time></trkpt><trkpt lat="44.60875" lon="8.852525"><ele>399.3333333333333</ele><time>2026-04-28T08:33:43.312Z</time></trkpt><trkpt lat="44.6086533" lon="8.8526617"><ele>397.66666666666663</ele><time>2026-04-28T08:33:44.311Z</time></trkpt><trkpt lat="44.6085283" lon="8.852785"><ele>396.0</ele><time>2026-04-28T08:33:45.312Z</time></trkpt><trkpt lat="44.60836" lon="8.8528767"><ele>396.0</ele><time>2026-04-28T08:33:46.311Z</time></trkpt><trkpt lat="44.6081783" lon="8.8529533"><ele>396.0</ele><time>2026-04-28T08:33:47.312Z</time></trkpt><trkpt lat="44.6079917" lon="8.853035"><ele>396.0</ele><time>2026-04-28T08:33:48.312Z</time></trkpt><trkpt lat="44.6077933" lon="8.853105"><ele>389.6666666666667</ele><time>2026-04-28T08:33:49.312Z</time></trkpt><trkpt lat="44.60759" lon="8.85316"><ele>383.33333333333337</ele><time>2026-04-28T08:33:50.312Z</time></trkpt><trkpt lat="44.6073867" lon="8.85321"><ele>377.0</ele><time>2026-04-28T08:33:51.312Z</time></trkpt><trkpt lat="44.6072" lon="8.8532633"><ele>377.0</ele><time>2026-04-28T08:33:52.312Z</time></trkpt><trkpt lat="44.6070217" lon="8.85331"><ele>377.0</ele><time>2026-04-28T08:33:53.312Z</time></trkpt><trkpt lat="44.6068617" lon="8.8533683"><ele>377.0</ele><time>2026-04-28T08:33:54.312Z</time></trkpt><trkpt lat="44.6067" lon="8.8534217"><ele>380.0</ele><time>2026-04-28T08:33:55.312Z</time></trkpt><trkpt lat="44.606535" lon="8.8534783"><ele>383.0</ele><time>2026-04-28T08:33:56.312Z</time></trkpt><trkpt lat="44.606375" lon="8.8535383"><ele>386.0</ele><time>2026-04-28T08:33:57.312Z</time></trkpt><trkpt lat="44.6062033" lon="8.8536167"><ele>382.66666666666663</ele><time>2026-04-28T08:33:58.311Z</time></trkpt><trkpt lat="44.60603" lon="8.853695"><ele>379.3333333333333</ele><time>2026-04-28T08:33:59.312Z</time></trkpt><trkpt lat="44.605855" lon="8.8537667"><ele>376.0</ele><time>2026-04-28T08:34:00.312Z</time></trkpt><trkpt lat="44.6056967" lon="8.8538317"><ele>376.0</ele><time>2026-04-28T08:34:01.312Z</time></trkpt><trkpt lat="44.605535" lon="8.853905"><ele>376.0</ele><time>2026-04-28T08:34:02.312Z</time></trkpt><trkpt lat="44.6053717" lon="8.8539917"><ele>376.0</ele><time>2026-04-28T08:34:03.311Z</time></trkpt><trkpt lat="44.6052083" lon="8.8540667"><ele>375.66666666666663</ele><time>2026-04-28T08:34:04.312Z</time></trkpt><trkpt lat="44.605045" lon="8.854145"><ele>375.3333333333333</ele><time>2026-04-28T08:34:05.312Z</time></trkpt><trkpt lat="44.6048767" lon="8.8542333"><ele>375.0</ele><time>2026-04-28T08:34:06.312Z</time></trkpt><trkpt lat="44.6047133" lon="8.8543267"><ele>375.75</ele><time>2026-04-28T08:34:07.312Z</time></trkpt><trkpt lat="44.6045683" lon="8.8544133"><ele>376.5</ele><time>2026-04-28T08:34:08.312Z</time></trkpt><trkpt lat="44.6044383" lon="8.8544983"><ele>377.25</ele><time>2026-04-28T08:34:09.312Z</time></trkpt><trkpt lat="44.6043133" lon="8.8545917"><ele>378.0</ele><time>2026-04-28T08:34:10.312Z</time></trkpt><trkpt lat="44.6041917" lon="8.8547083"><ele>378.0</ele><time>2026-04-28T08:34:11.312Z</time></trkpt><trkpt lat="44.6040783" lon="8.854845"><ele>378.0</ele><time>2026-04-28T08:34:12.312Z</time></trkpt><trkpt lat="44.603965" lon="8.8549967"><ele>378.0</ele><time>2026-04-28T08:34:13.312Z</time></trkpt><trkpt lat="44.60384" lon="8.8551833"><ele>379.0</ele><time>2026-04-28T08:34:14.312Z</time></trkpt><trkpt lat="44.60372" lon="8.8553767"><ele>380.0</ele><time>2026-04-28T08:34:15.312Z</time></trkpt><trkpt lat="44.6035983" lon="8.85559"><ele>381.0</ele><time>2026-04-28T08:34:16.312Z</time></trkpt><trkpt lat="44.60348" lon="8.855795"><ele>382.0</ele><time>2026-04-28T08:34:17.312Z</time></trkpt><trkpt lat="44.6033633" lon="8.8559933"><ele>383.0</ele><time>2026-04-28T08:34:18.312Z</time></trkpt><trkpt lat="44.6032467" lon="8.8561933"><ele>384.0</ele><time>2026-04-28T08:34:19.312Z</time></trkpt><trkpt lat="44.60313" lon="8.85641"><ele>384.0</ele><time>2026-04-28T08:34:20.312Z</time></trkpt><trkpt lat="44.6030167" lon="8.856615"><ele>384.0</ele><time>2026-04-28T08:34:21.312Z</time></trkpt><trkpt lat="44.6029133" lon="8.85682"><ele>384.0</ele><time>2026-04-28T08:34:22.312Z</time></trkpt><trkpt lat="44.6028183" lon="8.8570133"><ele>385.33333333333337</ele><time>2026-04-28T08:34:23.312Z</time></trkpt><trkpt lat="44.6027067" lon="8.857195"><ele>386.6666666666667</ele><time>2026-04-28T08:34:24.312Z</time></trkpt><trkpt lat="44.6026033" lon="8.8573767"><ele>388.0</ele><time>2026-04-28T08:34:25.312Z</time></trkpt><trkpt lat="44.602505" lon="8.85755"><ele>393.5</ele><time>2026-04-28T08:34:26.312Z</time></trkpt><trkpt lat="44.6024067" lon="8.8577217"><ele>399.0</ele><time>2026-04-28T08:34:27.312Z</time></trkpt><trkpt lat="44.6023017" lon="8.857875"><ele>404.5</ele><time>2026-04-28T08:34:28.312Z</time></trkpt><trkpt lat="44.6022033" lon="8.858015"><ele>410.0</ele><time>2026-04-28T08:34:29.312Z</time></trkpt><trkpt lat="44.6021" lon="8.858155"><ele>410.0</ele><time>2026-04-28T08:34:30.312Z</time></trkpt><trkpt lat="44.602005" lon="8.8582783"><ele>410.0</ele><time>2026-04-28T08:34:31.312Z</time></trkpt><trkpt lat="44.6019167" lon="8.8584183"><ele>410.0</ele><time>2026-04-28T08:34:32.312Z</time></trkpt><trkpt lat="44.6018183" lon="8.85854"><ele>410.0</ele><time>2026-04-28T08:34:33.312Z</time></trkpt><trkpt lat="44.60173" lon="8.85865"><ele>411.25</ele><time>2026-04-28T08:34:34.311Z</time></trkpt><trkpt lat="44.60162" lon="8.8587067"><ele>412.5</ele><time>2026-04-28T08:34:35.312Z</time></trkpt><trkpt lat="44.6015133" lon="8.85877"><ele>413.75</ele><time>2026-04-28T08:34:36.312Z</time></trkpt><trkpt lat="44.60138" lon="8.858775"><ele>415.0</ele><time>2026-04-28T08:34:37.312Z</time></trkpt><trkpt lat="44.6012117" lon="8.858765"><ele>416.6666666666667</ele><time>2026-04-28T08:34:38.312Z</time></trkpt><trkpt lat="44.6010633" lon="8.8587667"><ele>418.33333333333337</ele><time>2026-04-28T08:34:39.312Z</time></trkpt><trkpt lat="44.6009067" lon="8.8587733"><ele>420.0</ele><time>2026-04-28T08:34:40.312Z</time></trkpt><trkpt lat="44.6007517" lon="8.8587833"><ele>420.0</ele><time>2026-04-28T08:34:41.312Z</time></trkpt><trkpt lat="44.6005983" lon="8.8587967"><ele>420.0</ele><time>2026-04-28T08:34:42.312Z</time></trkpt><trkpt lat="44.600445" lon="8.858815"><ele>420.0</ele><time>2026-04-28T08:34:43.312Z</time></trkpt><trkpt lat="44.6002867" lon="8.8588317"><ele>415.5</ele><time>2026-04-28T08:34:44.312Z</time></trkpt><trkpt lat="44.6001383" lon="8.8588617"><ele>411.0</ele><time>2026-04-28T08:34:45.312Z</time></trkpt><trkpt lat="44.5999967" lon="8.8588667"><ele>406.5</ele><time>2026-04-28T08:34:46.312Z</time></trkpt><trkpt lat="44.5998667" lon="8.858925"><ele>402.0</ele><time>2026-04-28T08:34:47.312Z</time></trkpt><trkpt lat="44.5997383" lon="8.8589817"><ele>402.0</ele><time>2026-04-28T08:34:48.312Z</time></trkpt><trkpt lat="44.5996367" lon="8.8590767"><ele>402.0</ele><time>2026-04-28T08:34:49.312Z</time></trkpt><trkpt lat="44.59954" lon="8.85917"><ele>402.0</ele><time>2026-04-28T08:34:50.312Z</time></trkpt><trkpt lat="44.5994317" lon="8.8593367"><ele>402.0</ele><time>2026-04-28T08:34:51.312Z</time></trkpt><trkpt lat="44.5993083" lon="8.8595267"><ele>402.33333333333337</ele><time>2026-04-28T08:34:52.312Z</time></trkpt><trkpt lat="44.599165" lon="8.8597283"><ele>402.6666666666667</ele><time>2026-04-28T08:34:53.312Z</time></trkpt><trkpt lat="44.5990433" lon="8.85991"><ele>403.0</ele><time>2026-04-28T08:34:54.311Z</time></trkpt><trkpt lat="44.59893" lon="8.860065"><ele>404.75</ele><time>2026-04-28T08:34:55.312Z</time></trkpt><trkpt lat="44.5988217" lon="8.8601717"><ele>406.5</ele><time>2026-04-28T08:34:56.312Z</time></trkpt><trkpt lat="44.59871" lon="8.8602417"><ele>408.25</ele><time>2026-04-28T08:34:57.312Z</time></trkpt><trkpt lat="44.598585" lon="8.86029"><ele>410.0</ele><time>2026-04-28T08:34:58.312Z</time></trkpt><trkpt lat="44.5984433" lon="8.86033"><ele>410.0</ele><time>2026-04-28T08:34:59.312Z</time></trkpt><trkpt lat="44.598305" lon="8.8603633"><ele>410.0</ele><time>2026-04-28T08:35:00.311Z</time></trkpt><trkpt lat="44.5981617" lon="8.8604217"><ele>410.0</ele><time>2026-04-28T08:35:01.312Z</time></trkpt><trkpt lat="44.5979983" lon="8.860505"><ele>407.0</ele><time>2026-04-28T08:35:02.312Z</time></trkpt><trkpt lat="44.5978233" lon="8.8606267"><ele>404.0</ele><time>2026-04-28T08:35:03.312Z</time></trkpt><trkpt lat="44.59765" lon="8.8607517"><ele>401.0</ele><time>2026-04-28T08:35:04.312Z</time></trkpt><trkpt lat="44.5974833" lon="8.860855"><ele>405.3333333333333</ele><time>2026-04-28T08:35:05.312Z</time></trkpt><trkpt lat="44.5973333" lon="8.86095"><ele>409.66666666666663</ele><time>2026-04-28T08:35:06.312Z</time></trkpt><trkpt lat="44.5971883" lon="8.861025"><ele>414.0</ele><time>2026-04-28T08:35:07.312Z</time></trkpt><trkpt lat="44.5970417" lon="8.86108"><ele>410.66666666666663</ele><time>2026-04-28T08:35:08.312Z</time></trkpt><trkpt lat="44.5968933" lon="8.86111"><ele>407.3333333333333</ele><time>2026-04-28T08:35:09.312Z</time></trkpt><trkpt lat="44.5967383" lon="8.86113"><ele>404.0</ele><time>2026-04-28T08:35:10.312Z</time></trkpt><trkpt lat="44.596575" lon="8.8611283"><ele>404.0</ele><time>2026-04-28T08:35:11.312Z</time></trkpt><trkpt lat="44.5964067" lon="8.8611267"><ele>404.0</ele><time>2026-04-28T08:35:12.312Z</time></trkpt><trkpt lat="44.596235" lon="8.8611217"><ele>404.0</ele><time>2026-04-28T08:35:13.312Z</time></trkpt><trkpt lat="44.5960767" lon="8.8611183"><ele>402.66666666666663</ele><time>2026-04-28T08:35:14.312Z</time></trkpt><trkpt lat="44.5959183" lon="8.8611083"><ele>401.33333333333337</ele><time>2026-04-28T08:35:15.312Z</time></trkpt><trkpt lat="44.5957683" lon="8.8610783"><ele>400.0</ele><time>2026-04-28T08:35:16.312Z</time></trkpt><trkpt lat="44.5956167" lon="8.8610217"><ele>400.0</ele><time>2026-04-28T08:35:17.312Z</time></trkpt><trkpt lat="44.59547" lon="8.8609467"><ele>400.0</ele><time>2026-04-28T08:35:18.312Z</time></trkpt><trkpt lat="44.5953233" lon="8.8608383"><ele>400.0</ele><time>2026-04-28T08:35:19.312Z</time></trkpt><trkpt lat="44.5951817" lon="8.8607167"><ele>400.6666666666667</ele><time>2026-04-28T08:35:20.312Z</time></trkpt><trkpt lat="44.5950417" lon="8.8605783"><ele>401.33333333333337</ele><time>2026-04-28T08:35:21.312Z</time></trkpt><trkpt lat="44.5948933" lon="8.8604467"><ele>402.0</ele><time>2026-04-28T08:35:22.312Z</time></trkpt><trkpt lat="44.5947467" lon="8.8603133"><ele>402.0</ele><time>2026-04-28T08:35:23.312Z</time></trkpt><trkpt lat="44.5946" lon="8.8601767"><ele>402.0</ele><time>2026-04-28T08:35:24.312Z</time></trkpt><trkpt lat="44.5944717" lon="8.86004"><ele>402.0</ele><time>2026-04-28T08:35:25.312Z</time></trkpt><trkpt lat="44.5943533" lon="8.85987"><ele>406.0</ele><time>2026-04-28T08:35:26.312Z</time></trkpt><trkpt lat="44.59423" lon="8.859705"><ele>410.0</ele><time>2026-04-28T08:35:27.312Z</time></trkpt><trkpt lat="44.594115" lon="8.859535"><ele>414.0</ele><time>2026-04-28T08:35:28.311Z</time></trkpt><trkpt lat="44.5940217" lon="8.859375"><ele>419.75</ele><time>2026-04-28T08:35:29.312Z</time></trkpt><trkpt lat="44.5939483" lon="8.8592283"><ele>425.5</ele><time>2026-04-28T08:35:30.312Z</time></trkpt><trkpt lat="44.5938833" lon="8.8590817"><ele>431.25</ele><time>2026-04-28T08:35:31.312Z</time></trkpt><trkpt lat="44.5938117" lon="8.858925"><ele>437.0</ele><time>2026-04-28T08:35:32.312Z</time></trkpt><trkpt lat="44.5937333" lon="8.8587717"><ele>436.0</ele><time>2026-04-28T08:35:33.312Z</time></trkpt><trkpt lat="44.5936467" lon="8.858615"><ele>435.0</ele><time>2026-04-28T08:35:34.312Z</time></trkpt><trkpt lat="44.5935667" lon="8.8584567"><ele>434.0</ele><time>2026-04-28T08:35:35.312Z</time></trkpt><trkpt lat="44.5935" lon="8.8583033"><ele>433.0</ele><time>2026-04-28T08:35:36.312Z</time></trkpt><trkpt lat="44.593435" lon="8.8581533"><ele>433.0</ele><time>2026-04-28T08:35:37.312Z</time></trkpt><trkpt lat="44.5933717" lon="8.8580033"><ele>433.0</ele><time>2026-04-28T08:35:38.311Z</time></trkpt><trkpt lat="44.5932817" lon="8.8578933"><ele>433.0</ele><time>2026-04-28T08:35:39.312Z</time></trkpt><trkpt lat="44.5931783" lon="8.8577833"><ele>433.0</ele><time>2026-04-28T08:35:40.312Z</time></trkpt><trkpt lat="44.5930733" lon="8.8576733"><ele>430.75</ele><time>2026-04-28T08:35:41.312Z</time></trkpt><trkpt lat="44.5929767" lon="8.8575633"><ele>428.5</ele><time>2026-04-28T08:35:42.312Z</time></trkpt><trkpt lat="44.5928717" lon="8.8574667"><ele>426.25</ele><time>2026-04-28T08:35:43.312Z</time></trkpt><trkpt lat="44.5927467" lon="8.8573683"><ele>424.0</ele><time>2026-04-28T08:35:44.311Z</time></trkpt><trkpt lat="44.5925933" lon="8.85729"><ele>424.0</ele><time>2026-04-28T08:35:45.312Z</time></trkpt><trkpt lat="44.5924417" lon="8.8572167"><ele>424.0</ele><time>2026-04-28T08:35:46.312Z</time></trkpt><trkpt lat="44.5923083" lon="8.857135"><ele>424.0</ele><time>2026-04-28T08:35:47.312Z</time></trkpt><trkpt lat="44.5921983" lon="8.8570333"><ele>424.0</ele><time>2026-04-28T08:35:48.312Z</time></trkpt><trkpt lat="44.5920933" lon="8.8569333"><ele>424.1666666666667</ele><time>2026-04-28T08:35:49.312Z</time></trkpt><trkpt lat="44.5919917" lon="8.8568317"><ele>424.33333333333337</ele><time>2026-04-28T08:35:50.312Z</time></trkpt><trkpt lat="44.59192" lon="8.85675"><ele>424.5</ele><time>2026-04-28T08:35:51.312Z</time></trkpt><trkpt lat="44.5918583" lon="8.8566933"><ele>424.66666666666663</ele><time>2026-04-28T08:35:52.312Z</time></trkpt><trkpt lat="44.591795" lon="8.856675"><ele>424.8333333333333</ele><time>2026-04-28T08:35:53.312Z</time></trkpt><trkpt lat="44.591715" lon="8.8567083"><ele>425.0</ele><time>2026-04-28T08:35:54.312Z</time></trkpt><trkpt lat="44.591635" lon="8.8567783"><ele>426.0</ele><time>2026-04-28T08:35:55.312Z</time></trkpt><trkpt lat="44.59155" lon="8.8568867"><ele>427.0</ele><time>2026-04-28T08:35:56.312Z</time></trkpt><trkpt lat="44.591465" lon="8.857025"><ele>428.0</ele><time>2026-04-28T08:35:57.312Z</time></trkpt><trkpt lat="44.5913767" lon="8.85718"><ele>429.0</ele><time>2026-04-28T08:35:58.312Z</time></trkpt><trkpt lat="44.5912933" lon="8.8573333"><ele>429.0</ele><time>2026-04-28T08:35:59.312Z</time></trkpt><trkpt lat="44.59123" lon="8.85748"><ele>429.0</ele><time>2026-04-28T08:36:00.312Z</time></trkpt><trkpt lat="44.5912033" lon="8.8576317"><ele>429.0</ele><time>2026-04-28T08:36:01.312Z</time></trkpt><trkpt lat="44.5912183" lon="8.8577933"><ele>429.0</ele><time>2026-04-28T08:36:02.312Z</time></trkpt><trkpt lat="44.5912583" lon="8.85798"><ele>433.66666666666663</ele><time>2026-04-28T08:36:03.312Z</time></trkpt><trkpt lat="44.59134" lon="8.85821"><ele>438.3333333333333</ele><time>2026-04-28T08:36:04.312Z</time></trkpt><trkpt lat="44.5914083" lon="8.8584367"><ele>443.0</ele><time>2026-04-28T08:36:05.312Z</time></trkpt><trkpt lat="44.5914567" lon="8.8586733"><ele>442.66666666666663</ele><time>2026-04-28T08:36:06.312Z</time></trkpt><trkpt lat="44.5914733" lon="8.8589017"><ele>442.33333333333337</ele><time>2026-04-28T08:36:07.312Z</time></trkpt><trkpt lat="44.5914917" lon="8.8591267"><ele>442.0</ele><time>2026-04-28T08:36:08.312Z</time></trkpt><trkpt lat="44.591525" lon="8.85934"><ele>442.0</ele><time>2026-04-28T08:36:09.312Z</time></trkpt><trkpt lat="44.591575" lon="8.8595483"><ele>442.0</ele><time>2026-04-28T08:36:10.312Z</time></trkpt><trkpt lat="44.5916317" lon="8.85974"><ele>442.0</ele><time>2026-04-28T08:36:11.312Z</time></trkpt><trkpt lat="44.591675" lon="8.85992"><ele>442.0</ele><time>2026-04-28T08:36:12.311Z</time></trkpt><trkpt lat="44.591685" lon="8.8601017"><ele>445.5</ele><time>2026-04-28T08:36:13.311Z</time></trkpt><trkpt lat="44.5916733" lon="8.8602733"><ele>449.0</ele><time>2026-04-28T08:36:14.312Z</time></trkpt><trkpt lat="44.5916267" lon="8.86047"><ele>452.5</ele><time>2026-04-28T08:36:15.312Z</time></trkpt><trkpt lat="44.59157" lon="8.8606633"><ele>456.0</ele><time>2026-04-28T08:36:16.312Z</time></trkpt><trkpt lat="44.5915" lon="8.860835"><ele>454.5</ele><time>2026-04-28T08:36:17.312Z</time></trkpt><trkpt lat="44.59141" lon="8.8609717"><ele>453.0</ele><time>2026-04-28T08:36:18.312Z</time></trkpt><trkpt lat="44.5913067" lon="8.8610883"><ele>451.5</ele><time>2026-04-28T08:36:19.312Z</time></trkpt><trkpt lat="44.591185" lon="8.86115"><ele>450.0</ele><time>2026-04-28T08:36:20.312Z</time></trkpt><trkpt lat="44.5910483" lon="8.8612083"><ele>450.0</ele><time>2026-04-28T08:36:21.312Z</time></trkpt><trkpt lat="44.5908833" lon="8.86123"><ele>450.0</ele><time>2026-04-28T08:36:22.312Z</time></trkpt><trkpt lat="44.5907267" lon="8.8612617"><ele>450.0</ele><time>2026-04-28T08:36:23.312Z</time></trkpt><trkpt lat="44.5905733" lon="8.8612733"><ele>450.0</ele><time>2026-04-28T08:36:24.312Z</time></trkpt><trkpt lat="44.5904367" lon="8.861265"><ele>450.0</ele><time>2026-04-28T08:36:25.312Z</time></trkpt><trkpt lat="44.5902817" lon="8.8612017"><ele>450.0</ele><time>2026-04-28T08:36:26.312Z</time></trkpt><trkpt lat="44.5901133" lon="8.86114"><ele>450.66666666666663</ele><time>2026-04-28T08:36:27.312Z</time></trkpt><trkpt lat="44.5899283" lon="8.8610933"><ele>451.3333333333333</ele><time>2026-04-28T08:36:28.312Z</time></trkpt><trkpt lat="44.5897433" lon="8.8610667"><ele>452.0</ele><time>2026-04-28T08:36:29.312Z</time></trkpt><trkpt lat="44.589565" lon="8.8610567"><ele>452.75</ele><time>2026-04-28T08:36:30.312Z</time></trkpt><trkpt lat="44.5894133" lon="8.8610433"><ele>453.5</ele><time>2026-04-28T08:36:31.312Z</time></trkpt><trkpt lat="44.58928" lon="8.86104"><ele>454.25</ele><time>2026-04-28T08:36:32.312Z</time></trkpt><trkpt lat="44.5891517" lon="8.861065"><ele>455.0</ele><time>2026-04-28T08:36:33.312Z</time></trkpt><trkpt lat="44.5890317" lon="8.8611"><ele>455.0</ele><time>2026-04-28T08:36:34.312Z</time></trkpt><trkpt lat="44.5889317" lon="8.8611633"><ele>455.0</ele><time>2026-04-28T08:36:35.312Z</time></trkpt><trkpt lat="44.58885" lon="8.86124"><ele>455.0</ele><time>2026-04-28T08:36:36.312Z</time></trkpt><trkpt lat="44.5887833" lon="8.86138"><ele>455.0</ele><time>2026-04-28T08:36:37.312Z</time></trkpt><trkpt lat="44.5887183" lon="8.8615217"><ele>455.0</ele><time>2026-04-28T08:36:38.312Z</time></trkpt><trkpt lat="44.588665" lon="8.86167"><ele>455.2</ele><time>2026-04-28T08:36:39.312Z</time></trkpt><trkpt lat="44.58864" lon="8.861815"><ele>455.4</ele><time>2026-04-28T08:36:40.312Z</time></trkpt><trkpt lat="44.5886617" lon="8.861955"><ele>455.6</ele><time>2026-04-28T08:36:41.312Z</time></trkpt><trkpt lat="44.5887133" lon="8.8620817"><ele>455.8</ele><time>2026-04-28T08:36:42.312Z</time></trkpt><trkpt lat="44.58879" lon="8.8622"><ele>456.0</ele><time>2026-04-28T08:36:43.312Z</time></trkpt><trkpt lat="44.5888717" lon="8.8623183"><ele>456.0</ele><time>2026-04-28T08:36:44.312Z</time></trkpt><trkpt lat="44.588925" lon="8.8624467"><ele>456.0</ele><time>2026-04-28T08:36:45.312Z</time></trkpt><trkpt lat="44.5889533" lon="8.8625717"><ele>456.0</ele><time>2026-04-28T08:36:46.312Z</time></trkpt><trkpt lat="44.588955" lon="8.862695"><ele>456.0</ele><time>2026-04-28T08:36:47.312Z</time></trkpt><trkpt lat="44.58891" lon="8.8628317"><ele>456.0</ele><time>2026-04-28T08:36:48.312Z</time></trkpt><trkpt lat="44.58885" lon="8.8629917"><ele>457.0</ele><time>2026-04-28T08:36:49.312Z</time></trkpt><trkpt lat="44.588765" lon="8.86319"><ele>458.0</ele><time>2026-04-28T08:36:50.312Z</time></trkpt><trkpt lat="44.58868" lon="8.8634067"><ele>459.0</ele><time>2026-04-28T08:36:51.312Z</time></trkpt><trkpt lat="44.5886017" lon="8.8636133"><ele>459.66666666666663</ele><time>2026-04-28T08:36:52.312Z</time></trkpt><trkpt lat="44.5885467" lon="8.8638267"><ele>460.3333333333333</ele><time>2026-04-28T08:36:53.312Z</time></trkpt><trkpt lat="44.5885017" lon="8.86407"><ele>461.0</ele><time>2026-04-28T08:36:54.312Z</time></trkpt><trkpt lat="44.5884767" lon="8.8643017"><ele>461.0</ele><time>2026-04-28T08:36:55.312Z</time></trkpt><trkpt lat="44.58845" lon="8.8645183"><ele>461.0</ele><time>2026-04-28T08:36:56.312Z</time></trkpt><trkpt lat="44.5884" lon="8.8647067"><ele>461.0</ele><time>2026-04-28T08:36:57.312Z</time></trkpt><trkpt lat="44.58834" lon="8.86487"><ele>461.0</ele><time>2026-04-28T08:36:58.312Z</time></trkpt><trkpt lat="44.58826" lon="8.86501"><ele>460.75</ele><time>2026-04-28T08:36:59.312Z</time></trkpt><trkpt lat="44.5881617" lon="8.8651167"><ele>460.5</ele><time>2026-04-28T08:37:00.312Z</time></trkpt><trkpt lat="44.5880617" lon="8.86519"><ele>460.25</ele><time>2026-04-28T08:37:01.312Z</time></trkpt><trkpt lat="44.5879333" lon="8.8652417"><ele>460.0</ele><time>2026-04-28T08:37:02.312Z</time></trkpt><trkpt lat="44.5877867" lon="8.8652783"><ele>460.0</ele><time>2026-04-28T08:37:03.312Z</time></trkpt><trkpt lat="44.5876217" lon="8.8653067"><ele>460.0</ele><time>2026-04-28T08:37:04.312Z</time></trkpt><trkpt lat="44.58745" lon="8.8653533"><ele>460.0</ele><time>2026-04-28T08:37:05.312Z</time></trkpt><trkpt lat="44.5872783" lon="8.8654133"><ele>460.0</ele><time>2026-04-28T08:37:06.312Z</time></trkpt><trkpt lat="44.587135" lon="8.8654967"><ele>460.0</ele><time>2026-04-28T08:37:07.312Z</time></trkpt><trkpt lat="44.5870133" lon="8.86556"><ele>460.0</ele><time>2026-04-28T08:37:08.312Z</time></trkpt><trkpt lat="44.5869183" lon="8.8656"><ele>460.0</ele><time>2026-04-28T08:37:09.312Z</time></trkpt><trkpt lat="44.586845" lon="8.8656033"><ele>460.6</ele><time>2026-04-28T08:37:10.312Z</time></trkpt><trkpt lat="44.5867683" lon="8.8655683"><ele>461.2</ele><time>2026-04-28T08:37:11.312Z</time></trkpt><trkpt lat="44.5866733" lon="8.8655217"><ele>461.79999999999995</ele><time>2026-04-28T08:37:12.312Z</time></trkpt><trkpt lat="44.586565" lon="8.8654617"><ele>462.4</ele><time>2026-04-28T08:37:13.312Z</time></trkpt><trkpt lat="44.5864383" lon="8.8654283"><ele>463.0</ele><time>2026-04-28T08:37:14.312Z</time></trkpt><trkpt lat="44.58632" lon="8.8654317"><ele>463.0</ele><time>2026-04-28T08:37:15.312Z</time></trkpt><trkpt lat="44.586205" lon="8.865455"><ele>462.99999999999994</ele><time>2026-04-28T08:37:16.312Z</time></trkpt><trkpt lat="44.5861033" lon="8.8654867"><ele>462.99999999999994</ele><time>2026-04-28T08:37:17.312Z</time></trkpt><trkpt lat="44.5860183" lon="8.8655533"><ele>463.0</ele><time>2026-04-28T08:37:18.312Z</time></trkpt><trkpt lat="44.5859583" lon="8.8656517"><ele>463.0</ele><time>2026-04-28T08:37:19.311Z</time></trkpt><trkpt lat="44.5859183" lon="8.8657767"><ele>463.5</ele><time>2026-04-28T08:37:20.312Z</time></trkpt><trkpt lat="44.58589" lon="8.865945"><ele>464.0</ele><time>2026-04-28T08:37:21.312Z</time></trkpt><trkpt lat="44.58589" lon="8.8661533"><ele>464.5</ele><time>2026-04-28T08:37:22.312Z</time></trkpt><trkpt lat="44.5858983" lon="8.866355"><ele>465.0</ele><time>2026-04-28T08:37:23.312Z</time></trkpt><trkpt lat="44.5859183" lon="8.8665533"><ele>466.75</ele><time>2026-04-28T08:37:24.312Z</time></trkpt><trkpt lat="44.5859283" lon="8.8667133"><ele>468.5</ele><time>2026-04-28T08:37:25.312Z</time></trkpt><trkpt lat="44.5859117" lon="8.866855"><ele>470.25</ele><time>2026-04-28T08:37:26.312Z</time></trkpt><trkpt lat="44.5858633" lon="8.8670017"><ele>472.0</ele><time>2026-04-28T08:37:27.312Z</time></trkpt><trkpt lat="44.5857633" lon="8.8671717"><ele>474.0</ele><time>2026-04-28T08:37:28.312Z</time></trkpt><trkpt lat="44.5856567" lon="8.8673267"><ele>476.0</ele><time>2026-04-28T08:37:29.312Z</time></trkpt><trkpt lat="44.5855533" lon="8.8674733"><ele>478.0</ele><time>2026-04-28T08:37:30.312Z</time></trkpt><trkpt lat="44.5854567" lon="8.8676033"><ele>480.0</ele><time>2026-04-28T08:37:31.312Z</time></trkpt><trkpt lat="44.585375" lon="8.8677283"><ele>479.5</ele><time>2026-04-28T08:37:32.312Z</time></trkpt><trkpt lat="44.5852883" lon="8.8678433"><ele>479.0</ele><time>2026-04-28T08:37:33.312Z</time></trkpt><trkpt lat="44.5852033" lon="8.8679683"><ele>478.5</ele><time>2026-04-28T08:37:34.312Z</time></trkpt><trkpt lat="44.5851183" lon="8.8680733"><ele>478.0</ele><time>2026-04-28T08:37:35.312Z</time></trkpt><trkpt lat="44.5850267" lon="8.8681967"><ele>478.0</ele><time>2026-04-28T08:37:36.312Z</time></trkpt><trkpt lat="44.5849167" lon="8.868315"><ele>478.0</ele><time>2026-04-28T08:37:37.312Z</time></trkpt><trkpt lat="44.5847917" lon="8.8684367"><ele>478.0</ele><time>2026-04-28T08:37:38.311Z</time></trkpt><trkpt lat="44.5846483" lon="8.86857"><ele>478.6666666666667</ele><time>2026-04-28T08:37:39.312Z</time></trkpt><trkpt lat="44.5844917" lon="8.86871"><ele>479.33333333333337</ele><time>2026-04-28T08:37:40.312Z</time></trkpt><trkpt lat="44.584355" lon="8.8688367"><ele>480.0</ele><time>2026-04-28T08:37:41.312Z</time></trkpt><trkpt lat="44.5842267" lon="8.86894"><ele>480.0</ele><time>2026-04-28T08:37:42.312Z</time></trkpt><trkpt lat="44.5841117" lon="8.8690483"><ele>480.0</ele><time>2026-04-28T08:37:43.312Z</time></trkpt><trkpt lat="44.5839883" lon="8.8691683"><ele>480.0</ele><time>2026-04-28T08:37:44.312Z</time></trkpt><trkpt lat="44.5838617" lon="8.86932"><ele>482.33333333333337</ele><time>2026-04-28T08:37:45.312Z</time></trkpt><trkpt lat="44.5837417" lon="8.8694933"><ele>484.6666666666667</ele><time>2026-04-28T08:37:46.312Z</time></trkpt><trkpt lat="44.58362" lon="8.869655"><ele>487.0</ele><time>2026-04-28T08:37:47.312Z</time></trkpt><trkpt lat="44.583505" lon="8.8698117"><ele>487.0</ele><time>2026-04-28T08:37:48.312Z</time></trkpt><trkpt lat="44.5833983" lon="8.869935"><ele>487.0</ele><time>2026-04-28T08:37:49.312Z</time></trkpt><trkpt lat="44.5832917" lon="8.8700483"><ele>487.0</ele><time>2026-04-28T08:37:50.312Z</time></trkpt><trkpt lat="44.58318" lon="8.8701683"><ele>487.0</ele><time>2026-04-28T08:37:51.312Z</time></trkpt><trkpt lat="44.5830567" lon="8.87027"><ele>489.0</ele><time>2026-04-28T08:37:52.312Z</time></trkpt><trkpt lat="44.5829383" lon="8.870375"><ele>491.0</ele><time>2026-04-28T08:37:53.311Z</time></trkpt><trkpt lat="44.5828117" lon="8.8704667"><ele>493.0</ele><time>2026-04-28T08:37:54.312Z</time></trkpt><trkpt lat="44.58267" lon="8.8705217"><ele>495.0</ele><time>2026-04-28T08:37:55.312Z</time></trkpt><trkpt lat="44.582545" lon="8.87057"><ele>495.0</ele><time>2026-04-28T08:37:56.312Z</time></trkpt><trkpt lat="44.582425" lon="8.870615"><ele>495.0</ele><time>2026-04-28T08:37:57.311Z</time></trkpt><trkpt lat="44.582325" lon="8.87066"><ele>495.0</ele><time>2026-04-28T08:37:58.312Z</time></trkpt><trkpt lat="44.5822417" lon="8.8707183"><ele>495.0</ele><time>2026-04-28T08:37:59.312Z</time></trkpt><trkpt lat="44.5821617" lon="8.8708267"><ele>495.0</ele><time>2026-04-28T08:38:00.312Z</time></trkpt><trkpt lat="44.58207" lon="8.8709717"><ele>498.66666666666663</ele><time>2026-04-28T08:38:01.312Z</time></trkpt><trkpt lat="44.5819717" lon="8.8711183"><ele>502.3333333333333</ele><time>2026-04-28T08:38:02.312Z</time></trkpt><trkpt lat="44.5818517" lon="8.8712733"><ele>506.0</ele><time>2026-04-28T08:38:03.312Z</time></trkpt><trkpt lat="44.58171" lon="8.8714283"><ele>506.0</ele><time>2026-04-28T08:38:04.312Z</time></trkpt><trkpt lat="44.5815533" lon="8.871575"><ele>506.0</ele><time>2026-04-28T08:38:05.312Z</time></trkpt><trkpt lat="44.581415" lon="8.8717033"><ele>506.0</ele><time>2026-04-28T08:38:06.312Z</time></trkpt><trkpt lat="44.5812917" lon="8.8718117"><ele>506.25</ele><time>2026-04-28T08:38:07.312Z</time></trkpt><trkpt lat="44.5811717" lon="8.8719067"><ele>506.5</ele><time>2026-04-28T08:38:08.312Z</time></trkpt><trkpt lat="44.581075" lon="8.872005"><ele>506.75</ele><time>2026-04-28T08:38:09.312Z</time></trkpt><trkpt lat="44.5809917" lon="8.8721183"><ele>507.0</ele><time>2026-04-28T08:38:10.311Z</time></trkpt><trkpt lat="44.58092" lon="8.872265"><ele>507.0</ele><time>2026-04-28T08:38:11.312Z</time></trkpt><trkpt lat="44.5808533" lon="8.8724367"><ele>507.0</ele><time>2026-04-28T08:38:12.312Z</time></trkpt><trkpt lat="44.5807767" lon="8.872625"><ele>507.0</ele><time>2026-04-28T08:38:13.312Z</time></trkpt><trkpt lat="44.5807" lon="8.8728217"><ele>513.0</ele><time>2026-04-28T08:38:14.311Z</time></trkpt><trkpt lat="44.5806317" lon="8.87301"><ele>519.0</ele><time>2026-04-28T08:38:15.312Z</time></trkpt><trkpt lat="44.58055" lon="8.8731683"><ele>525.0</ele><time>2026-04-28T08:38:16.311Z</time></trkpt><trkpt lat="44.5804583" lon="8.873305"><ele>531.0</ele><time>2026-04-28T08:38:17.312Z</time></trkpt><trkpt lat="44.58035" lon="8.8734167"><ele>530.6666666666666</ele><time>2026-04-28T08:38:18.312Z</time></trkpt><trkpt lat="44.5802367" lon="8.8735233"><ele>530.3333333333333</ele><time>2026-04-28T08:38:19.311Z</time></trkpt><trkpt lat="44.5801" lon="8.8736417"><ele>530.0</ele><time>2026-04-28T08:38:20.312Z</time></trkpt><trkpt lat="44.5799517" lon="8.8737367"><ele>530.0</ele><time>2026-04-28T08:38:21.312Z</time></trkpt><trkpt lat="44.5798167" lon="8.873825"><ele>530.0</ele><time>2026-04-28T08:38:22.312Z</time></trkpt><trkpt lat="44.5796917" lon="8.8739"><ele>530.0</ele><time>2026-04-28T08:38:23.312Z</time></trkpt><trkpt lat="44.5795667" lon="8.8739683"><ele>530.0</ele><time>2026-04-28T08:38:24.312Z</time></trkpt><trkpt lat="44.579455" lon="8.8740483"><ele>530.5</ele><time>2026-04-28T08:38:25.312Z</time></trkpt><trkpt lat="44.5793433" lon="8.8741133"><ele>531.0</ele><time>2026-04-28T08:38:26.312Z</time></trkpt><trkpt lat="44.579235" lon="8.87419"><ele>531.5</ele><time>2026-04-28T08:38:27.312Z</time></trkpt><trkpt lat="44.5791283" lon="8.874325"><ele>532.0</ele><time>2026-04-28T08:38:28.312Z</time></trkpt><trkpt lat="44.5790067" lon="8.8744833"><ele>532.0</ele><time>2026-04-28T08:38:29.312Z</time></trkpt><trkpt lat="44.5788983" lon="8.8746417"><ele>532.0</ele><time>2026-04-28T08:38:30.312Z</time></trkpt><trkpt lat="44.5788033" lon="8.8747817"><ele>532.0</ele><time>2026-04-28T08:38:31.312Z</time></trkpt><trkpt lat="44.5787117" lon="8.874875"><ele>532.0</ele><time>2026-04-28T08:38:32.312Z</time></trkpt><trkpt lat="44.5786167" lon="8.8749433"><ele>533.6</ele><time>2026-04-28T08:38:33.312Z</time></trkpt><trkpt lat="44.5785117" lon="8.8749883"><ele>535.2</ele><time>2026-04-28T08:38:34.312Z</time></trkpt><trkpt lat="44.5784033" lon="8.8750133"><ele>536.8</ele><time>2026-04-28T08:38:35.312Z</time></trkpt><trkpt lat="44.5783017" lon="8.8750183"><ele>538.4</ele><time>2026-04-28T08:38:36.312Z</time></trkpt><trkpt lat="44.5782033" lon="8.87505"><ele>540.0</ele><time>2026-04-28T08:38:37.312Z</time></trkpt><trkpt lat="44.5781333" lon="8.87511"><ele>540.0</ele><time>2026-04-28T08:38:38.312Z</time></trkpt><trkpt lat="44.5780567" lon="8.8752"><ele>540.0</ele><time>2026-04-28T08:38:39.312Z</time></trkpt><trkpt lat="44.5780017" lon="8.8753083"><ele>540.0</ele><time>2026-04-28T08:38:40.312Z</time></trkpt><trkpt lat="44.57798" lon="8.8754333"><ele>540.0</ele><time>2026-04-28T08:38:41.312Z</time></trkpt><trkpt lat="44.577975" lon="8.875585"><ele>540.0</ele><time>2026-04-28T08:38:42.312Z</time></trkpt><trkpt lat="44.5779617" lon="8.87575"><ele>540.0</ele><time>2026-04-28T08:38:43.312Z</time></trkpt><trkpt lat="44.5779333" lon="8.8759367"><ele>540.0</ele><time>2026-04-28T08:38:44.312Z</time></trkpt><trkpt lat="44.5778917" lon="8.876135"><ele>540.0</ele><time>2026-04-28T08:38:45.312Z</time></trkpt><trkpt lat="44.577825" lon="8.87634"><ele>540.0</ele><time>2026-04-28T08:38:46.312Z</time></trkpt><trkpt lat="44.5777633" lon="8.8765267"><ele>539.0</ele><time>2026-04-28T08:38:47.311Z</time></trkpt><trkpt lat="44.5776917" lon="8.8767033"><ele>538.0</ele><time>2026-04-28T08:38:48.312Z</time></trkpt><trkpt lat="44.57763" lon="8.8768567"><ele>537.0</ele><time>2026-04-28T08:38:49.312Z</time></trkpt><trkpt lat="44.57759" lon="8.877"><ele>536.0</ele><time>2026-04-28T08:38:50.312Z</time></trkpt><trkpt lat="44.5775617" lon="8.8771567"><ele>536.0</ele><time>2026-04-28T08:38:51.312Z</time></trkpt><trkpt lat="44.5775433" lon="8.8773383"><ele>536.0</ele><time>2026-04-28T08:38:52.312Z</time></trkpt><trkpt lat="44.5775383" lon="8.8775383"><ele>536.0</ele><time>2026-04-28T08:38:53.312Z</time></trkpt><trkpt lat="44.57754" lon="8.877735"><ele>536.0</ele><time>2026-04-28T08:38:54.312Z</time></trkpt><trkpt lat="44.5775533" lon="8.877915"><ele>537.0</ele><time>2026-04-28T08:38:55.312Z</time></trkpt><trkpt lat="44.577575" lon="8.8780933"><ele>538.0</ele><time>2026-04-28T08:38:56.312Z</time></trkpt><trkpt lat="44.577585" lon="8.87824"><ele>539.0</ele><time>2026-04-28T08:38:57.311Z</time></trkpt><trkpt lat="44.5775683" lon="8.8783533"><ele>540.0</ele><time>2026-04-28T08:38:58.312Z</time></trkpt><trkpt lat="44.5775167" lon="8.87847"><ele>541.0</ele><time>2026-04-28T08:38:59.312Z</time></trkpt><trkpt lat="44.5774483" lon="8.8785833"><ele>541.0</ele><time>2026-04-28T08:39:00.311Z</time></trkpt><trkpt lat="44.577355" lon="8.8786983"><ele>541.0</ele><time>2026-04-28T08:39:01.312Z</time></trkpt><trkpt lat="44.5772117" lon="8.878795"><ele>541.0</ele><time>2026-04-28T08:39:02.312Z</time></trkpt><trkpt lat="44.57708" lon="8.87889"><ele>541.0</ele><time>2026-04-28T08:39:03.312Z</time></trkpt><trkpt lat="44.576955" lon="8.8789833"><ele>541.0</ele><time>2026-04-28T08:39:04.312Z</time></trkpt><trkpt lat="44.5768417" lon="8.8790933"><ele>541.0</ele><time>2026-04-28T08:39:05.312Z</time></trkpt><trkpt lat="44.5767217" lon="8.8792383"><ele>541.0</ele><time>2026-04-28T08:39:06.311Z</time></trkpt><trkpt lat="44.57661" lon="8.8794083"><ele>543.0</ele><time>2026-04-28T08:39:07.312Z</time></trkpt><trkpt lat="44.5764717" lon="8.879565"><ele>545.0</ele><time>2026-04-28T08:39:08.312Z</time></trkpt><trkpt lat="44.5763283" lon="8.87971"><ele>547.0</ele><time>2026-04-28T08:39:09.312Z</time></trkpt><trkpt lat="44.5761717" lon="8.8798383"><ele>547.0</ele><time>2026-04-28T08:39:10.311Z</time></trkpt><trkpt lat="44.576045" lon="8.87994"><ele>547.0</ele><time>2026-04-28T08:39:11.312Z</time></trkpt><trkpt lat="44.5759333" lon="8.88001"><ele>547.0</ele><time>2026-04-28T08:39:12.312Z</time></trkpt><trkpt lat="44.5758167" lon="8.8800567"><ele>547.0</ele><time>2026-04-28T08:39:13.312Z</time></trkpt><trkpt lat="44.57569" lon="8.8801217"><ele>548.5</ele><time>2026-04-28T08:39:14.311Z</time></trkpt><trkpt lat="44.5755583" lon="8.8802267"><ele>550.0</ele><time>2026-04-28T08:39:15.312Z</time></trkpt><trkpt lat="44.57545" lon="8.8803483"><ele>551.5</ele><time>2026-04-28T08:39:16.312Z</time></trkpt><trkpt lat="44.5753667" lon="8.8804883"><ele>553.0</ele><time>2026-04-28T08:39:17.312Z</time></trkpt><trkpt lat="44.5753067" lon="8.88066"><ele>553.0</ele><time>2026-04-28T08:39:18.312Z</time></trkpt><trkpt lat="44.5752467" lon="8.8808183"><ele>553.0</ele><time>2026-04-28T08:39:19.311Z</time></trkpt><trkpt lat="44.5751783" lon="8.8809583"><ele>553.0</ele><time>2026-04-28T08:39:20.312Z</time></trkpt><trkpt lat="44.5751017" lon="8.8810583"><ele>553.0</ele><time>2026-04-28T08:39:21.312Z</time></trkpt><trkpt lat="44.575" lon="8.8811267"><ele>555.75</ele><time>2026-04-28T08:39:22.312Z</time></trkpt><trkpt lat="44.57487" lon="8.8811433"><ele>558.5</ele><time>2026-04-28T08:39:23.312Z</time></trkpt><trkpt lat="44.5747333" lon="8.881165"><ele>561.25</ele><time>2026-04-28T08:39:24.312Z</time></trkpt><trkpt lat="44.5745817" lon="8.88116"><ele>564.0</ele><time>2026-04-28T08:39:25.312Z</time></trkpt><trkpt lat="44.5744433" lon="8.88117"><ele>564.0</ele><time>2026-04-28T08:39:26.312Z</time></trkpt><trkpt lat="44.5743133" lon="8.88121"><ele>564.0</ele><time>2026-04-28T08:39:27.312Z</time></trkpt><trkpt lat="44.5741617" lon="8.8812883"><ele>564.0</ele><time>2026-04-28T08:39:28.312Z</time></trkpt><trkpt lat="44.5740167" lon="8.88138"><ele>564.0</ele><time>2026-04-28T08:39:29.312Z</time></trkpt><trkpt lat="44.573895" lon="8.88147"><ele>564.0</ele><time>2026-04-28T08:39:30.312Z</time></trkpt><trkpt lat="44.5737883" lon="8.8815533"><ele>564.0</ele><time>2026-04-28T08:39:31.312Z</time></trkpt><trkpt lat="44.573695" lon="8.8816583"><ele>564.0</ele><time>2026-04-28T08:39:32.312Z</time></trkpt><trkpt lat="44.5736" lon="8.881775"><ele>565.6666666666666</ele><time>2026-04-28T08:39:33.311Z</time></trkpt><trkpt lat="44.57349" lon="8.88192"><ele>567.3333333333333</ele><time>2026-04-28T08:39:34.312Z</time></trkpt><trkpt lat="44.5733617" lon="8.8820667"><ele>569.0</ele><time>2026-04-28T08:39:35.312Z</time></trkpt><trkpt lat="44.5732317" lon="8.8821883"><ele>569.0</ele><time>2026-04-28T08:39:36.312Z</time></trkpt><trkpt lat="44.5731183" lon="8.8823033"><ele>569.0</ele><time>2026-04-28T08:39:37.311Z</time></trkpt><trkpt lat="44.5730083" lon="8.88243"><ele>569.0</ele><time>2026-04-28T08:39:38.312Z</time></trkpt><trkpt lat="44.572915" lon="8.88257"><ele>569.0</ele><time>2026-04-28T08:39:39.311Z</time></trkpt><trkpt lat="44.572845" lon="8.8827117"><ele>570.75</ele><time>2026-04-28T08:39:40.312Z</time></trkpt><trkpt lat="44.5728033" lon="8.8828817"><ele>572.5</ele><time>2026-04-28T08:39:41.312Z</time></trkpt><trkpt lat="44.5727783" lon="8.8830683"><ele>574.25</ele><time>2026-04-28T08:39:42.312Z</time></trkpt><trkpt lat="44.5727467" lon="8.8832367"><ele>576.0</ele><time>2026-04-28T08:39:43.311Z</time></trkpt><trkpt lat="44.5727133" lon="8.88337"><ele>579.0</ele><time>2026-04-28T08:39:44.312Z</time></trkpt><trkpt lat="44.57267" lon="8.8834817"><ele>582.0</ele><time>2026-04-28T08:39:45.312Z</time></trkpt><trkpt lat="44.5726033" lon="8.8835217"><ele>585.0</ele><time>2026-04-28T08:39:46.312Z</time></trkpt><trkpt lat="44.57251" lon="8.88355"><ele>588.0</ele><time>2026-04-28T08:39:47.312Z</time></trkpt><trkpt lat="44.57241" lon="8.8835533"><ele>591.0</ele><time>2026-04-28T08:39:48.312Z</time></trkpt><trkpt lat="44.5723117" lon="8.8835433"><ele>591.0</ele><time>2026-04-28T08:39:49.312Z</time></trkpt><trkpt lat="44.572205" lon="8.8835567"><ele>591.0</ele><time>2026-04-28T08:39:50.312Z</time></trkpt><trkpt lat="44.5721083" lon="8.88364"><ele>591.0</ele><time>2026-04-28T08:39:51.312Z</time></trkpt><trkpt lat="44.5720283" lon="8.8837817"><ele>591.0</ele><time>2026-04-28T08:39:52.312Z</time></trkpt><trkpt lat="44.5719383" lon="8.883965"><ele>590.75</ele><time>2026-04-28T08:39:53.312Z</time></trkpt><trkpt lat="44.57186" lon="8.8841583"><ele>590.5</ele><time>2026-04-28T08:39:54.312Z</time></trkpt><trkpt lat="44.5717767" lon="8.8843167"><ele>590.25</ele><time>2026-04-28T08:39:55.312Z</time></trkpt><trkpt lat="44.57168" lon="8.8844517"><ele>590.0</ele><time>2026-04-28T08:39:56.311Z</time></trkpt><trkpt lat="44.5715933" lon="8.884545"><ele>591.25</ele><time>2026-04-28T08:39:57.312Z</time></trkpt><trkpt lat="44.5714883" lon="8.8846233"><ele>592.5</ele><time>2026-04-28T08:39:58.312Z</time></trkpt><trkpt lat="44.571375" lon="8.88467"><ele>593.75</ele><time>2026-04-28T08:39:59.312Z</time></trkpt><trkpt lat="44.571255" lon="8.8846767"><ele>595.0</ele><time>2026-04-28T08:40:00.312Z</time></trkpt><trkpt lat="44.5711483" lon="8.884615"><ele>595.75</ele><time>2026-04-28T08:40:01.312Z</time></trkpt><trkpt lat="44.5710367" lon="8.88454"><ele>596.5</ele><time>2026-04-28T08:40:02.312Z</time></trkpt><trkpt lat="44.5709383" lon="8.884485"><ele>597.25</ele><time>2026-04-28T08:40:03.312Z</time></trkpt><trkpt lat="44.5708133" lon="8.8844567"><ele>598.0</ele><time>2026-04-28T08:40:04.312Z</time></trkpt><trkpt lat="44.5706917" lon="8.8845"><ele>598.0</ele><time>2026-04-28T08:40:05.311Z</time></trkpt><trkpt lat="44.5705683" lon="8.8845667"><ele>598.0</ele><time>2026-04-28T08:40:06.312Z</time></trkpt><trkpt lat="44.57044" lon="8.8846883"><ele>598.0</ele><time>2026-04-28T08:40:07.312Z</time></trkpt><trkpt lat="44.57033" lon="8.8848367"><ele>598.0</ele><time>2026-04-28T08:40:08.312Z</time></trkpt><trkpt lat="44.5702233" lon="8.8850033"><ele>600.5</ele><time>2026-04-28T08:40:09.312Z</time></trkpt><trkpt lat="44.5701083" lon="8.8851433"><ele>603.0</ele><time>2026-04-28T08:40:10.312Z</time></trkpt><trkpt lat="44.5699883" lon="8.88526"><ele>605.5</ele><time>2026-04-28T08:40:11.312Z</time></trkpt><trkpt lat="44.5698717" lon="8.885375"><ele>608.0</ele><time>2026-04-28T08:40:12.312Z</time></trkpt><trkpt lat="44.569755" lon="8.8855283"><ele>608.0</ele><time>2026-04-28T08:40:13.312Z</time></trkpt><trkpt lat="44.5696433" lon="8.8857083"><ele>608.0</ele><time>2026-04-28T08:40:14.312Z</time></trkpt><trkpt lat="44.5695517" lon="8.8858717"><ele>608.0</ele><time>2026-04-28T08:40:15.312Z</time></trkpt><trkpt lat="44.5694433" lon="8.8859967"><ele>609.25</ele><time>2026-04-28T08:40:16.312Z</time></trkpt><trkpt lat="44.5693267" lon="8.8860933"><ele>610.5</ele><time>2026-04-28T08:40:17.312Z</time></trkpt><trkpt lat="44.5691917" lon="8.886155"><ele>611.75</ele><time>2026-04-28T08:40:18.312Z</time></trkpt><trkpt lat="44.5690617" lon="8.88621"><ele>613.0</ele><time>2026-04-28T08:40:19.312Z</time></trkpt><trkpt lat="44.5689217" lon="8.886285"><ele>613.0</ele><time>2026-04-28T08:40:20.312Z</time></trkpt><trkpt lat="44.56878" lon="8.8864117"><ele>613.0</ele><time>2026-04-28T08:40:21.312Z</time></trkpt><trkpt lat="44.568655" lon="8.8865517"><ele>613.0</ele><time>2026-04-28T08:40:22.312Z</time></trkpt><trkpt lat="44.5685383" lon="8.8866683"><ele>613.75</ele><time>2026-04-28T08:40:23.312Z</time></trkpt><trkpt lat="44.56843" lon="8.88676"><ele>614.5</ele><time>2026-04-28T08:40:24.312Z</time></trkpt><trkpt lat="44.56831" lon="8.88683"><ele>615.25</ele><time>2026-04-28T08:40:25.312Z</time></trkpt><trkpt lat="44.5681933" lon="8.8868733"><ele>616.0</ele><time>2026-04-28T08:40:26.312Z</time></trkpt><trkpt lat="44.5680633" lon="8.8869167"><ele>616.5</ele><time>2026-04-28T08:40:27.312Z</time></trkpt><trkpt lat="44.56793" lon="8.8869483"><ele>617.0</ele><time>2026-04-28T08:40:28.312Z</time></trkpt><trkpt lat="44.5677983" lon="8.8870117"><ele>617.5</ele><time>2026-04-28T08:40:29.312Z</time></trkpt><trkpt lat="44.5676633" lon="8.8871033"><ele>618.0</ele><time>2026-04-28T08:40:30.312Z</time></trkpt><trkpt lat="44.5675317" lon="8.887235"><ele>618.0</ele><time>2026-04-28T08:40:31.312Z</time></trkpt><trkpt lat="44.5674183" lon="8.8873483"><ele>618.0</ele><time>2026-04-28T08:40:32.311Z</time></trkpt><trkpt lat="44.567305" lon="8.8874367"><ele>618.0</ele><time>2026-04-28T08:40:33.312Z</time></trkpt><trkpt lat="44.567195" lon="8.8874933"><ele>618.0</ele><time>2026-04-28T08:40:34.312Z</time></trkpt><trkpt lat="44.5670783" lon="8.8875083"><ele>620.0</ele><time>2026-04-28T08:40:35.312Z</time></trkpt><trkpt lat="44.5669583" lon="8.8874583"><ele>622.0</ele><time>2026-04-28T08:40:36.312Z</time></trkpt><trkpt lat="44.5668167" lon="8.8874267"><ele>624.0</ele><time>2026-04-28T08:40:37.311Z</time></trkpt><trkpt lat="44.566665" lon="8.8873833"><ele>626.0</ele><time>2026-04-28T08:40:38.312Z</time></trkpt><trkpt lat="44.5665" lon="8.8873667"><ele>626.0</ele><time>2026-04-28T08:40:39.312Z</time></trkpt><trkpt lat="44.5663667" lon="8.8873417"><ele>626.0</ele><time>2026-04-28T08:40:40.312Z</time></trkpt><trkpt lat="44.5662317" lon="8.887325"><ele>626.0</ele><time>2026-04-28T08:40:41.312Z</time></trkpt><trkpt lat="44.5660933" lon="8.8873333"><ele>626.0</ele><time>2026-04-28T08:40:42.312Z</time></trkpt><trkpt lat="44.5659467" lon="8.8873567"><ele>629.0</ele><time>2026-04-28T08:40:43.312Z</time></trkpt><trkpt lat="44.5657917" lon="8.88738"><ele>632.0</ele><time>2026-04-28T08:40:44.312Z</time></trkpt><trkpt lat="44.5656433" lon="8.8873767"><ele>635.0</ele><time>2026-04-28T08:40:45.312Z</time></trkpt><trkpt lat="44.5654967" lon="8.8873517"><ele>636.75</ele><time>2026-04-28T08:40:46.312Z</time></trkpt><trkpt lat="44.565355" lon="8.8873333"><ele>638.5</ele><time>2026-04-28T08:40:47.312Z</time></trkpt><trkpt lat="44.5652183" lon="8.8873133"><ele>640.25</ele><time>2026-04-28T08:40:48.312Z</time></trkpt><trkpt lat="44.5650867" lon="8.8872833"><ele>642.0</ele><time>2026-04-28T08:40:49.312Z</time></trkpt><trkpt lat="44.5649483" lon="8.887245"><ele>642.0</ele><time>2026-04-28T08:40:50.312Z</time></trkpt><trkpt lat="44.5648067" lon="8.88719"><ele>642.0</ele><time>2026-04-28T08:40:51.312Z</time></trkpt><trkpt lat="44.56467" lon="8.88713"><ele>642.0</ele><time>2026-04-28T08:40:52.312Z</time></trkpt><trkpt lat="44.5645333" lon="8.8870683"><ele>642.0</ele><time>2026-04-28T08:40:53.312Z</time></trkpt><trkpt lat="44.5643983" lon="8.8870233"><ele>642.25</ele><time>2026-04-28T08:40:54.312Z</time></trkpt><trkpt lat="44.5642717" lon="8.887025"><ele>642.5</ele><time>2026-04-28T08:40:55.312Z</time></trkpt><trkpt lat="44.5641533" lon="8.8870483"><ele>642.75</ele><time>2026-04-28T08:40:56.312Z</time></trkpt><trkpt lat="44.564045" lon="8.8870983"><ele>643.0</ele><time>2026-04-28T08:40:57.312Z</time></trkpt><trkpt lat="44.563905" lon="8.8872267"><ele>643.0</ele><time>2026-04-28T08:40:58.312Z</time></trkpt><trkpt lat="44.56376" lon="8.887355"><ele>643.0</ele><time>2026-04-28T08:40:59.312Z</time></trkpt><trkpt lat="44.563625" lon="8.887465"><ele>643.0</ele><time>2026-04-28T08:41:00.312Z</time></trkpt><trkpt lat="44.5635017" lon="8.8875467"><ele>647.0</ele><time>2026-04-28T08:41:01.312Z</time></trkpt><trkpt lat="44.5633883" lon="8.88761"><ele>651.0</ele><time>2026-04-28T08:41:02.312Z</time></trkpt><trkpt lat="44.5632617" lon="8.8876283"><ele>655.0</ele><time>2026-04-28T08:41:03.312Z</time></trkpt><trkpt lat="44.5631267" lon="8.8876217"><ele>659.0</ele><time>2026-04-28T08:41:04.312Z</time></trkpt><trkpt lat="44.5629967" lon="8.8876217"><ele>659.5</ele><time>2026-04-28T08:41:05.312Z</time></trkpt><trkpt lat="44.5628583" lon="8.8876683"><ele>660.0</ele><time>2026-04-28T08:41:06.312Z</time></trkpt><trkpt lat="44.5627133" lon="8.8877183"><ele>660.5</ele><time>2026-04-28T08:41:07.312Z</time></trkpt><trkpt lat="44.5625833" lon="8.88779"><ele>661.0</ele><time>2026-04-28T08:41:08.311Z</time></trkpt><trkpt lat="44.5624583" lon="8.8878483"><ele>661.0</ele><time>2026-04-28T08:41:09.311Z</time></trkpt><trkpt lat="44.5623233" lon="8.8878467"><ele>661.0</ele><time>2026-04-28T08:41:10.312Z</time></trkpt><trkpt lat="44.5621683" lon="8.887845"><ele>661.0</ele><time>2026-04-28T08:41:11.312Z</time></trkpt><trkpt lat="44.5620117" lon="8.8878433"><ele>661.0</ele><time>2026-04-28T08:41:12.312Z</time></trkpt><trkpt lat="44.5618283" lon="8.8878617"><ele>661.6666666666667</ele><time>2026-04-28T08:41:13.312Z</time></trkpt><trkpt lat="44.561635" lon="8.8878733"><ele>662.3333333333334</ele><time>2026-04-28T08:41:14.312Z</time></trkpt><trkpt lat="44.5614367" lon="8.8878933"><ele>663.0</ele><time>2026-04-28T08:41:15.312Z</time></trkpt><trkpt lat="44.5612533" lon="8.88791"><ele>661.3333333333334</ele><time>2026-04-28T08:41:16.312Z</time></trkpt><trkpt lat="44.5610833" lon="8.8879017"><ele>659.6666666666667</ele><time>2026-04-28T08:41:17.312Z</time></trkpt><trkpt lat="44.5609" lon="8.8878683"><ele>658.0</ele><time>2026-04-28T08:41:18.312Z</time></trkpt><trkpt lat="44.5607017" lon="8.8878333"><ele>658.0</ele><time>2026-04-28T08:41:19.312Z</time></trkpt><trkpt lat="44.5604767" lon="8.8878067"><ele>658.0</ele><time>2026-04-28T08:41:20.312Z</time></trkpt><trkpt lat="44.560275" lon="8.8877567"><ele>658.0</ele><time>2026-04-28T08:41:21.312Z</time></trkpt><trkpt lat="44.5600667" lon="8.8877667"><ele>660.0</ele><time>2026-04-28T08:41:22.312Z</time></trkpt><trkpt lat="44.5598967" lon="8.88778"><ele>662.0</ele><time>2026-04-28T08:41:23.312Z</time></trkpt><trkpt lat="44.5597567" lon="8.887775"><ele>664.0</ele><time>2026-04-28T08:41:24.312Z</time></trkpt><trkpt lat="44.559615" lon="8.887815"><ele>665.5</ele><time>2026-04-28T08:41:25.311Z</time></trkpt><trkpt lat="44.55948" lon="8.8878667"><ele>667.0</ele><time>2026-04-28T08:41:26.312Z</time></trkpt><trkpt lat="44.5593517" lon="8.88796"><ele>668.5</ele><time>2026-04-28T08:41:27.312Z</time></trkpt><trkpt lat="44.559235" lon="8.88807"><ele>670.0</ele><time>2026-04-28T08:41:28.311Z</time></trkpt><trkpt lat="44.5591417" lon="8.8881333"><ele>670.0</ele><time>2026-04-28T08:41:29.312Z</time></trkpt><trkpt lat="44.55904" lon="8.8881617"><ele>670.0</ele><time>2026-04-28T08:41:30.312Z</time></trkpt><trkpt lat="44.5589333" lon="8.8881383"><ele>670.0</ele><time>2026-04-28T08:41:31.312Z</time></trkpt><trkpt lat="44.5588283" lon="8.888085"><ele>670.0</ele><time>2026-04-28T08:41:32.312Z</time></trkpt><trkpt lat="44.5587383" lon="8.8879983"><ele>670.0</ele><time>2026-04-28T08:41:33.312Z</time></trkpt><trkpt lat="44.558665" lon="8.88788"><ele>670.6</ele><time>2026-04-28T08:41:34.312Z</time></trkpt><trkpt lat="44.558615" lon="8.8877283"><ele>671.2</ele><time>2026-04-28T08:41:35.312Z</time></trkpt><trkpt lat="44.5585817" lon="8.887575"><ele>671.8</ele><time>2026-04-28T08:41:36.311Z</time></trkpt><trkpt lat="44.5585617" lon="8.887435"><ele>672.4</ele><time>2026-04-28T08:41:37.312Z</time></trkpt><trkpt lat="44.55854" lon="8.887325"><ele>673.0</ele><time>2026-04-28T08:41:38.312Z</time></trkpt><trkpt lat="44.5585017" lon="8.8872317"><ele>674.6666666666667</ele><time>2026-04-28T08:41:39.312Z</time></trkpt><trkpt lat="44.558435" lon="8.8871767"><ele>676.3333333333334</ele><time>2026-04-28T08:41:40.312Z</time></trkpt><trkpt lat="44.55835" lon="8.8871467"><ele>678.0</ele><time>2026-04-28T08:41:41.312Z</time></trkpt><trkpt lat="44.5582633" lon="8.8871283"><ele>679.6666666666666</ele><time>2026-04-28T08:41:42.311Z</time></trkpt><trkpt lat="44.5581883" lon="8.8871033"><ele>681.3333333333333</ele><time>2026-04-28T08:41:43.312Z</time></trkpt><trkpt lat="44.5581233" lon="8.887075"><ele>683.0</ele><time>2026-04-28T08:41:44.312Z</time></trkpt><trkpt lat="44.55806" lon="8.887"><ele>683.0</ele><time>2026-04-28T08:41:45.312Z</time></trkpt><trkpt lat="44.5580067" lon="8.8868867"><ele>683.0</ele><time>2026-04-28T08:41:46.312Z</time></trkpt><trkpt lat="44.5579633" lon="8.88673"><ele>683.0</ele><time>2026-04-28T08:41:47.312Z</time></trkpt><trkpt lat="44.5579317" lon="8.886595"><ele>683.0</ele><time>2026-04-28T08:41:48.312Z</time></trkpt><trkpt lat="44.5578917" lon="8.8864717"><ele>683.0</ele><time>2026-04-28T08:41:49.312Z</time></trkpt><trkpt lat="44.557835" lon="8.88636"><ele>685.4</ele><time>2026-04-28T08:41:50.312Z</time></trkpt><trkpt lat="44.5577567" lon="8.88627"><ele>687.8</ele><time>2026-04-28T08:41:51.312Z</time></trkpt><trkpt lat="44.5576567" lon="8.8862117"><ele>690.2</ele><time>2026-04-28T08:41:52.312Z</time></trkpt><trkpt lat="44.5575517" lon="8.8861833"><ele>692.6</ele><time>2026-04-28T08:41:53.312Z</time></trkpt><trkpt lat="44.557465" lon="8.886165"><ele>695.0</ele><time>2026-04-28T08:41:54.312Z</time></trkpt><trkpt lat="44.557395" lon="8.8861717"><ele>695.0</ele><time>2026-04-28T08:41:55.312Z</time></trkpt><trkpt lat="44.5573217" lon="8.8862217"><ele>695.0</ele><time>2026-04-28T08:41:57.312Z</time></trkpt><trkpt lat="44.55733" lon="8.886345"><ele>695.0</ele><time>2026-04-28T08:41:59.311Z</time></trkpt><trkpt lat="44.55737" lon="8.886415"><ele>695.0</ele><time>2026-04-28T08:42:00.312Z</time></trkpt><trkpt lat="44.5574317" lon="8.88648"><ele>695.0</ele><time>2026-04-28T08:42:01.312Z</time></trkpt><trkpt lat="44.5575067" lon="8.8865567"><ele>695.0</ele><time>2026-04-28T08:42:02.312Z</time></trkpt><trkpt lat="44.5575833" lon="8.8866383"><ele>695.0</ele><time>2026-04-28T08:42:03.312Z</time></trkpt><trkpt lat="44.5576433" lon="8.8867283"><ele>695.0</ele><time>2026-04-28T08:42:04.311Z</time></trkpt><trkpt lat="44.55768" lon="8.8868417"><ele>695.0</ele><time>2026-04-28T08:42:05.312Z</time></trkpt><trkpt lat="44.5577067" lon="8.8869433"><ele>695.0</ele><time>2026-04-28T08:42:06.312Z</time></trkpt><trkpt lat="44.55769" lon="8.887055"><ele>695.0</ele><time>2026-04-28T08:42:07.312Z</time></trkpt><trkpt lat="44.55764" lon="8.8871517"><ele>695.0</ele><time>2026-04-28T08:42:08.311Z</time></trkpt><trkpt lat="44.557575" lon="8.8872317"><ele>693.0</ele><time>2026-04-28T08:42:09.311Z</time></trkpt><trkpt lat="44.5575133" lon="8.8872967"><ele>691.0</ele><time>2026-04-28T08:42:10.312Z</time></trkpt><trkpt lat="44.5574317" lon="8.8873133"><ele>689.0</ele><time>2026-04-28T08:42:11.312Z</time></trkpt><trkpt lat="44.5573367" lon="8.8872733"><ele>687.0</ele><time>2026-04-28T08:42:12.311Z</time></trkpt><trkpt lat="44.5572233" lon="8.8872033"><ele>685.0</ele><time>2026-04-28T08:42:13.312Z</time></trkpt><trkpt lat="44.5570783" lon="8.8871083"><ele>686.3333333333334</ele><time>2026-04-28T08:42:14.312Z</time></trkpt><trkpt lat="44.5568933" lon="8.886995"><ele>687.6666666666666</ele><time>2026-04-28T08:42:15.311Z</time></trkpt><trkpt lat="44.55671" lon="8.8869017"><ele>689.0</ele><time>2026-04-28T08:42:16.312Z</time></trkpt><trkpt lat="44.5565267" lon="8.8868317"><ele>689.0</ele><time>2026-04-28T08:42:17.312Z</time></trkpt><trkpt lat="44.556385" lon="8.8867733"><ele>689.0</ele><time>2026-04-28T08:42:18.312Z</time></trkpt><trkpt lat="44.5562733" lon="8.8867217"><ele>689.0</ele><time>2026-04-28T08:42:19.312Z</time></trkpt><trkpt lat="44.5561783" lon="8.8866833"><ele>689.0</ele><time>2026-04-28T08:42:20.312Z</time></trkpt><trkpt lat="44.556095" lon="8.88663"><ele>694.2</ele><time>2026-04-28T08:42:21.312Z</time></trkpt><trkpt lat="44.5560033" lon="8.8865783"><ele>699.4000000000001</ele><time>2026-04-28T08:42:22.312Z</time></trkpt><trkpt lat="44.5559017" lon="8.8865433"><ele>704.6</ele><time>2026-04-28T08:42:23.311Z</time></trkpt><trkpt lat="44.5558083" lon="8.8865233"><ele>709.8</ele><time>2026-04-28T08:42:24.312Z</time></trkpt><trkpt lat="44.5557267" lon="8.8865367"><ele>715.0</ele><time>2026-04-28T08:42:25.312Z</time></trkpt><trkpt lat="44.5556483" lon="8.886575"><ele>715.0</ele><time>2026-04-28T08:42:26.312Z</time></trkpt><trkpt lat="44.5555733" lon="8.8866633"><ele>715.0</ele><time>2026-04-28T08:42:27.312Z</time></trkpt><trkpt lat="44.5555017" lon="8.8867867"><ele>715.0</ele><time>2026-04-28T08:42:28.312Z</time></trkpt><trkpt lat="44.555435" lon="8.88692"><ele>715.0</ele><time>2026-04-28T08:42:29.312Z</time></trkpt><trkpt lat="44.5553833" lon="8.88703"><ele>715.0</ele><time>2026-04-28T08:42:30.312Z</time></trkpt><trkpt lat="44.5553383" lon="8.88711"><ele>714.5</ele><time>2026-04-28T08:42:31.312Z</time></trkpt><trkpt lat="44.5552783" lon="8.887185"><ele>714.0</ele><time>2026-04-28T08:42:32.312Z</time></trkpt><trkpt lat="44.5552083" lon="8.8872583"><ele>713.5</ele><time>2026-04-28T08:42:33.311Z</time></trkpt><trkpt lat="44.55513" lon="8.887305"><ele>713.0</ele><time>2026-04-28T08:42:34.312Z</time></trkpt><trkpt lat="44.5550467" lon="8.8873367"><ele>712.5</ele><time>2026-04-28T08:42:35.312Z</time></trkpt><trkpt lat="44.554955" lon="8.8873383"><ele>712.0</ele><time>2026-04-28T08:42:36.312Z</time></trkpt><trkpt lat="44.554855" lon="8.8872967"><ele>712.0</ele><time>2026-04-28T08:42:37.312Z</time></trkpt><trkpt lat="44.5547533" lon="8.8872083"><ele>712.0</ele><time>2026-04-28T08:42:38.312Z</time></trkpt><trkpt lat="44.5546667" lon="8.8871183"><ele>712.0</ele><time>2026-04-28T08:42:39.312Z</time></trkpt><trkpt lat="44.5545917" lon="8.8870467"><ele>712.0</ele><time>2026-04-28T08:42:40.311Z</time></trkpt><trkpt lat="44.5545233" lon="8.8870083"><ele>712.0</ele><time>2026-04-28T08:42:41.312Z</time></trkpt><trkpt lat="44.5544483" lon="8.8870117"><ele>715.0</ele><time>2026-04-28T08:42:42.312Z</time></trkpt><trkpt lat="44.5543717" lon="8.8870517"><ele>718.0</ele><time>2026-04-28T08:42:43.311Z</time></trkpt><trkpt lat="44.5543133" lon="8.887135"><ele>721.0</ele><time>2026-04-28T08:42:44.311Z</time></trkpt><trkpt lat="44.55427" lon="8.8872067"><ele>724.0</ele><time>2026-04-28T08:42:45.312Z</time></trkpt><trkpt lat="44.5542267" lon="8.88728"><ele>727.0</ele><time>2026-04-28T08:42:46.312Z</time></trkpt><trkpt lat="44.554145" lon="8.8873883"><ele>730.0</ele><time>2026-04-28T08:42:48.312Z</time></trkpt><trkpt lat="44.5540617" lon="8.88747"><ele>730.0</ele><time>2026-04-28T08:42:50.312Z</time></trkpt><trkpt lat="44.5539683" lon="8.8875217"><ele>730.0</ele><time>2026-04-28T08:42:52.312Z</time></trkpt><trkpt lat="44.5538867" lon="8.8875167"><ele>730.0</ele><time>2026-04-28T08:42:54.312Z</time></trkpt><trkpt lat="44.5537883" lon="8.8874817"><ele>730.0</ele><time>2026-04-28T08:42:56.312Z</time></trkpt><trkpt lat="44.5537167" lon="8.8874567"><ele>730.0</ele><time>2026-04-28T08:42:57.312Z</time></trkpt><trkpt lat="44.5536267" lon="8.8874033"><ele>730.3333333333334</ele><time>2026-04-28T08:42:58.311Z</time></trkpt><trkpt lat="44.55354" lon="8.8873433"><ele>730.6666666666667</ele><time>2026-04-28T08:42:59.312Z</time></trkpt><trkpt lat="44.5534767" lon="8.8872833"><ele>731.0</ele><time>2026-04-28T08:43:00.312Z</time></trkpt><trkpt lat="44.5534233" lon="8.887205"><ele>731.3333333333334</ele><time>2026-04-28T08:43:01.312Z</time></trkpt><trkpt lat="44.5533917" lon="8.8871133"><ele>731.6666666666666</ele><time>2026-04-28T08:43:02.312Z</time></trkpt><trkpt lat="44.5533733" lon="8.8870017"><ele>732.0</ele><time>2026-04-28T08:43:03.311Z</time></trkpt><trkpt lat="44.553375" lon="8.886875"><ele>735.3333333333334</ele><time>2026-04-28T08:43:04.312Z</time></trkpt><trkpt lat="44.5533933" lon="8.886745"><ele>738.6666666666666</ele><time>2026-04-28T08:43:05.311Z</time></trkpt><trkpt lat="44.553405" lon="8.8866267"><ele>742.0</ele><time>2026-04-28T08:43:06.312Z</time></trkpt><trkpt lat="44.5534" lon="8.8865383"><ele>745.3333333333333</ele><time>2026-04-28T08:43:07.312Z</time></trkpt><trkpt lat="44.55336" lon="8.8864617"><ele>748.6666666666666</ele><time>2026-04-28T08:43:08.312Z</time></trkpt><trkpt lat="44.553295" lon="8.886405"><ele>752.0</ele><time>2026-04-28T08:43:09.312Z</time></trkpt><trkpt lat="44.5531933" lon="8.88636"><ele>752.0</ele><time>2026-04-28T08:43:10.312Z</time></trkpt><trkpt lat="44.553045" lon="8.8863317"><ele>752.0</ele><time>2026-04-28T08:43:11.312Z</time></trkpt><trkpt lat="44.5529367" lon="8.8862917"><ele>752.0</ele><time>2026-04-28T08:43:12.312Z</time></trkpt><trkpt lat="44.5528367" lon="8.88622"><ele>752.0</ele><time>2026-04-28T08:43:13.311Z</time></trkpt><trkpt lat="44.5527583" lon="8.8861217"><ele>751.8</ele><time>2026-04-28T08:43:14.311Z</time></trkpt><trkpt lat="44.5526933" lon="8.8859917"><ele>751.6</ele><time>2026-04-28T08:43:15.312Z</time></trkpt><trkpt lat="44.552645" lon="8.8858433"><ele>751.4</ele><time>2026-04-28T08:43:16.312Z</time></trkpt><trkpt lat="44.5526117" lon="8.8856983"><ele>751.1999999999999</ele><time>2026-04-28T08:43:17.312Z</time></trkpt><trkpt lat="44.5525817" lon="8.885585"><ele>751.0</ele><time>2026-04-28T08:43:18.312Z</time></trkpt><trkpt lat="44.5525517" lon="8.8855017"><ele>751.0</ele><time>2026-04-28T08:43:19.311Z</time></trkpt><trkpt lat="44.552485" lon="8.8854483"><ele>751.0</ele><time>2026-04-28T08:43:21.312Z</time></trkpt><trkpt lat="44.5524383" lon="8.8855867"><ele>751.0</ele><time>2026-04-28T08:43:23.311Z</time></trkpt><trkpt lat="44.5524083" lon="8.8857117"><ele>751.0</ele><time>2026-04-28T08:43:24.312Z</time></trkpt><trkpt lat="44.5523633" lon="8.8859067"><ele>751.0</ele><time>2026-04-28T08:43:25.312Z</time></trkpt><trkpt lat="44.5523133" lon="8.8861667"><ele>751.0</ele><time>2026-04-28T08:43:26.312Z</time></trkpt><trkpt lat="44.5522467" lon="8.8863933"><ele>751.0</ele><time>2026-04-28T08:43:27.312Z</time></trkpt><trkpt lat="44.552175" lon="8.8865567"><ele>751.0</ele><time>2026-04-28T08:43:28.312Z</time></trkpt><trkpt lat="44.5520917" lon="8.88669"><ele>751.0</ele><time>2026-04-28T08:43:29.312Z</time></trkpt><trkpt lat="44.5519983" lon="8.8868233"><ele>754.75</ele><time>2026-04-28T08:43:30.312Z</time></trkpt><trkpt lat="44.5519067" lon="8.8869767"><ele>758.5</ele><time>2026-04-28T08:43:31.312Z</time></trkpt><trkpt lat="44.5518267" lon="8.8871217"><ele>762.25</ele><time>2026-04-28T08:43:32.312Z</time></trkpt><trkpt lat="44.5517483" lon="8.8872567"><ele>766.0</ele><time>2026-04-28T08:43:33.312Z</time></trkpt><trkpt lat="44.5516517" lon="8.88738"><ele>766.0</ele><time>2026-04-28T08:43:34.311Z</time></trkpt><trkpt lat="44.5515433" lon="8.8874917"><ele>766.0</ele><time>2026-04-28T08:43:35.312Z</time></trkpt><trkpt lat="44.551445" lon="8.8875817"><ele>766.0</ele><time>2026-04-28T08:43:36.312Z</time></trkpt><trkpt lat="44.551365" lon="8.8876383"><ele>766.0</ele><time>2026-04-28T08:43:37.312Z</time></trkpt><trkpt lat="44.5513033" lon="8.8876767"><ele>766.0</ele><time>2026-04-28T08:43:38.312Z</time></trkpt><trkpt lat="44.5511967" lon="8.8877483"><ele>768.8333333333334</ele><time>2026-04-28T08:43:40.312Z</time></trkpt><trkpt lat="44.5511217" lon="8.8877833"><ele>771.6666666666667</ele><time>2026-04-28T08:43:41.312Z</time></trkpt><trkpt lat="44.5510267" lon="8.88781"><ele>774.5</ele><time>2026-04-28T08:43:42.312Z</time></trkpt><trkpt lat="44.550935" lon="8.8878433"><ele>777.3333333333334</ele><time>2026-04-28T08:43:43.312Z</time></trkpt><trkpt lat="44.5508533" lon="8.8878567"><ele>780.1666666666666</ele><time>2026-04-28T08:43:44.312Z</time></trkpt><trkpt lat="44.5507833" lon="8.8878617"><ele>783.0</ele><time>2026-04-28T08:43:45.312Z</time></trkpt><trkpt lat="44.5506683" lon="8.8878317"><ele>783.0</ele><time>2026-04-28T08:43:47.311Z</time></trkpt><trkpt lat="44.550605" lon="8.8877917"><ele>783.0</ele><time>2026-04-28T08:43:48.312Z</time></trkpt><trkpt lat="44.55055" lon="8.887715"><ele>783.0</ele><time>2026-04-28T08:43:49.312Z</time></trkpt><trkpt lat="44.5505117" lon="8.8876367"><ele>783.0</ele><time>2026-04-28T08:43:50.312Z</time></trkpt><trkpt lat="44.5504767" lon="8.88753"><ele>783.0</ele><time>2026-04-28T08:43:51.312Z</time></trkpt><trkpt lat="44.5504567" lon="8.8874033"><ele>783.0</ele><time>2026-04-28T08:43:52.312Z</time></trkpt><trkpt lat="44.55045" lon="8.8872567"><ele>782.0</ele><time>2026-04-28T08:43:53.312Z</time></trkpt><trkpt lat="44.550445" lon="8.8871183"><ele>781.0</ele><time>2026-04-28T08:43:54.312Z</time></trkpt><trkpt lat="44.5504567" lon="8.8869667"><ele>780.0</ele><time>2026-04-28T08:43:55.312Z</time></trkpt><trkpt lat="44.5504783" lon="8.8868267"><ele>779.0</ele><time>2026-04-28T08:43:56.312Z</time></trkpt><trkpt lat="44.55051" lon="8.886695"><ele>778.0</ele><time>2026-04-28T08:43:57.312Z</time></trkpt><trkpt lat="44.5505583" lon="8.88657"><ele>776.5999999999999</ele><time>2026-04-28T08:43:58.312Z</time></trkpt><trkpt lat="44.5506217" lon="8.8864517"><ele>775.1999999999999</ele><time>2026-04-28T08:43:59.312Z</time></trkpt><trkpt lat="44.5506867" lon="8.88634"><ele>773.8</ele><time>2026-04-28T08:44:00.312Z</time></trkpt><trkpt lat="44.55078" lon="8.886245"><ele>772.4</ele><time>2026-04-28T08:44:01.312Z</time></trkpt><trkpt lat="44.5508933" lon="8.8861717"><ele>771.0</ele><time>2026-04-28T08:44:02.312Z</time></trkpt><trkpt lat="44.551005" lon="8.8860733"><ele>771.0</ele><time>2026-04-28T08:44:03.312Z</time></trkpt><trkpt lat="44.551095" lon="8.885965"><ele>771.0</ele><time>2026-04-28T08:44:04.312Z</time></trkpt><trkpt lat="44.55116" lon="8.8858833"><ele>771.0</ele><time>2026-04-28T08:44:05.312Z</time></trkpt><trkpt lat="44.551215" lon="8.8857967"><ele>771.0</ele><time>2026-04-28T08:44:06.312Z</time></trkpt><trkpt lat="44.5512417" lon="8.8857117"><ele>771.0</ele><time>2026-04-28T08:44:07.311Z</time></trkpt><trkpt lat="44.5512333" lon="8.8856183"><ele>771.0</ele><time>2026-04-28T08:44:08.312Z</time></trkpt><trkpt lat="44.5511817" lon="8.88553"><ele>766.5</ele><time>2026-04-28T08:44:09.312Z</time></trkpt><trkpt lat="44.551115" lon="8.8854433"><ele>762.0</ele><time>2026-04-28T08:44:10.312Z</time></trkpt><trkpt lat="44.551" lon="8.8853467"><ele>757.5</ele><time>2026-04-28T08:44:11.312Z</time></trkpt><trkpt lat="44.55089" lon="8.8852233"><ele>753.0</ele><time>2026-04-28T08:44:12.312Z</time></trkpt><trkpt lat="44.55081" lon="8.8850883"><ele>752.0</ele><time>2026-04-28T08:44:13.312Z</time></trkpt><trkpt lat="44.55076" lon="8.8849233"><ele>751.0</ele><time>2026-04-28T08:44:14.312Z</time></trkpt><trkpt lat="44.5507267" lon="8.8847567"><ele>750.0</ele><time>2026-04-28T08:44:15.312Z</time></trkpt><trkpt lat="44.5507017" lon="8.8845933"><ele>749.0</ele><time>2026-04-28T08:44:16.312Z</time></trkpt><trkpt lat="44.5506917" lon="8.8844383"><ele>749.0</ele><time>2026-04-28T08:44:17.312Z</time></trkpt><trkpt lat="44.5507067" lon="8.88428"><ele>749.0</ele><time>2026-04-28T08:44:18.312Z</time></trkpt><trkpt lat="44.55074" lon="8.88411"><ele>749.0</ele><time>2026-04-28T08:44:19.312Z</time></trkpt><trkpt lat="44.55078" lon="8.8839283"><ele>749.0</ele><time>2026-04-28T08:44:20.312Z</time></trkpt><trkpt lat="44.5508183" lon="8.883755"><ele>748.5</ele><time>2026-04-28T08:44:21.312Z</time></trkpt><trkpt lat="44.55085" lon="8.8835867"><ele>748.0</ele><time>2026-04-28T08:44:22.311Z</time></trkpt><trkpt lat="44.5508883" lon="8.8834417"><ele>747.5</ele><time>2026-04-28T08:44:23.312Z</time></trkpt><trkpt lat="44.550945" lon="8.8832967"><ele>747.0</ele><time>2026-04-28T08:44:24.312Z</time></trkpt><trkpt lat="44.5510183" lon="8.8831633"><ele>745.2</ele><time>2026-04-28T08:44:25.312Z</time></trkpt><trkpt lat="44.551095" lon="8.8830333"><ele>743.4000000000001</ele><time>2026-04-28T08:44:26.312Z</time></trkpt><trkpt lat="44.5511717" lon="8.882915"><ele>741.5999999999999</ele><time>2026-04-28T08:44:27.311Z</time></trkpt><trkpt lat="44.5512483" lon="8.8828167"><ele>739.8</ele><time>2026-04-28T08:44:28.312Z</time></trkpt><trkpt lat="44.551305" lon="8.8827367"><ele>738.0</ele><time>2026-04-28T08:44:29.312Z</time></trkpt><trkpt lat="44.551345" lon="8.8826533"><ele>738.0</ele><time>2026-04-28T08:44:30.312Z</time></trkpt><trkpt lat="44.5513617" lon="8.8825667"><ele>738.0</ele><time>2026-04-28T08:44:31.312Z</time></trkpt><trkpt lat="44.551275" lon="8.8824933"><ele>738.0</ele><time>2026-04-28T08:44:33.312Z</time></trkpt><trkpt lat="44.5512067" lon="8.8824783"><ele>738.0</ele><time>2026-04-28T08:44:34.312Z</time></trkpt><trkpt lat="44.551125" lon="8.88251"><ele>738.0</ele><time>2026-04-28T08:44:35.312Z</time></trkpt><trkpt lat="44.551015" lon="8.8825733"><ele>738.0</ele><time>2026-04-28T08:44:36.312Z</time></trkpt><trkpt lat="44.5509083" lon="8.88266"><ele>738.0</ele><time>2026-04-28T08:44:37.312Z</time></trkpt><trkpt lat="44.5507467" lon="8.882785"><ele>738.0</ele><time>2026-04-28T08:44:38.312Z</time></trkpt><trkpt lat="44.5505467" lon="8.8829367"><ele>738.0</ele><time>2026-04-28T08:44:39.312Z</time></trkpt><trkpt lat="44.5503667" lon="8.8830783"><ele>733.0</ele><time>2026-04-28T08:44:40.312Z</time></trkpt><trkpt lat="44.5502217" lon="8.8832283"><ele>728.0</ele><time>2026-04-28T08:44:41.312Z</time></trkpt><trkpt lat="44.5500967" lon="8.8833617"><ele>723.0</ele><time>2026-04-28T08:44:42.312Z</time></trkpt><trkpt lat="44.5499733" lon="8.883495"><ele>720.8</ele><time>2026-04-28T08:44:43.312Z</time></trkpt><trkpt lat="44.54987" lon="8.8836067"><ele>718.5999999999999</ele><time>2026-04-28T08:44:44.312Z</time></trkpt><trkpt lat="44.5497883" lon="8.8837117"><ele>716.4000000000001</ele><time>2026-04-28T08:44:45.312Z</time></trkpt><trkpt lat="44.5497167" lon="8.8837817"><ele>714.2</ele><time>2026-04-28T08:44:46.311Z</time></trkpt><trkpt lat="44.5496383" lon="8.8838217"><ele>712.0</ele><time>2026-04-28T08:44:47.312Z</time></trkpt><trkpt lat="44.5495383" lon="8.8838317"><ele>708.5</ele><time>2026-04-28T08:44:48.312Z</time></trkpt><trkpt lat="44.549425" lon="8.8838017"><ele>705.0</ele><time>2026-04-28T08:44:49.312Z</time></trkpt><trkpt lat="44.5492883" lon="8.8837717"><ele>701.5</ele><time>2026-04-28T08:44:50.312Z</time></trkpt><trkpt lat="44.549145" lon="8.8837417"><ele>698.0</ele><time>2026-04-28T08:44:51.311Z</time></trkpt><trkpt lat="44.5490283" lon="8.8837083"><ele>698.0</ele><time>2026-04-28T08:44:52.312Z</time></trkpt><trkpt lat="44.5489433" lon="8.8836667"><ele>698.0</ele><time>2026-04-28T08:44:53.312Z</time></trkpt><trkpt lat="44.54888" lon="8.8835967"><ele>698.0</ele><time>2026-04-28T08:44:54.312Z</time></trkpt><trkpt lat="44.5488367" lon="8.8835067"><ele>698.0</ele><time>2026-04-28T08:44:55.312Z</time></trkpt><trkpt lat="44.5488133" lon="8.88339"><ele>698.0</ele><time>2026-04-28T08:44:56.312Z</time></trkpt><trkpt lat="44.5488167" lon="8.8832317"><ele>698.0</ele><time>2026-04-28T08:44:57.312Z</time></trkpt><trkpt lat="44.5488417" lon="8.8830617"><ele>696.0</ele><time>2026-04-28T08:44:58.311Z</time></trkpt><trkpt lat="44.5488683" lon="8.882925"><ele>694.0</ele><time>2026-04-28T08:44:59.312Z</time></trkpt><trkpt lat="44.5488767" lon="8.8828083"><ele>692.0</ele><time>2026-04-28T08:45:00.312Z</time></trkpt><trkpt lat="44.548835" lon="8.8826883"><ele>690.0</ele><time>2026-04-28T08:45:02.312Z</time></trkpt><trkpt lat="44.5486967" lon="8.882685"><ele>688.0</ele><time>2026-04-28T08:45:04.312Z</time></trkpt><trkpt lat="44.5485867" lon="8.8827667"><ele>688.0</ele><time>2026-04-28T08:45:05.312Z</time></trkpt><trkpt lat="44.5484617" lon="8.882875"><ele>688.0</ele><time>2026-04-28T08:45:06.312Z</time></trkpt><trkpt lat="44.5483383" lon="8.882965"><ele>688.0</ele><time>2026-04-28T08:45:07.312Z</time></trkpt><trkpt lat="44.5482533" lon="8.8830033"><ele>688.0</ele><time>2026-04-28T08:45:08.312Z</time></trkpt><trkpt lat="44.5481633" lon="8.883005"><ele>688.0</ele><time>2026-04-28T08:45:09.312Z</time></trkpt><trkpt lat="44.54808" lon="8.8829633"><ele>688.0</ele><time>2026-04-28T08:45:10.312Z</time></trkpt><trkpt lat="44.54799" lon="8.8828783"><ele>688.0</ele><time>2026-04-28T08:45:11.312Z</time></trkpt><trkpt lat="44.5479033" lon="8.882755"><ele>688.0</ele><time>2026-04-28T08:45:12.311Z</time></trkpt><trkpt lat="44.547815" lon="8.8826367"><ele>688.0</ele><time>2026-04-28T08:45:13.312Z</time></trkpt><trkpt lat="44.547725" lon="8.882545"><ele>687.25</ele><time>2026-04-28T08:45:14.312Z</time></trkpt><trkpt lat="44.5476367" lon="8.8824683"><ele>686.5</ele><time>2026-04-28T08:45:15.312Z</time></trkpt><trkpt lat="44.54752" lon="8.8824083"><ele>685.75</ele><time>2026-04-28T08:45:16.312Z</time></trkpt><trkpt lat="44.5473983" lon="8.88234"><ele>685.0</ele><time>2026-04-28T08:45:17.312Z</time></trkpt><trkpt lat="44.5472783" lon="8.8822717"><ele>685.0</ele><time>2026-04-28T08:45:18.312Z</time></trkpt><trkpt lat="44.5471317" lon="8.8821883"><ele>685.0</ele><time>2026-04-28T08:45:19.312Z</time></trkpt><trkpt lat="44.5469883" lon="8.8820933"><ele>685.0</ele><time>2026-04-28T08:45:20.312Z</time></trkpt><trkpt lat="44.5468467" lon="8.8819867"><ele>678.75</ele><time>2026-04-28T08:45:21.312Z</time></trkpt><trkpt lat="44.5467033" lon="8.881915"><ele>672.5</ele><time>2026-04-28T08:45:22.312Z</time></trkpt><trkpt lat="44.54657" lon="8.8818683"><ele>666.25</ele><time>2026-04-28T08:45:23.312Z</time></trkpt><trkpt lat="44.54645" lon="8.8818217"><ele>660.0</ele><time>2026-04-28T08:45:24.312Z</time></trkpt><trkpt lat="44.5463317" lon="8.8818"><ele>660.0</ele><time>2026-04-28T08:45:25.312Z</time></trkpt><trkpt lat="44.5462167" lon="8.8818167"><ele>660.0</ele><time>2026-04-28T08:45:26.312Z</time></trkpt><trkpt lat="44.5460833" lon="8.8818483"><ele>660.0</ele><time>2026-04-28T08:45:27.312Z</time></trkpt><trkpt lat="44.5459433" lon="8.8818817"><ele>660.0</ele><time>2026-04-28T08:45:28.312Z</time></trkpt><trkpt lat="44.5458133" lon="8.8819083"><ele>657.0</ele><time>2026-04-28T08:45:29.312Z</time></trkpt><trkpt lat="44.54569" lon="8.8819517"><ele>654.0</ele><time>2026-04-28T08:45:30.312Z</time></trkpt><trkpt lat="44.5455733" lon="8.8819633"><ele>651.0</ele><time>2026-04-28T08:45:31.312Z</time></trkpt><trkpt lat="44.5454667" lon="8.88196"><ele>648.0</ele><time>2026-04-28T08:45:32.312Z</time></trkpt><trkpt lat="44.545355" lon="8.8819333"><ele>644.0</ele><time>2026-04-28T08:45:33.312Z</time></trkpt><trkpt lat="44.545215" lon="8.8818767"><ele>640.0</ele><time>2026-04-28T08:45:34.312Z</time></trkpt><trkpt lat="44.545055" lon="8.8818033"><ele>636.0</ele><time>2026-04-28T08:45:35.312Z</time></trkpt><trkpt lat="44.5448733" lon="8.8817217"><ele>640.3333333333334</ele><time>2026-04-28T08:45:36.312Z</time></trkpt><trkpt lat="44.5446867" lon="8.881635"><ele>644.6666666666667</ele><time>2026-04-28T08:45:37.312Z</time></trkpt><trkpt lat="44.5445" lon="8.881555"><ele>649.0</ele><time>2026-04-28T08:45:38.312Z</time></trkpt><trkpt lat="44.5443167" lon="8.8814717"><ele>649.0</ele><time>2026-04-28T08:45:39.311Z</time></trkpt><trkpt lat="44.544135" lon="8.8813933"><ele>649.0</ele><time>2026-04-28T08:45:40.312Z</time></trkpt><trkpt lat="44.5439683" lon="8.8813133"><ele>649.0</ele><time>2026-04-28T08:45:41.312Z</time></trkpt><trkpt lat="44.5438033" lon="8.8812283"><ele>642.3333333333334</ele><time>2026-04-28T08:45:42.312Z</time></trkpt><trkpt lat="44.54365" lon="8.881155"><ele>635.6666666666666</ele><time>2026-04-28T08:45:43.312Z</time></trkpt><trkpt lat="44.5434883" lon="8.8810883"><ele>629.0</ele><time>2026-04-28T08:45:44.312Z</time></trkpt><trkpt lat="44.5433433" lon="8.881015"><ele>629.0</ele><time>2026-04-28T08:45:45.312Z</time></trkpt><trkpt lat="44.5432" lon="8.8809467"><ele>629.0</ele><time>2026-04-28T08:45:46.312Z</time></trkpt><trkpt lat="44.5430617" lon="8.8808933"><ele>629.0</ele><time>2026-04-28T08:45:47.312Z</time></trkpt><trkpt lat="44.54294" lon="8.8808533"><ele>629.0</ele><time>2026-04-28T08:45:48.312Z</time></trkpt><trkpt lat="44.5428417" lon="8.8808317"><ele>628.0</ele><time>2026-04-28T08:45:49.312Z</time></trkpt><trkpt lat="44.5427683" lon="8.8807833"><ele>627.0</ele><time>2026-04-28T08:45:50.312Z</time></trkpt><trkpt lat="44.5426967" lon="8.8807033"><ele>626.0</ele><time>2026-04-28T08:45:51.312Z</time></trkpt><trkpt lat="44.5426667" lon="8.8805933"><ele>625.0</ele><time>2026-04-28T08:45:52.312Z</time></trkpt><trkpt lat="44.5426533" lon="8.8804883"><ele>624.0</ele><time>2026-04-28T08:45:53.312Z</time></trkpt><trkpt lat="44.5426333" lon="8.880385"><ele>623.0</ele><time>2026-04-28T08:45:54.312Z</time></trkpt><trkpt lat="44.54262" lon="8.880295"><ele>623.0</ele><time>2026-04-28T08:45:55.312Z</time></trkpt><trkpt lat="44.5425383" lon="8.88021"><ele>623.0</ele><time>2026-04-28T08:45:57.312Z</time></trkpt><trkpt lat="44.54246" lon="8.880315"><ele>623.0</ele><time>2026-04-28T08:45:59.312Z</time></trkpt><trkpt lat="44.5424467" lon="8.8804267"><ele>623.0</ele><time>2026-04-28T08:46:00.312Z</time></trkpt><trkpt lat="44.54245" lon="8.8805683"><ele>623.0</ele><time>2026-04-28T08:46:01.312Z</time></trkpt><trkpt lat="44.54248" lon="8.880785"><ele>619.0</ele><time>2026-04-28T08:46:02.312Z</time></trkpt><trkpt lat="44.5425117" lon="8.8809683"><ele>615.0</ele><time>2026-04-28T08:46:03.312Z</time></trkpt><trkpt lat="44.54255" lon="8.8811267"><ele>611.0</ele><time>2026-04-28T08:46:04.312Z</time></trkpt><trkpt lat="44.542605" lon="8.88125"><ele>607.0</ele><time>2026-04-28T08:46:05.312Z</time></trkpt><trkpt lat="44.54267" lon="8.8813733"><ele>607.0</ele><time>2026-04-28T08:46:06.312Z</time></trkpt><trkpt lat="44.54274" lon="8.8814517"><ele>607.0</ele><time>2026-04-28T08:46:07.312Z</time></trkpt><trkpt lat="44.5428233" lon="8.8815117"><ele>607.0</ele><time>2026-04-28T08:46:08.312Z</time></trkpt><trkpt lat="44.5429233" lon="8.8815633"><ele>607.0</ele><time>2026-04-28T08:46:09.312Z</time></trkpt><trkpt lat="44.5430383" lon="8.8816133"><ele>607.0</ele><time>2026-04-28T08:46:10.312Z</time></trkpt><trkpt lat="44.5431417" lon="8.8816833"><ele>607.5</ele><time>2026-04-28T08:46:11.312Z</time></trkpt><trkpt lat="44.5432467" lon="8.881745"><ele>608.0</ele><time>2026-04-28T08:46:12.312Z</time></trkpt><trkpt lat="44.5433183" lon="8.881865"><ele>608.5</ele><time>2026-04-28T08:46:13.312Z</time></trkpt><trkpt lat="44.5433817" lon="8.882005"><ele>609.0</ele><time>2026-04-28T08:46:14.311Z</time></trkpt><trkpt lat="44.5434283" lon="8.8821467"><ele>609.0</ele><time>2026-04-28T08:46:15.312Z</time></trkpt><trkpt lat="44.5434683" lon="8.8822767"><ele>609.0</ele><time>2026-04-28T08:46:16.312Z</time></trkpt><trkpt lat="44.5435217" lon="8.88237"><ele>609.0</ele><time>2026-04-28T08:46:17.311Z</time></trkpt><trkpt lat="44.5436067" lon="8.8824317"><ele>609.0</ele><time>2026-04-28T08:46:18.312Z</time></trkpt><trkpt lat="44.5436967" lon="8.8824717"><ele>609.0</ele><time>2026-04-28T08:46:19.312Z</time></trkpt><trkpt lat="44.5437683" lon="8.8825217"><ele>607.6</ele><time>2026-04-28T08:46:20.312Z</time></trkpt><trkpt lat="44.54382" lon="8.882595"><ele>606.2</ele><time>2026-04-28T08:46:21.312Z</time></trkpt><trkpt lat="44.54384" lon="8.88274"><ele>604.8000000000001</ele><time>2026-04-28T08:46:23.312Z</time></trkpt><trkpt lat="44.5437583" lon="8.8828267"><ele>603.4</ele><time>2026-04-28T08:46:25.312Z</time></trkpt><trkpt lat="44.5436583" lon="8.88284"><ele>602.0</ele><time>2026-04-28T08:46:26.312Z</time></trkpt><trkpt lat="44.5435333" lon="8.882825"><ele>603.75</ele><time>2026-04-28T08:46:27.312Z</time></trkpt><trkpt lat="44.54339" lon="8.8827917"><ele>605.5</ele><time>2026-04-28T08:46:28.312Z</time></trkpt><trkpt lat="44.543255" lon="8.88273"><ele>607.25</ele><time>2026-04-28T08:46:29.312Z</time></trkpt><trkpt lat="44.5431167" lon="8.8826533"><ele>609.0</ele><time>2026-04-28T08:46:30.312Z</time></trkpt><trkpt lat="44.5429767" lon="8.8825733"><ele>605.25</ele><time>2026-04-28T08:46:31.312Z</time></trkpt><trkpt lat="44.54284" lon="8.8825017"><ele>601.5</ele><time>2026-04-28T08:46:32.312Z</time></trkpt><trkpt lat="44.5427117" lon="8.8824633"><ele>597.75</ele><time>2026-04-28T08:46:33.312Z</time></trkpt><trkpt lat="44.5425933" lon="8.882445"><ele>594.0</ele><time>2026-04-28T08:46:34.312Z</time></trkpt><trkpt lat="44.5424867" lon="8.8824433"><ele>594.0</ele><time>2026-04-28T08:46:35.312Z</time></trkpt><trkpt lat="44.542385" lon="8.8824633"><ele>594.0</ele><time>2026-04-28T08:46:36.312Z</time></trkpt><trkpt lat="44.5422817" lon="8.8825067"><ele>594.0</ele><time>2026-04-28T08:46:37.312Z</time></trkpt><trkpt lat="44.5421733" lon="8.8825783"><ele>594.0</ele><time>2026-04-28T08:46:38.312Z</time></trkpt><trkpt lat="44.5420667" lon="8.8826283"><ele>594.0</ele><time>2026-04-28T08:46:39.312Z</time></trkpt><trkpt lat="44.541965" lon="8.8826617"><ele>592.0</ele><time>2026-04-28T08:46:40.312Z</time></trkpt><trkpt lat="44.541875" lon="8.8826617"><ele>590.0</ele><time>2026-04-28T08:46:41.312Z</time></trkpt><trkpt lat="44.5417883" lon="8.882625"><ele>588.0</ele><time>2026-04-28T08:46:42.312Z</time></trkpt><trkpt lat="44.54171" lon="8.88257"><ele>586.0</ele><time>2026-04-28T08:46:43.312Z</time></trkpt><trkpt lat="44.5416567" lon="8.8824967"><ele>584.0</ele><time>2026-04-28T08:46:44.312Z</time></trkpt><trkpt lat="44.54164" lon="8.8824033"><ele>582.0</ele><time>2026-04-28T08:46:45.312Z</time></trkpt><trkpt lat="44.54164" lon="8.8822767"><ele>582.0</ele><time>2026-04-28T08:46:47.312Z</time></trkpt><trkpt lat="44.5417" lon="8.8821017"><ele>582.0</ele><time>2026-04-28T08:46:55.312Z</time></trkpt><trkpt lat="44.5417017" lon="8.8819867"><ele>582.0</ele><time>2026-04-28T08:46:57.312Z</time></trkpt><trkpt lat="44.5416833" lon="8.8818367"><ele>582.0</ele><time>2026-04-28T08:46:59.312Z</time></trkpt><trkpt lat="44.541625" lon="8.8817033"><ele>582.0</ele><time>2026-04-28T08:47:01.312Z</time></trkpt><trkpt lat="44.5414817" lon="8.88169"><ele>582.0</ele><time>2026-04-28T08:47:03.312Z</time></trkpt><trkpt lat="44.54138" lon="8.881735"><ele>582.0</ele><time>2026-04-28T08:47:04.312Z</time></trkpt><trkpt lat="44.54126" lon="8.8817967"><ele>582.0</ele><time>2026-04-28T08:47:05.312Z</time></trkpt><trkpt lat="44.5411333" lon="8.88191"><ele>582.0</ele><time>2026-04-28T08:47:06.312Z</time></trkpt><trkpt lat="44.541015" lon="8.8820167"><ele>578.6</ele><time>2026-04-28T08:47:07.312Z</time></trkpt><trkpt lat="44.540905" lon="8.8821133"><ele>575.2</ele><time>2026-04-28T08:47:08.312Z</time></trkpt><trkpt lat="44.5408117" lon="8.8821833"><ele>571.8</ele><time>2026-04-28T08:47:09.312Z</time></trkpt><trkpt lat="44.5407267" lon="8.8822433"><ele>568.4</ele><time>2026-04-28T08:47:10.312Z</time></trkpt><trkpt lat="44.5406533" lon="8.8822817"><ele>565.0</ele><time>2026-04-28T08:47:11.312Z</time></trkpt><trkpt lat="44.5405867" lon="8.8822883"><ele>565.0</ele><time>2026-04-28T08:47:12.312Z</time></trkpt><trkpt lat="44.5405233" lon="8.8822683"><ele>565.0</ele><time>2026-04-28T08:47:13.311Z</time></trkpt><trkpt lat="44.5404617" lon="8.8822067"><ele>565.0</ele><time>2026-04-28T08:47:14.312Z</time></trkpt><trkpt lat="44.54042" lon="8.8821117"><ele>565.0</ele><time>2026-04-28T08:47:15.312Z</time></trkpt><trkpt lat="44.5404" lon="8.88199"><ele>565.0</ele><time>2026-04-28T08:47:16.312Z</time></trkpt><trkpt lat="44.5404083" lon="8.8818217"><ele>565.0</ele><time>2026-04-28T08:47:17.312Z</time></trkpt><trkpt lat="44.5404317" lon="8.8816133"><ele>566.75</ele><time>2026-04-28T08:47:18.312Z</time></trkpt><trkpt lat="44.5404567" lon="8.881385"><ele>568.5</ele><time>2026-04-28T08:47:19.312Z</time></trkpt><trkpt lat="44.5404617" lon="8.88119"><ele>570.25</ele><time>2026-04-28T08:47:20.312Z</time></trkpt><trkpt lat="44.540465" lon="8.881055"><ele>572.0</ele><time>2026-04-28T08:47:21.312Z</time></trkpt><trkpt lat="44.5404467" lon="8.8809567"><ele>570.2</ele><time>2026-04-28T08:47:22.312Z</time></trkpt><trkpt lat="44.5404083" lon="8.8808817"><ele>568.4000000000001</ele><time>2026-04-28T08:47:23.312Z</time></trkpt><trkpt lat="44.540335" lon="8.8808333"><ele>566.5999999999999</ele><time>2026-04-28T08:47:24.312Z</time></trkpt><trkpt lat="44.5402283" lon="8.880805"><ele>564.8</ele><time>2026-04-28T08:47:25.311Z</time></trkpt><trkpt lat="44.5401083" lon="8.8807633"><ele>563.0</ele><time>2026-04-28T08:47:26.312Z</time></trkpt><trkpt lat="44.53999" lon="8.8807033"><ele>561.1999999999999</ele><time>2026-04-28T08:47:27.312Z</time></trkpt><trkpt lat="44.5398983" lon="8.8805933"><ele>559.4</ele><time>2026-04-28T08:47:28.312Z</time></trkpt><trkpt lat="44.5398317" lon="8.8804633"><ele>557.5999999999999</ele><time>2026-04-28T08:47:29.312Z</time></trkpt><trkpt lat="44.5397733" lon="8.8803467"><ele>555.8</ele><time>2026-04-28T08:47:30.312Z</time></trkpt><trkpt lat="44.5397233" lon="8.8802383"><ele>554.0</ele><time>2026-04-28T08:47:31.312Z</time></trkpt><trkpt lat="44.539655" lon="8.8801467"><ele>552.4</ele><time>2026-04-28T08:47:32.312Z</time></trkpt><trkpt lat="44.5395767" lon="8.8800667"><ele>550.8</ele><time>2026-04-28T08:47:33.312Z</time></trkpt><trkpt lat="44.5394833" lon="8.8799933"><ele>549.2</ele><time>2026-04-28T08:47:34.312Z</time></trkpt><trkpt lat="44.5393967" lon="8.87994"><ele>547.6</ele><time>2026-04-28T08:47:35.312Z</time></trkpt><trkpt lat="44.5393017" lon="8.879905"><ele>546.0</ele><time>2026-04-28T08:47:36.312Z</time></trkpt><trkpt lat="44.5391967" lon="8.879875"><ele>546.0</ele><time>2026-04-28T08:47:37.312Z</time></trkpt><trkpt lat="44.5390917" lon="8.879875"><ele>546.0</ele><time>2026-04-28T08:47:38.312Z</time></trkpt><trkpt lat="44.53899" lon="8.8798767"><ele>546.0</ele><time>2026-04-28T08:47:39.312Z</time></trkpt><trkpt lat="44.538895" lon="8.879915"><ele>546.0</ele><time>2026-04-28T08:47:40.312Z</time></trkpt><trkpt lat="44.5388117" lon="8.8799683"><ele>546.0</ele><time>2026-04-28T08:47:41.312Z</time></trkpt><trkpt lat="44.5387467" lon="8.880025"><ele>545.4</ele><time>2026-04-28T08:47:42.312Z</time></trkpt><trkpt lat="44.5386983" lon="8.88011"><ele>544.8</ele><time>2026-04-28T08:47:43.311Z</time></trkpt><trkpt lat="44.538665" lon="8.8802167"><ele>544.1999999999999</ele><time>2026-04-28T08:47:44.312Z</time></trkpt><trkpt lat="44.53867" lon="8.880345"><ele>543.6</ele><time>2026-04-28T08:47:45.312Z</time></trkpt><trkpt lat="44.5387033" lon="8.8804883"><ele>543.0</ele><time>2026-04-28T08:47:46.312Z</time></trkpt><trkpt lat="44.5387767" lon="8.8806317"><ele>543.0</ele><time>2026-04-28T08:47:47.312Z</time></trkpt><trkpt lat="44.53887" lon="8.88079"><ele>543.0</ele><time>2026-04-28T08:47:48.312Z</time></trkpt><trkpt lat="44.5389717" lon="8.880945"><ele>543.0</ele><time>2026-04-28T08:47:49.312Z</time></trkpt><trkpt lat="44.5390733" lon="8.8810733"><ele>543.0</ele><time>2026-04-28T08:47:50.311Z</time></trkpt><trkpt lat="44.5391783" lon="8.8811933"><ele>540.1999999999999</ele><time>2026-04-28T08:47:51.311Z</time></trkpt><trkpt lat="44.5392617" lon="8.8812867"><ele>537.4</ele><time>2026-04-28T08:47:52.311Z</time></trkpt><trkpt lat="44.5393167" lon="8.88137"><ele>534.5999999999999</ele><time>2026-04-28T08:47:53.312Z</time></trkpt><trkpt lat="44.5393517" lon="8.8814633"><ele>531.8</ele><time>2026-04-28T08:47:54.312Z</time></trkpt><trkpt lat="44.5393317" lon="8.8816467"><ele>529.0</ele><time>2026-04-28T08:47:56.312Z</time></trkpt><trkpt lat="44.53925" lon="8.881755"><ele>529.25</ele><time>2026-04-28T08:47:57.311Z</time></trkpt><trkpt lat="44.53915" lon="8.8818767"><ele>529.5</ele><time>2026-04-28T08:47:58.312Z</time></trkpt><trkpt lat="44.539055" lon="8.88201"><ele>529.75</ele><time>2026-04-28T08:47:59.312Z</time></trkpt><trkpt lat="44.53899" lon="8.8821483"><ele>530.0</ele><time>2026-04-28T08:48:00.312Z</time></trkpt><trkpt lat="44.5389517" lon="8.8822717"><ele>530.0</ele><time>2026-04-28T08:48:01.312Z</time></trkpt><trkpt lat="44.5389467" lon="8.8824017"><ele>530.0</ele><time>2026-04-28T08:48:02.312Z</time></trkpt><trkpt lat="44.53897" lon="8.8825383"><ele>530.0</ele><time>2026-04-28T08:48:03.312Z</time></trkpt><trkpt lat="44.5390267" lon="8.8826867"><ele>530.0</ele><time>2026-04-28T08:48:04.312Z</time></trkpt><trkpt lat="44.539075" lon="8.8828317"><ele>530.0</ele><time>2026-04-28T08:48:05.312Z</time></trkpt><trkpt lat="44.5391117" lon="8.8829583"><ele>527.4</ele><time>2026-04-28T08:48:06.311Z</time></trkpt><trkpt lat="44.53912" lon="8.8830783"><ele>524.8</ele><time>2026-04-28T08:48:07.312Z</time></trkpt><trkpt lat="44.539095" lon="8.8831933"><ele>522.2</ele><time>2026-04-28T08:48:08.312Z</time></trkpt><trkpt lat="44.5390133" lon="8.8832717"><ele>519.6</ele><time>2026-04-28T08:48:09.312Z</time></trkpt><trkpt lat="44.538905" lon="8.8833167"><ele>517.0</ele><time>2026-04-28T08:48:10.312Z</time></trkpt><trkpt lat="44.538765" lon="8.88331"><ele>514.5</ele><time>2026-04-28T08:48:11.311Z</time></trkpt><trkpt lat="44.5386167" lon="8.8832633"><ele>512.0</ele><time>2026-04-28T08:48:12.312Z</time></trkpt><trkpt lat="44.5384867" lon="8.8832067"><ele>509.5</ele><time>2026-04-28T08:48:13.312Z</time></trkpt><trkpt lat="44.5383783" lon="8.8831567"><ele>507.0</ele><time>2026-04-28T08:48:14.312Z</time></trkpt><trkpt lat="44.538255" lon="8.8831133"><ele>507.0</ele><time>2026-04-28T08:48:15.312Z</time></trkpt><trkpt lat="44.5381317" lon="8.8831083"><ele>507.0</ele><time>2026-04-28T08:48:16.312Z</time></trkpt><trkpt lat="44.5380117" lon="8.8831133"><ele>507.0</ele><time>2026-04-28T08:48:17.312Z</time></trkpt><trkpt lat="44.5379083" lon="8.88315"><ele>507.0</ele><time>2026-04-28T08:48:18.312Z</time></trkpt><trkpt lat="44.53781" lon="8.8832"><ele>505.8</ele><time>2026-04-28T08:48:19.312Z</time></trkpt><trkpt lat="44.5377183" lon="8.883265"><ele>504.6</ele><time>2026-04-28T08:48:20.311Z</time></trkpt><trkpt lat="44.53761" lon="8.8833133"><ele>503.40000000000003</ele><time>2026-04-28T08:48:21.312Z</time></trkpt><trkpt lat="44.537515" lon="8.8833483"><ele>502.20000000000005</ele><time>2026-04-28T08:48:22.312Z</time></trkpt><trkpt lat="44.5374233" lon="8.8833867"><ele>501.0</ele><time>2026-04-28T08:48:23.312Z</time></trkpt><trkpt lat="44.5373183" lon="8.883445"><ele>500.20000000000005</ele><time>2026-04-28T08:48:24.312Z</time></trkpt><trkpt lat="44.5372117" lon="8.8834767"><ele>499.40000000000003</ele><time>2026-04-28T08:48:25.312Z</time></trkpt><trkpt lat="44.5371167" lon="8.88352"><ele>498.6</ele><time>2026-04-28T08:48:26.312Z</time></trkpt><trkpt lat="44.5370233" lon="8.8835533"><ele>497.8</ele><time>2026-04-28T08:48:27.312Z</time></trkpt><trkpt lat="44.5369317" lon="8.883575"><ele>497.0</ele><time>2026-04-28T08:48:28.311Z</time></trkpt><trkpt lat="44.5368283" lon="8.8835867"><ele>497.0</ele><time>2026-04-28T08:48:29.312Z</time></trkpt><trkpt lat="44.5367017" lon="8.8835883"><ele>497.0</ele><time>2026-04-28T08:48:30.312Z</time></trkpt><trkpt lat="44.536565" lon="8.88359"><ele>497.0</ele><time>2026-04-28T08:48:31.312Z</time></trkpt><trkpt lat="44.536435" lon="8.8835983"><ele>497.0</ele><time>2026-04-28T08:48:32.312Z</time></trkpt><trkpt lat="44.5363283" lon="8.883625"><ele>497.0</ele><time>2026-04-28T08:48:33.312Z</time></trkpt><trkpt lat="44.5362683" lon="8.8836533"><ele>497.00000000000006</ele><time>2026-04-28T08:48:34.312Z</time></trkpt><trkpt lat="44.53615" lon="8.8837133"><ele>497.00000000000006</ele><time>2026-04-28T08:48:36.312Z</time></trkpt><trkpt lat="44.5360183" lon="8.8837833"><ele>497.0</ele><time>2026-04-28T08:48:38.312Z</time></trkpt><trkpt lat="44.5359183" lon="8.88383"><ele>497.0</ele><time>2026-04-28T08:48:39.312Z</time></trkpt><trkpt lat="44.53577" lon="8.8838933"><ele>499.25</ele><time>2026-04-28T08:48:40.312Z</time></trkpt><trkpt lat="44.5356183" lon="8.8839533"><ele>501.5</ele><time>2026-04-28T08:48:41.312Z</time></trkpt><trkpt lat="44.53548" lon="8.8840017"><ele>503.75</ele><time>2026-04-28T08:48:42.312Z</time></trkpt><trkpt lat="44.5353533" lon="8.8840317"><ele>506.0</ele><time>2026-04-28T08:48:43.312Z</time></trkpt><trkpt lat="44.53524" lon="8.884065"><ele>506.0</ele><time>2026-04-28T08:48:44.312Z</time></trkpt><trkpt lat="44.5351283" lon="8.8840933"><ele>506.0</ele><time>2026-04-28T08:48:45.312Z</time></trkpt><trkpt lat="44.5350117" lon="8.884135"><ele>506.0</ele><time>2026-04-28T08:48:46.312Z</time></trkpt><trkpt lat="44.5349" lon="8.884165"><ele>506.0</ele><time>2026-04-28T08:48:47.311Z</time></trkpt><trkpt lat="44.5348017" lon="8.8841783"><ele>506.0</ele><time>2026-04-28T08:48:48.312Z</time></trkpt><trkpt lat="44.53471" lon="8.8841883"><ele>506.0</ele><time>2026-04-28T08:48:49.312Z</time></trkpt><trkpt lat="44.53462" lon="8.8841717"><ele>506.0</ele><time>2026-04-28T08:48:50.312Z</time></trkpt><trkpt lat="44.5345283" lon="8.8841167"><ele>506.0</ele><time>2026-04-28T08:48:51.312Z</time></trkpt><trkpt lat="44.53444" lon="8.8840283"><ele>506.0</ele><time>2026-04-28T08:48:52.312Z</time></trkpt><trkpt lat="44.534335" lon="8.8839033"><ele>506.0</ele><time>2026-04-28T08:48:53.312Z</time></trkpt><trkpt lat="44.5342367" lon="8.8837633"><ele>508.75</ele><time>2026-04-28T08:48:54.312Z</time></trkpt><trkpt lat="44.534145" lon="8.8836083"><ele>511.5</ele><time>2026-04-28T08:48:55.312Z</time></trkpt><trkpt lat="44.5340567" lon="8.883465"><ele>514.25</ele><time>2026-04-28T08:48:56.311Z</time></trkpt><trkpt lat="44.5339633" lon="8.883345"><ele>517.0</ele><time>2026-04-28T08:48:57.312Z</time></trkpt><trkpt lat="44.533845" lon="8.8832317"><ele>516.75</ele><time>2026-04-28T08:48:58.312Z</time></trkpt><trkpt lat="44.5337183" lon="8.883125"><ele>516.5</ele><time>2026-04-28T08:48:59.312Z</time></trkpt><trkpt lat="44.533595" lon="8.8830083"><ele>516.25</ele><time>2026-04-28T08:49:00.312Z</time></trkpt><trkpt lat="44.53349" lon="8.8828867"><ele>516.0</ele><time>2026-04-28T08:49:01.312Z</time></trkpt><trkpt lat="44.533395" lon="8.8827667"><ele>516.0</ele><time>2026-04-28T08:49:02.312Z</time></trkpt><trkpt lat="44.533315" lon="8.8826417"><ele>516.0</ele><time>2026-04-28T08:49:03.312Z</time></trkpt><trkpt lat="44.5332533" lon="8.8825"><ele>516.0</ele><time>2026-04-28T08:49:04.312Z</time></trkpt><trkpt lat="44.5332083" lon="8.8823467"><ele>516.0</ele><time>2026-04-28T08:49:05.312Z</time></trkpt><trkpt lat="44.5331683" lon="8.88219"><ele>512.0</ele><time>2026-04-28T08:49:06.312Z</time></trkpt><trkpt lat="44.5331283" lon="8.88204"><ele>508.0</ele><time>2026-04-28T08:49:07.312Z</time></trkpt><trkpt lat="44.53308" lon="8.881905"><ele>504.0</ele><time>2026-04-28T08:49:08.312Z</time></trkpt><trkpt lat="44.533005" lon="8.8818183"><ele>500.0</ele><time>2026-04-28T08:49:09.312Z</time></trkpt><trkpt lat="44.5328917" lon="8.88173"><ele>496.0</ele><time>2026-04-28T08:49:10.311Z</time></trkpt><trkpt lat="44.532745" lon="8.88163"><ele>492.25</ele><time>2026-04-28T08:49:11.312Z</time></trkpt><trkpt lat="44.5326083" lon="8.8815117"><ele>488.5</ele><time>2026-04-28T08:49:12.312Z</time></trkpt><trkpt lat="44.532485" lon="8.88141"><ele>484.75</ele><time>2026-04-28T08:49:13.312Z</time></trkpt><trkpt lat="44.5323633" lon="8.881305"><ele>481.0</ele><time>2026-04-28T08:49:14.312Z</time></trkpt><trkpt lat="44.5322433" lon="8.8812"><ele>481.0</ele><time>2026-04-28T08:49:15.312Z</time></trkpt><trkpt lat="44.5321233" lon="8.8810967"><ele>481.0</ele><time>2026-04-28T08:49:16.312Z</time></trkpt><trkpt lat="44.532015" lon="8.88101"><ele>481.0</ele><time>2026-04-28T08:49:17.312Z</time></trkpt><trkpt lat="44.5319133" lon="8.88091"><ele>481.0</ele><time>2026-04-28T08:49:18.311Z</time></trkpt><trkpt lat="44.5318283" lon="8.8807967"><ele>481.6</ele><time>2026-04-28T08:49:19.312Z</time></trkpt><trkpt lat="44.5317583" lon="8.8806667"><ele>482.20000000000005</ele><time>2026-04-28T08:49:20.312Z</time></trkpt><trkpt lat="44.5317033" lon="8.8805383"><ele>482.79999999999995</ele><time>2026-04-28T08:49:21.312Z</time></trkpt><trkpt lat="44.5316633" lon="8.8803967"><ele>483.4</ele><time>2026-04-28T08:49:22.312Z</time></trkpt><trkpt lat="44.5316417" lon="8.880265"><ele>484.0</ele><time>2026-04-28T08:49:23.312Z</time></trkpt><trkpt lat="44.5316267" lon="8.8801583"><ele>480.4</ele><time>2026-04-28T08:49:24.312Z</time></trkpt><trkpt lat="44.531615" lon="8.88007"><ele>476.79999999999995</ele><time>2026-04-28T08:49:25.312Z</time></trkpt><trkpt lat="44.5315533" lon="8.8799467"><ele>473.20000000000005</ele><time>2026-04-28T08:49:27.311Z</time></trkpt><trkpt lat="44.5314383" lon="8.8798767"><ele>469.6</ele><time>2026-04-28T08:49:29.312Z</time></trkpt><trkpt lat="44.5313633" lon="8.87988"><ele>466.0</ele><time>2026-04-28T08:49:30.312Z</time></trkpt><trkpt lat="44.53128" lon="8.8799"><ele>465.33333333333337</ele><time>2026-04-28T08:49:31.312Z</time></trkpt><trkpt lat="44.5312017" lon="8.8799217"><ele>464.6666666666667</ele><time>2026-04-28T08:49:32.312Z</time></trkpt><trkpt lat="44.53113" lon="8.8799383"><ele>464.0</ele><time>2026-04-28T08:49:33.312Z</time></trkpt><trkpt lat="44.5310567" lon="8.879955"><ele>463.33333333333337</ele><time>2026-04-28T08:49:34.312Z</time></trkpt><trkpt lat="44.530985" lon="8.879975"><ele>462.6666666666667</ele><time>2026-04-28T08:49:35.312Z</time></trkpt><trkpt lat="44.5309083" lon="8.8799917"><ele>462.0</ele><time>2026-04-28T08:49:36.311Z</time></trkpt><trkpt lat="44.5308333" lon="8.8800117"><ele>462.0</ele><time>2026-04-28T08:49:37.312Z</time></trkpt><trkpt lat="44.53076" lon="8.880025"><ele>462.0</ele><time>2026-04-28T08:49:38.311Z</time></trkpt><trkpt lat="44.5306867" lon="8.8800267"><ele>462.0</ele><time>2026-04-28T08:49:39.312Z</time></trkpt><trkpt lat="44.5306133" lon="8.8800183"><ele>462.0</ele><time>2026-04-28T08:49:40.311Z</time></trkpt><trkpt lat="44.530545" lon="8.880005"><ele>462.0</ele><time>2026-04-28T08:49:41.312Z</time></trkpt><trkpt lat="44.5304767" lon="8.879995"><ele>462.0</ele><time>2026-04-28T08:49:42.312Z</time></trkpt><trkpt lat="44.5303567" lon="8.8800067"><ele>460.1428571428571</ele><time>2026-04-28T08:49:44.312Z</time></trkpt><trkpt lat="44.5302883" lon="8.8800083"><ele>458.2857142857143</ele><time>2026-04-28T08:49:45.312Z</time></trkpt><trkpt lat="44.530215" lon="8.88"><ele>456.42857142857144</ele><time>2026-04-28T08:49:46.312Z</time></trkpt><trkpt lat="44.53014" lon="8.8799883"><ele>454.57142857142856</ele><time>2026-04-28T08:49:47.312Z</time></trkpt><trkpt lat="44.5300633" lon="8.87997"><ele>452.71428571428567</ele><time>2026-04-28T08:49:48.312Z</time></trkpt><trkpt lat="44.5299867" lon="8.8799483"><ele>450.85714285714283</ele><time>2026-04-28T08:49:49.312Z</time></trkpt><trkpt lat="44.529915" lon="8.8799233"><ele>449.0</ele><time>2026-04-28T08:49:50.312Z</time></trkpt><trkpt lat="44.5298217" lon="8.8798867"><ele>449.0</ele><time>2026-04-28T08:49:52.312Z</time></trkpt><trkpt lat="44.52975" lon="8.8799067"><ele>449.0</ele><time>2026-04-28T08:49:54.312Z</time></trkpt><trkpt lat="44.5296983" lon="8.8799833"><ele>449.0</ele><time>2026-04-28T08:49:56.312Z</time></trkpt><trkpt lat="44.52968" lon="8.8801767"><ele>449.0</ele><time>2026-04-28T08:49:58.312Z</time></trkpt><trkpt lat="44.5296917" lon="8.8803167"><ele>449.0</ele><time>2026-04-28T08:49:59.312Z</time></trkpt><trkpt lat="44.529675" lon="8.8804617"><ele>450.4</ele><time>2026-04-28T08:50:00.312Z</time></trkpt><trkpt lat="44.5296467" lon="8.8806183"><ele>451.79999999999995</ele><time>2026-04-28T08:50:01.311Z</time></trkpt><trkpt lat="44.5296283" lon="8.8807633"><ele>453.20000000000005</ele><time>2026-04-28T08:50:02.312Z</time></trkpt><trkpt lat="44.5296333" lon="8.8809"><ele>454.6</ele><time>2026-04-28T08:50:03.312Z</time></trkpt><trkpt lat="44.529665" lon="8.8810517"><ele>456.0</ele><time>2026-04-28T08:50:04.312Z</time></trkpt><trkpt lat="44.5296933" lon="8.88121"><ele>457.6666666666667</ele><time>2026-04-28T08:50:05.312Z</time></trkpt><trkpt lat="44.5297017" lon="8.881335"><ele>459.33333333333337</ele><time>2026-04-28T08:50:06.312Z</time></trkpt><trkpt lat="44.529695" lon="8.88145"><ele>461.0</ele><time>2026-04-28T08:50:07.312Z</time></trkpt><trkpt lat="44.5296733" lon="8.88154"><ele>462.6666666666667</ele><time>2026-04-28T08:50:08.312Z</time></trkpt><trkpt lat="44.5296283" lon="8.881615"><ele>464.33333333333337</ele><time>2026-04-28T08:50:09.312Z</time></trkpt><trkpt lat="44.5295383" lon="8.8816817"><ele>466.0</ele><time>2026-04-28T08:50:10.312Z</time></trkpt><trkpt lat="44.529415" lon="8.881755"><ele>462.0</ele><time>2026-04-28T08:50:11.312Z</time></trkpt><trkpt lat="44.5292733" lon="8.88185"><ele>458.0</ele><time>2026-04-28T08:50:12.312Z</time></trkpt><trkpt lat="44.5291217" lon="8.8819383"><ele>454.0</ele><time>2026-04-28T08:50:13.312Z</time></trkpt><trkpt lat="44.5289833" lon="8.88202"><ele>454.0</ele><time>2026-04-28T08:50:14.311Z</time></trkpt><trkpt lat="44.5288467" lon="8.8820867"><ele>454.0</ele><time>2026-04-28T08:50:15.312Z</time></trkpt><trkpt lat="44.52872" lon="8.8821367"><ele>454.0</ele><time>2026-04-28T08:50:16.312Z</time></trkpt><trkpt lat="44.5286017" lon="8.882195"><ele>454.0</ele><time>2026-04-28T08:50:17.312Z</time></trkpt><trkpt lat="44.5284733" lon="8.8822367"><ele>448.5</ele><time>2026-04-28T08:50:18.312Z</time></trkpt><trkpt lat="44.5283367" lon="8.88229"><ele>443.0</ele><time>2026-04-28T08:50:19.312Z</time></trkpt><trkpt lat="44.5281983" lon="8.8823533"><ele>437.5</ele><time>2026-04-28T08:50:20.312Z</time></trkpt><trkpt lat="44.5280717" lon="8.88243"><ele>432.0</ele><time>2026-04-28T08:50:21.312Z</time></trkpt><trkpt lat="44.5279417" lon="8.88249"><ele>428.0</ele><time>2026-04-28T08:50:22.312Z</time></trkpt><trkpt lat="44.52782" lon="8.8825417"><ele>424.00000000000006</ele><time>2026-04-28T08:50:23.312Z</time></trkpt><trkpt lat="44.527705" lon="8.882575"><ele>420.0</ele><time>2026-04-28T08:50:24.312Z</time></trkpt><trkpt lat="44.5275967" lon="8.8826017"><ele>416.0</ele><time>2026-04-28T08:50:25.312Z</time></trkpt><trkpt lat="44.5275183" lon="8.8826283"><ele>412.0</ele><time>2026-04-28T08:50:26.312Z</time></trkpt><trkpt lat="44.5274467" lon="8.8826633"><ele>412.00000000000006</ele><time>2026-04-28T08:50:27.312Z</time></trkpt><trkpt lat="44.5273883" lon="8.8827233"><ele>412.0</ele><time>2026-04-28T08:50:28.312Z</time></trkpt><trkpt lat="44.5273617" lon="8.8828083"><ele>412.0</ele><time>2026-04-28T08:50:29.312Z</time></trkpt><trkpt lat="44.527355" lon="8.8829"><ele>412.0</ele><time>2026-04-28T08:50:30.312Z</time></trkpt><trkpt lat="44.52737" lon="8.883015"><ele>412.00000000000006</ele><time>2026-04-28T08:50:31.312Z</time></trkpt><trkpt lat="44.5274217" lon="8.8831633"><ele>412.0</ele><time>2026-04-28T08:50:32.312Z</time></trkpt><trkpt lat="44.52749" lon="8.8833367"><ele>408.25</ele><time>2026-04-28T08:50:33.312Z</time></trkpt><trkpt lat="44.5275883" lon="8.8835083"><ele>404.5</ele><time>2026-04-28T08:50:34.312Z</time></trkpt><trkpt lat="44.5276767" lon="8.8836433"><ele>400.75</ele><time>2026-04-28T08:50:35.312Z</time></trkpt><trkpt lat="44.5277567" lon="8.883745"><ele>397.0</ele><time>2026-04-28T08:50:36.312Z</time></trkpt><trkpt lat="44.5278517" lon="8.883815"><ele>399.6666666666667</ele><time>2026-04-28T08:50:37.312Z</time></trkpt><trkpt lat="44.527945" lon="8.8838583"><ele>402.33333333333337</ele><time>2026-04-28T08:50:38.312Z</time></trkpt><trkpt lat="44.528025" lon="8.8838817"><ele>405.0</ele><time>2026-04-28T08:50:39.312Z</time></trkpt><trkpt lat="44.5281033" lon="8.883885"><ele>407.66666666666663</ele><time>2026-04-28T08:50:40.312Z</time></trkpt><trkpt lat="44.52818" lon="8.8838817"><ele>410.3333333333333</ele><time>2026-04-28T08:50:41.311Z</time></trkpt><trkpt lat="44.528255" lon="8.8838767"><ele>413.0</ele><time>2026-04-28T08:50:42.312Z</time></trkpt><trkpt lat="44.5283317" lon="8.8838967"><ele>412.99999999999994</ele><time>2026-04-28T08:50:43.312Z</time></trkpt><trkpt lat="44.528405" lon="8.8839483"><ele>413.0</ele><time>2026-04-28T08:50:44.312Z</time></trkpt><trkpt lat="44.5284617" lon="8.8840233"><ele>413.0</ele><time>2026-04-28T08:50:45.312Z</time></trkpt><trkpt lat="44.5285117" lon="8.88412"><ele>413.0</ele><time>2026-04-28T08:50:46.312Z</time></trkpt><trkpt lat="44.52856" lon="8.884225"><ele>412.99999999999994</ele><time>2026-04-28T08:50:47.312Z</time></trkpt><trkpt lat="44.5286183" lon="8.884315"><ele>413.0</ele><time>2026-04-28T08:50:48.312Z</time></trkpt><trkpt lat="44.52868" lon="8.884405"><ele>415.66666666666663</ele><time>2026-04-28T08:50:49.312Z</time></trkpt><trkpt lat="44.528745" lon="8.8844767"><ele>418.3333333333333</ele><time>2026-04-28T08:50:50.312Z</time></trkpt><trkpt lat="44.5288233" lon="8.8845233"><ele>421.0</ele><time>2026-04-28T08:50:51.312Z</time></trkpt><trkpt lat="44.5288867" lon="8.8845717"><ele>423.66666666666663</ele><time>2026-04-28T08:50:52.311Z</time></trkpt><trkpt lat="44.528945" lon="8.8846917"><ele>426.3333333333333</ele><time>2026-04-28T08:50:54.312Z</time></trkpt><trkpt lat="44.528875" lon="8.88479"><ele>429.0</ele><time>2026-04-28T08:50:56.312Z</time></trkpt><trkpt lat="44.5287683" lon="8.8848417"><ele>420.0</ele><time>2026-04-28T08:50:57.312Z</time></trkpt><trkpt lat="44.52861" lon="8.8848967"><ele>411.0</ele><time>2026-04-28T08:50:58.312Z</time></trkpt><trkpt lat="44.52844" lon="8.88495"><ele>402.0</ele><time>2026-04-28T08:50:59.312Z</time></trkpt><trkpt lat="44.5282733" lon="8.8850167"><ele>400.0</ele><time>2026-04-28T08:51:00.312Z</time></trkpt><trkpt lat="44.5281217" lon="8.8851217"><ele>398.0</ele><time>2026-04-28T08:51:01.312Z</time></trkpt><trkpt lat="44.5280183" lon="8.8852367"><ele>396.0</ele><time>2026-04-28T08:51:02.312Z</time></trkpt><trkpt lat="44.5279533" lon="8.8853367"><ele>394.0</ele><time>2026-04-28T08:51:03.312Z</time></trkpt><trkpt lat="44.5278717" lon="8.8854067"><ele>394.0</ele><time>2026-04-28T08:51:04.312Z</time></trkpt><trkpt lat="44.5277833" lon="8.8854367"><ele>394.0</ele><time>2026-04-28T08:51:05.312Z</time></trkpt><trkpt lat="44.5276883" lon="8.885475"><ele>394.0</ele><time>2026-04-28T08:51:06.312Z</time></trkpt><trkpt lat="44.527585" lon="8.8855583"><ele>394.0</ele><time>2026-04-28T08:51:07.312Z</time></trkpt><trkpt lat="44.527485" lon="8.8856717"><ele>394.0</ele><time>2026-04-28T08:51:08.312Z</time></trkpt><trkpt lat="44.527405" lon="8.8857933"><ele>394.00000000000006</ele><time>2026-04-28T08:51:09.312Z</time></trkpt><trkpt lat="44.5273383" lon="8.8859017"><ele>394.0</ele><time>2026-04-28T08:51:10.312Z</time></trkpt><trkpt lat="44.5272867" lon="8.8859767"><ele>394.0</ele><time>2026-04-28T08:51:11.312Z</time></trkpt><trkpt lat="44.527225" lon="8.8860217"><ele>394.0</ele><time>2026-04-28T08:51:12.311Z</time></trkpt><trkpt lat="44.527125" lon="8.8859983"><ele>394.00000000000006</ele><time>2026-04-28T08:51:14.312Z</time></trkpt><trkpt lat="44.527085" lon="8.885925"><ele>394.0</ele><time>2026-04-28T08:51:15.312Z</time></trkpt><trkpt lat="44.527035" lon="8.88582"><ele>389.6</ele><time>2026-04-28T08:51:16.312Z</time></trkpt><trkpt lat="44.526965" lon="8.8857233"><ele>385.2</ele><time>2026-04-28T08:51:17.312Z</time></trkpt><trkpt lat="44.5268767" lon="8.885665"><ele>380.8</ele><time>2026-04-28T08:51:18.312Z</time></trkpt><trkpt lat="44.526785" lon="8.885635"><ele>376.40000000000003</ele><time>2026-04-28T08:51:19.312Z</time></trkpt><trkpt lat="44.5266933" lon="8.885655"><ele>372.0</ele><time>2026-04-28T08:51:20.312Z</time></trkpt><trkpt lat="44.5266133" lon="8.885675"><ele>372.0</ele><time>2026-04-28T08:51:21.312Z</time></trkpt><trkpt lat="44.5265517" lon="8.8857267"><ele>372.0</ele><time>2026-04-28T08:51:22.312Z</time></trkpt><trkpt lat="44.5264967" lon="8.8857983"><ele>372.0</ele><time>2026-04-28T08:51:23.312Z</time></trkpt><trkpt lat="44.5264617" lon="8.88591"><ele>372.0</ele><time>2026-04-28T08:51:24.312Z</time></trkpt><trkpt lat="44.526405" lon="8.8859967"><ele>372.0</ele><time>2026-04-28T08:51:25.312Z</time></trkpt><trkpt lat="44.5263433" lon="8.8860433"><ele>372.0</ele><time>2026-04-28T08:51:26.312Z</time></trkpt><trkpt lat="44.5262783" lon="8.8860617"><ele>369.8</ele><time>2026-04-28T08:51:27.312Z</time></trkpt><trkpt lat="44.5262083" lon="8.8860483"><ele>367.6</ele><time>2026-04-28T08:51:28.312Z</time></trkpt><trkpt lat="44.5261183" lon="8.8859967"><ele>365.40000000000003</ele><time>2026-04-28T08:51:29.312Z</time></trkpt><trkpt lat="44.5260133" lon="8.8859517"><ele>363.20000000000005</ele><time>2026-04-28T08:51:30.312Z</time></trkpt><trkpt lat="44.5259033" lon="8.88595"><ele>361.0</ele><time>2026-04-28T08:51:31.312Z</time></trkpt><trkpt lat="44.5257717" lon="8.8859633"><ele>361.0</ele><time>2026-04-28T08:51:32.312Z</time></trkpt><trkpt lat="44.5256267" lon="8.8859683"><ele>361.0</ele><time>2026-04-28T08:51:33.312Z</time></trkpt><trkpt lat="44.52549" lon="8.8859833"><ele>361.0</ele><time>2026-04-28T08:51:34.312Z</time></trkpt><trkpt lat="44.525355" lon="8.8859867"><ele>361.0</ele><time>2026-04-28T08:51:35.312Z</time></trkpt><trkpt lat="44.5252383" lon="8.885995"><ele>356.0</ele><time>2026-04-28T08:51:36.312Z</time></trkpt><trkpt lat="44.5251133" lon="8.8859967"><ele>351.0</ele><time>2026-04-28T08:51:37.312Z</time></trkpt><trkpt lat="44.5249817" lon="8.8859767"><ele>346.0</ele><time>2026-04-28T08:51:38.312Z</time></trkpt><trkpt lat="44.524855" lon="8.885935"><ele>341.0</ele><time>2026-04-28T08:51:39.312Z</time></trkpt><trkpt lat="44.52474" lon="8.88588"><ele>341.0</ele><time>2026-04-28T08:51:40.312Z</time></trkpt><trkpt lat="44.5246333" lon="8.8858067"><ele>341.0</ele><time>2026-04-28T08:51:41.312Z</time></trkpt><trkpt lat="44.524535" lon="8.8856983"><ele>341.0</ele><time>2026-04-28T08:51:42.312Z</time></trkpt><trkpt lat="44.5244183" lon="8.8856067"><ele>341.0</ele><time>2026-04-28T08:51:43.312Z</time></trkpt><trkpt lat="44.5243233" lon="8.8854983"><ele>340.4</ele><time>2026-04-28T08:51:44.312Z</time></trkpt><trkpt lat="44.5242333" lon="8.88542"><ele>339.8</ele><time>2026-04-28T08:51:45.311Z</time></trkpt><trkpt lat="44.5241483" lon="8.8853417"><ele>339.2</ele><time>2026-04-28T08:51:46.311Z</time></trkpt><trkpt lat="44.5240683" lon="8.8852733"><ele>338.59999999999997</ele><time>2026-04-28T08:51:47.312Z</time></trkpt><trkpt lat="44.52399" lon="8.8852033"><ele>338.0</ele><time>2026-04-28T08:51:48.311Z</time></trkpt><trkpt lat="44.523905" lon="8.885135"><ele>336.5</ele><time>2026-04-28T08:51:49.312Z</time></trkpt><trkpt lat="44.5238133" lon="8.8850733"><ele>335.0</ele><time>2026-04-28T08:51:50.312Z</time></trkpt><trkpt lat="44.5237033" lon="8.8850517"><ele>333.5</ele><time>2026-04-28T08:51:51.312Z</time></trkpt><trkpt lat="44.5235817" lon="8.8850583"><ele>332.0</ele><time>2026-04-28T08:51:52.312Z</time></trkpt><trkpt lat="44.5234533" lon="8.8850733"><ele>331.25</ele><time>2026-04-28T08:51:53.312Z</time></trkpt><trkpt lat="44.523325" lon="8.8850633"><ele>330.5</ele><time>2026-04-28T08:51:54.312Z</time></trkpt><trkpt lat="44.5231967" lon="8.8850317"><ele>329.75</ele><time>2026-04-28T08:51:55.312Z</time></trkpt><trkpt lat="44.5230633" lon="8.8849833"><ele>329.0</ele><time>2026-04-28T08:51:56.311Z</time></trkpt><trkpt lat="44.5229217" lon="8.8849283"><ele>327.75</ele><time>2026-04-28T08:51:57.312Z</time></trkpt><trkpt lat="44.5227867" lon="8.8848833"><ele>326.5</ele><time>2026-04-28T08:51:58.312Z</time></trkpt><trkpt lat="44.5226533" lon="8.88483"><ele>325.25</ele><time>2026-04-28T08:51:59.312Z</time></trkpt><trkpt lat="44.52252" lon="8.88478"><ele>324.0</ele><time>2026-04-28T08:52:00.311Z</time></trkpt><trkpt lat="44.5224" lon="8.88474"><ele>324.0</ele><time>2026-04-28T08:52:01.312Z</time></trkpt><trkpt lat="44.5222917" lon="8.8846933"><ele>324.0</ele><time>2026-04-28T08:52:02.312Z</time></trkpt><trkpt lat="44.5221917" lon="8.8846483"><ele>324.0</ele><time>2026-04-28T08:52:03.312Z</time></trkpt><trkpt lat="44.5220933" lon="8.884605"><ele>324.0</ele><time>2026-04-28T08:52:04.312Z</time></trkpt><trkpt lat="44.5219967" lon="8.8845683"><ele>324.0</ele><time>2026-04-28T08:52:05.312Z</time></trkpt><trkpt lat="44.5218933" lon="8.884525"><ele>322.5</ele><time>2026-04-28T08:52:06.312Z</time></trkpt><trkpt lat="44.52179" lon="8.88449"><ele>321.0</ele><time>2026-04-28T08:52:07.311Z</time></trkpt><trkpt lat="44.521675" lon="8.884455"><ele>319.5</ele><time>2026-04-28T08:52:08.312Z</time></trkpt><trkpt lat="44.52155" lon="8.884435"><ele>318.0</ele><time>2026-04-28T08:52:09.312Z</time></trkpt><trkpt lat="44.5214317" lon="8.88442"><ele>318.0</ele><time>2026-04-28T08:52:10.312Z</time></trkpt><trkpt lat="44.521295" lon="8.884435"><ele>318.0</ele><time>2026-04-28T08:52:11.312Z</time></trkpt><trkpt lat="44.5211583" lon="8.8844583"><ele>318.0</ele><time>2026-04-28T08:52:12.312Z</time></trkpt><trkpt lat="44.5210383" lon="8.884475"><ele>318.0</ele><time>2026-04-28T08:52:13.312Z</time></trkpt><trkpt lat="44.520925" lon="8.88449"><ele>318.6</ele><time>2026-04-28T08:52:14.312Z</time></trkpt><trkpt lat="44.52083" lon="8.8845117"><ele>319.20000000000005</ele><time>2026-04-28T08:52:15.312Z</time></trkpt><trkpt lat="44.520755" lon="8.8845283"><ele>319.8</ele><time>2026-04-28T08:52:16.312Z</time></trkpt><trkpt lat="44.5206767" lon="8.8845533"><ele>320.40000000000003</ele><time>2026-04-28T08:52:17.312Z</time></trkpt><trkpt lat="44.52057" lon="8.8845533"><ele>321.0</ele><time>2026-04-28T08:52:18.312Z</time></trkpt><trkpt lat="44.5204417" lon="8.8845317"><ele>320.2</ele><time>2026-04-28T08:52:19.312Z</time></trkpt><trkpt lat="44.5203117" lon="8.8844967"><ele>319.40000000000003</ele><time>2026-04-28T08:52:20.312Z</time></trkpt><trkpt lat="44.5201983" lon="8.8844933"><ele>318.6</ele><time>2026-04-28T08:52:21.312Z</time></trkpt><trkpt lat="44.5200967" lon="8.8845"><ele>317.8</ele><time>2026-04-28T08:52:22.312Z</time></trkpt><trkpt lat="44.520005" lon="8.8845067"><ele>317.0</ele><time>2026-04-28T08:52:23.312Z</time></trkpt><trkpt lat="44.5199117" lon="8.884535"><ele>317.0</ele><time>2026-04-28T08:52:24.312Z</time></trkpt><trkpt lat="44.5198333" lon="8.8845317"><ele>317.0</ele><time>2026-04-28T08:52:25.312Z</time></trkpt><trkpt lat="44.5197567" lon="8.88452"><ele>317.0</ele><time>2026-04-28T08:52:26.312Z</time></trkpt><trkpt lat="44.5196533" lon="8.8844983"><ele>317.0</ele><time>2026-04-28T08:52:28.312Z</time></trkpt><trkpt lat="44.5197" lon="8.8845583"><ele>317.0</ele><time>2026-04-28T08:52:47.312Z</time></trkpt><trkpt lat="44.5197667" lon="8.8845367"><ele>317.0</ele><time>2026-04-28T08:52:49.312Z</time></trkpt><trkpt lat="44.5197017" lon="8.884495"><ele>317.0</ele><time>2026-04-28T08:52:55.312Z</time></trkpt><trkpt lat="44.519605" lon="8.8845383"><ele>317.0</ele><time>2026-04-28T08:52:57.312Z</time></trkpt><trkpt lat="44.51954" lon="8.8845617"><ele>317.0</ele><time>2026-04-28T08:52:58.312Z</time></trkpt><trkpt lat="44.51946" lon="8.884595"><ele>317.0</ele><time>2026-04-28T08:52:59.312Z</time></trkpt><trkpt lat="44.5193667" lon="8.8846417"><ele>317.0</ele><time>2026-04-28T08:53:00.311Z</time></trkpt><trkpt lat="44.5192683" lon="8.8847067"><ele>317.25</ele><time>2026-04-28T08:53:01.312Z</time></trkpt><trkpt lat="44.519155" lon="8.8847933"><ele>317.5</ele><time>2026-04-28T08:53:02.312Z</time></trkpt><trkpt lat="44.519035" lon="8.8848917"><ele>317.75</ele><time>2026-04-28T08:53:03.312Z</time></trkpt><trkpt lat="44.5189067" lon="8.8850033"><ele>318.0</ele><time>2026-04-28T08:53:04.312Z</time></trkpt><trkpt lat="44.5187933" lon="8.8850933"><ele>316.75</ele><time>2026-04-28T08:53:05.312Z</time></trkpt><trkpt lat="44.5186833" lon="8.88519"><ele>315.5</ele><time>2026-04-28T08:53:06.312Z</time></trkpt><trkpt lat="44.5185883" lon="8.88526"><ele>314.25</ele><time>2026-04-28T08:53:07.312Z</time></trkpt><trkpt lat="44.51849" lon="8.88533"><ele>313.0</ele><time>2026-04-28T08:53:08.312Z</time></trkpt><trkpt lat="44.5183833" lon="8.8853733"><ele>313.0</ele><time>2026-04-28T08:53:09.312Z</time></trkpt><trkpt lat="44.518275" lon="8.885395"><ele>313.0</ele><time>2026-04-28T08:53:10.312Z</time></trkpt><trkpt lat="44.5181633" lon="8.8854083"><ele>313.0</ele><time>2026-04-28T08:53:11.312Z</time></trkpt><trkpt lat="44.518055" lon="8.885425"><ele>313.0</ele><time>2026-04-28T08:53:12.312Z</time></trkpt><trkpt lat="44.5179467" lon="8.8854517"><ele>313.0</ele><time>2026-04-28T08:53:13.312Z</time></trkpt><trkpt lat="44.5178467" lon="8.8854883"><ele>313.0</ele><time>2026-04-28T08:53:14.312Z</time></trkpt><trkpt lat="44.5177667" lon="8.8855433"><ele>313.0</ele><time>2026-04-28T08:53:15.312Z</time></trkpt><trkpt lat="44.5176833" lon="8.8856183"><ele>313.0</ele><time>2026-04-28T08:53:16.312Z</time></trkpt><trkpt lat="44.5175967" lon="8.8856967"><ele>313.0</ele><time>2026-04-28T08:53:17.312Z</time></trkpt><trkpt lat="44.5175167" lon="8.8857817"><ele>313.0</ele><time>2026-04-28T08:53:18.312Z</time></trkpt><trkpt lat="44.5174367" lon="8.88586"><ele>311.2</ele><time>2026-04-28T08:53:19.312Z</time></trkpt><trkpt lat="44.5173517" lon="8.885935"><ele>309.4</ele><time>2026-04-28T08:53:20.312Z</time></trkpt><trkpt lat="44.5172667" lon="8.8859983"><ele>307.59999999999997</ele><time>2026-04-28T08:53:21.312Z</time></trkpt><trkpt lat="44.5171833" lon="8.88606"><ele>305.8</ele><time>2026-04-28T08:53:22.312Z</time></trkpt><trkpt lat="44.517075" lon="8.8861333"><ele>304.0</ele><time>2026-04-28T08:53:23.312Z</time></trkpt><trkpt lat="44.516965" lon="8.88622"><ele>304.0</ele><time>2026-04-28T08:53:24.312Z</time></trkpt><trkpt lat="44.516895" lon="8.8863167"><ele>304.0</ele><time>2026-04-28T08:53:25.312Z</time></trkpt><trkpt lat="44.5168167" lon="8.88647"><ele>304.0</ele><time>2026-04-28T08:53:26.312Z</time></trkpt><trkpt lat="44.5167717" lon="8.8866483"><ele>304.0</ele><time>2026-04-28T08:53:27.312Z</time></trkpt><trkpt lat="44.5167167" lon="8.886845"><ele>301.0</ele><time>2026-04-28T08:53:28.312Z</time></trkpt><trkpt lat="44.5166517" lon="8.8870433"><ele>298.0</ele><time>2026-04-28T08:53:29.312Z</time></trkpt><trkpt lat="44.5165833" lon="8.8872217"><ele>295.0</ele><time>2026-04-28T08:53:30.312Z</time></trkpt><trkpt lat="44.51653" lon="8.8873717"><ele>292.0</ele><time>2026-04-28T08:53:31.312Z</time></trkpt><trkpt lat="44.5164967" lon="8.887515"><ele>288.0</ele><time>2026-04-28T08:53:32.312Z</time></trkpt><trkpt lat="44.5165017" lon="8.8876733"><ele>284.0</ele><time>2026-04-28T08:53:33.312Z</time></trkpt><trkpt lat="44.5165433" lon="8.8878533"><ele>280.0</ele><time>2026-04-28T08:53:34.312Z</time></trkpt><trkpt lat="44.51657" lon="8.888015"><ele>276.0</ele><time>2026-04-28T08:53:35.312Z</time></trkpt><trkpt lat="44.516575" lon="8.88816"><ele>276.0</ele><time>2026-04-28T08:53:36.312Z</time></trkpt><trkpt lat="44.5165617" lon="8.8882767"><ele>276.0</ele><time>2026-04-28T08:53:37.312Z</time></trkpt><trkpt lat="44.5165183" lon="8.88838"><ele>276.0</ele><time>2026-04-28T08:53:38.312Z</time></trkpt><trkpt lat="44.5164533" lon="8.88847"><ele>276.0</ele><time>2026-04-28T08:53:39.312Z</time></trkpt><trkpt lat="44.51637" lon="8.888545"><ele>276.0</ele><time>2026-04-28T08:53:40.312Z</time></trkpt><trkpt lat="44.5162767" lon="8.8885783"><ele>274.5</ele><time>2026-04-28T08:53:41.312Z</time></trkpt><trkpt lat="44.516185" lon="8.8885817"><ele>273.0</ele><time>2026-04-28T08:53:42.312Z</time></trkpt><trkpt lat="44.5161" lon="8.8885617"><ele>271.5</ele><time>2026-04-28T08:53:43.312Z</time></trkpt><trkpt lat="44.51602" lon="8.888535"><ele>270.0</ele><time>2026-04-28T08:53:44.312Z</time></trkpt><trkpt lat="44.51595" lon="8.8885167"><ele>268.5</ele><time>2026-04-28T08:53:45.312Z</time></trkpt><trkpt lat="44.5158867" lon="8.888525"><ele>267.0</ele><time>2026-04-28T08:53:46.312Z</time></trkpt><trkpt lat="44.5158317" lon="8.88857"><ele>267.0</ele><time>2026-04-28T08:53:47.312Z</time></trkpt><trkpt lat="44.5158017" lon="8.8886667"><ele>267.0</ele><time>2026-04-28T08:53:48.312Z</time></trkpt><trkpt lat="44.5157783" lon="8.888795"><ele>267.0</ele><time>2026-04-28T08:53:49.311Z</time></trkpt><trkpt lat="44.5157317" lon="8.88891"><ele>267.0</ele><time>2026-04-28T08:53:50.312Z</time></trkpt><trkpt lat="44.5156767" lon="8.8890117"><ele>267.0</ele><time>2026-04-28T08:53:51.312Z</time></trkpt><trkpt lat="44.51562" lon="8.88908"><ele>267.0</ele><time>2026-04-28T08:53:52.312Z</time></trkpt><trkpt lat="44.5155533" lon="8.8891183"><ele>267.0</ele><time>2026-04-28T08:53:53.312Z</time></trkpt><trkpt lat="44.515475" lon="8.8891267"><ele>267.0</ele><time>2026-04-28T08:53:54.311Z</time></trkpt><trkpt lat="44.5153933" lon="8.889125"><ele>267.0</ele><time>2026-04-28T08:53:55.312Z</time></trkpt><trkpt lat="44.51532" lon="8.8891517"><ele>267.0</ele><time>2026-04-28T08:53:56.312Z</time></trkpt><trkpt lat="44.5152617" lon="8.8892167"><ele>267.0</ele><time>2026-04-28T08:53:57.312Z</time></trkpt><trkpt lat="44.5152267" lon="8.8893133"><ele>267.0</ele><time>2026-04-28T08:53:58.312Z</time></trkpt><trkpt lat="44.5152233" lon="8.88942"><ele>265.1666666666667</ele><time>2026-04-28T08:53:59.312Z</time></trkpt><trkpt lat="44.5152183" lon="8.889535"><ele>263.3333333333333</ele><time>2026-04-28T08:54:00.311Z</time></trkpt><trkpt lat="44.5152033" lon="8.8896317"><ele>261.5</ele><time>2026-04-28T08:54:01.311Z</time></trkpt><trkpt lat="44.5151717" lon="8.88976"><ele>259.66666666666663</ele><time>2026-04-28T08:54:02.312Z</time></trkpt><trkpt lat="44.51513" lon="8.8898783"><ele>257.8333333333333</ele><time>2026-04-28T08:54:03.312Z</time></trkpt><trkpt lat="44.5150733" lon="8.8899617"><ele>256.0</ele><time>2026-04-28T08:54:04.312Z</time></trkpt><trkpt lat="44.515015" lon="8.8900133"><ele>256.0</ele><time>2026-04-28T08:54:05.311Z</time></trkpt><trkpt lat="44.5149417" lon="8.8900333"><ele>256.0</ele><time>2026-04-28T08:54:06.312Z</time></trkpt><trkpt lat="44.5148533" lon="8.890005"><ele>256.0</ele><time>2026-04-28T08:54:07.312Z</time></trkpt><trkpt lat="44.5147517" lon="8.8899467"><ele>256.0</ele><time>2026-04-28T08:54:08.312Z</time></trkpt><trkpt lat="44.51464" lon="8.8898667"><ele>256.0</ele><time>2026-04-28T08:54:09.312Z</time></trkpt><trkpt lat="44.5145333" lon="8.889795"><ele>253.8</ele><time>2026-04-28T08:54:10.312Z</time></trkpt><trkpt lat="44.51443" lon="8.8897333"><ele>251.60000000000002</ele><time>2026-04-28T08:54:11.312Z</time></trkpt><trkpt lat="44.51433" lon="8.889665"><ele>249.4</ele><time>2026-04-28T08:54:12.312Z</time></trkpt><trkpt lat="44.5142517" lon="8.8895767"><ele>247.2</ele><time>2026-04-28T08:54:13.312Z</time></trkpt><trkpt lat="44.5141867" lon="8.8894867"><ele>245.0</ele><time>2026-04-28T08:54:14.312Z</time></trkpt><trkpt lat="44.5141083" lon="8.88942"><ele>245.0</ele><time>2026-04-28T08:54:15.312Z</time></trkpt><trkpt lat="44.514035" lon="8.889395"><ele>245.0</ele><time>2026-04-28T08:54:16.311Z</time></trkpt><trkpt lat="44.51395" lon="8.88942"><ele>245.0</ele><time>2026-04-28T08:54:17.312Z</time></trkpt><trkpt lat="44.51386" lon="8.8894717"><ele>245.0</ele><time>2026-04-28T08:54:18.312Z</time></trkpt><trkpt lat="44.5137467" lon="8.88955"><ele>245.0</ele><time>2026-04-28T08:54:19.312Z</time></trkpt><trkpt lat="44.5136383" lon="8.8896317"><ele>244.33333333333334</ele><time>2026-04-28T08:54:20.312Z</time></trkpt><trkpt lat="44.5135617" lon="8.8896833"><ele>243.66666666666669</ele><time>2026-04-28T08:54:21.312Z</time></trkpt><trkpt lat="44.5135" lon="8.889745"><ele>243.0</ele><time>2026-04-28T08:54:22.312Z</time></trkpt><trkpt lat="44.5134433" lon="8.8898333"><ele>242.33333333333331</ele><time>2026-04-28T08:54:23.312Z</time></trkpt><trkpt lat="44.5134067" lon="8.88994"><ele>241.66666666666666</ele><time>2026-04-28T08:54:24.312Z</time></trkpt><trkpt lat="44.5133867" lon="8.89005"><ele>241.0</ele><time>2026-04-28T08:54:25.312Z</time></trkpt><trkpt lat="44.513365" lon="8.8901733"><ele>238.20000000000002</ele><time>2026-04-28T08:54:26.312Z</time></trkpt><trkpt lat="44.5133317" lon="8.8902983"><ele>235.40000000000003</ele><time>2026-04-28T08:54:27.312Z</time></trkpt><trkpt lat="44.5132833" lon="8.8903967"><ele>232.6</ele><time>2026-04-28T08:54:28.312Z</time></trkpt><trkpt lat="44.5132117" lon="8.8904717"><ele>229.8</ele><time>2026-04-28T08:54:29.312Z</time></trkpt><trkpt lat="44.51312" lon="8.8905283"><ele>227.0</ele><time>2026-04-28T08:54:30.312Z</time></trkpt><trkpt lat="44.51302" lon="8.8905567"><ele>227.0</ele><time>2026-04-28T08:54:31.312Z</time></trkpt><trkpt lat="44.5129183" lon="8.890565"><ele>227.0</ele><time>2026-04-28T08:54:32.312Z</time></trkpt><trkpt lat="44.5128217" lon="8.890545"><ele>227.0</ele><time>2026-04-28T08:54:33.312Z</time></trkpt><trkpt lat="44.5127367" lon="8.8904967"><ele>227.0</ele><time>2026-04-28T08:54:34.312Z</time></trkpt><trkpt lat="44.5126683" lon="8.8904183"><ele>227.0</ele><time>2026-04-28T08:54:35.312Z</time></trkpt><trkpt lat="44.512605" lon="8.8903383"><ele>225.0</ele><time>2026-04-28T08:54:36.312Z</time></trkpt><trkpt lat="44.5125433" lon="8.8902967"><ele>223.0</ele><time>2026-04-28T08:54:37.312Z</time></trkpt><trkpt lat="44.51247" lon="8.8903017"><ele>221.0</ele><time>2026-04-28T08:54:38.312Z</time></trkpt><trkpt lat="44.512385" lon="8.8903517"><ele>219.0</ele><time>2026-04-28T08:54:39.312Z</time></trkpt><trkpt lat="44.5123" lon="8.89043"><ele>217.0</ele><time>2026-04-28T08:54:40.311Z</time></trkpt><trkpt lat="44.5122067" lon="8.890535"><ele>217.0</ele><time>2026-04-28T08:54:41.312Z</time></trkpt><trkpt lat="44.51213" lon="8.890665"><ele>217.0</ele><time>2026-04-28T08:54:42.312Z</time></trkpt><trkpt lat="44.51207" lon="8.89079"><ele>217.0</ele><time>2026-04-28T08:54:43.312Z</time></trkpt><trkpt lat="44.5120233" lon="8.8908867"><ele>217.0</ele><time>2026-04-28T08:54:44.312Z</time></trkpt><trkpt lat="44.5119683" lon="8.8909933"><ele>217.0</ele><time>2026-04-28T08:54:45.312Z</time></trkpt><trkpt lat="44.5119217" lon="8.891065"><ele>214.83333333333331</ele><time>2026-04-28T08:54:46.312Z</time></trkpt><trkpt lat="44.5118567" lon="8.89112"><ele>212.66666666666666</ele><time>2026-04-28T08:54:47.312Z</time></trkpt><trkpt lat="44.5117983" lon="8.891155"><ele>210.5</ele><time>2026-04-28T08:54:48.312Z</time></trkpt><trkpt lat="44.511725" lon="8.8911433"><ele>208.33333333333331</ele><time>2026-04-28T08:54:49.312Z</time></trkpt><trkpt lat="44.5116167" lon="8.8911117"><ele>206.16666666666666</ele><time>2026-04-28T08:54:50.312Z</time></trkpt><trkpt lat="44.511525" lon="8.8910633"><ele>204.0</ele><time>2026-04-28T08:54:51.312Z</time></trkpt><trkpt lat="44.5114317" lon="8.89103"><ele>204.0</ele><time>2026-04-28T08:54:52.312Z</time></trkpt><trkpt lat="44.5113483" lon="8.8910517"><ele>204.0</ele><time>2026-04-28T08:54:53.312Z</time></trkpt><trkpt lat="44.5112783" lon="8.8911383"><ele>204.0</ele><time>2026-04-28T08:54:54.312Z</time></trkpt><trkpt lat="44.5112183" lon="8.8912533"><ele>204.0</ele><time>2026-04-28T08:54:55.312Z</time></trkpt><trkpt lat="44.5111667" lon="8.8913767"><ele>204.0</ele><time>2026-04-28T08:54:56.312Z</time></trkpt><trkpt lat="44.5111033" lon="8.8914617"><ele>204.0</ele><time>2026-04-28T08:54:57.312Z</time></trkpt><trkpt lat="44.51103" lon="8.891525"><ele>204.0</ele><time>2026-04-28T08:54:58.312Z</time></trkpt><trkpt lat="44.5109317" lon="8.8915633"><ele>204.0</ele><time>2026-04-28T08:54:59.312Z</time></trkpt><trkpt lat="44.5108133" lon="8.89159"><ele>204.0</ele><time>2026-04-28T08:55:00.312Z</time></trkpt><trkpt lat="44.5107" lon="8.8916133"><ele>204.0</ele><time>2026-04-28T08:55:01.312Z</time></trkpt><trkpt lat="44.51059" lon="8.8916383"><ele>204.0</ele><time>2026-04-28T08:55:02.312Z</time></trkpt><trkpt lat="44.5104817" lon="8.8916367"><ele>204.0</ele><time>2026-04-28T08:55:03.312Z</time></trkpt><trkpt lat="44.510375" lon="8.89162"><ele>204.0</ele><time>2026-04-28T08:55:04.312Z</time></trkpt><trkpt lat="44.5102733" lon="8.891605"><ele>204.0</ele><time>2026-04-28T08:55:05.311Z</time></trkpt><trkpt lat="44.51018" lon="8.8915783"><ele>204.0</ele><time>2026-04-28T08:55:06.312Z</time></trkpt><trkpt lat="44.51009" lon="8.891555"><ele>202.0</ele><time>2026-04-28T08:55:07.312Z</time></trkpt><trkpt lat="44.5099983" lon="8.891525"><ele>200.0</ele><time>2026-04-28T08:55:08.312Z</time></trkpt><trkpt lat="44.5099033" lon="8.8914867"><ele>198.0</ele><time>2026-04-28T08:55:09.312Z</time></trkpt><trkpt lat="44.509825" lon="8.891415"><ele>196.0</ele><time>2026-04-28T08:55:10.312Z</time></trkpt><trkpt lat="44.509745" lon="8.8913233"><ele>194.0</ele><time>2026-04-28T08:55:11.312Z</time></trkpt><trkpt lat="44.509675" lon="8.891225"><ele>194.00000000000003</ele><time>2026-04-28T08:55:12.312Z</time></trkpt><trkpt lat="44.5096083" lon="8.8911317"><ele>194.0</ele><time>2026-04-28T08:55:13.312Z</time></trkpt><trkpt lat="44.5095483" lon="8.8910533"><ele>194.0</ele><time>2026-04-28T08:55:14.312Z</time></trkpt><trkpt lat="44.50949" lon="8.8910017"><ele>194.0</ele><time>2026-04-28T08:55:15.312Z</time></trkpt><trkpt lat="44.50939" lon="8.8910517"><ele>194.00000000000003</ele><time>2026-04-28T08:55:17.312Z</time></trkpt><trkpt lat="44.509365" lon="8.8911367"><ele>194.0</ele><time>2026-04-28T08:55:18.312Z</time></trkpt><trkpt lat="44.5093667" lon="8.8912567"><ele>188.0</ele><time>2026-04-28T08:55:19.312Z</time></trkpt><trkpt lat="44.5093983" lon="8.891405"><ele>182.0</ele><time>2026-04-28T08:55:20.312Z</time></trkpt><trkpt lat="44.5094483" lon="8.89155"><ele>176.0</ele><time>2026-04-28T08:55:21.312Z</time></trkpt><trkpt lat="44.5094867" lon="8.8916967"><ele>170.0</ele><time>2026-04-28T08:55:22.312Z</time></trkpt><trkpt lat="44.509535" lon="8.8918433"><ele>170.2</ele><time>2026-04-28T08:55:23.312Z</time></trkpt><trkpt lat="44.5095783" lon="8.8919817"><ele>170.4</ele><time>2026-04-28T08:55:24.312Z</time></trkpt><trkpt lat="44.5096433" lon="8.89209"><ele>170.60000000000002</ele><time>2026-04-28T08:55:25.312Z</time></trkpt><trkpt lat="44.5097133" lon="8.8921817"><ele>170.8</ele><time>2026-04-28T08:55:26.311Z</time></trkpt><trkpt lat="44.5097683" lon="8.8922333"><ele>171.0</ele><time>2026-04-28T08:55:27.312Z</time></trkpt><trkpt lat="44.5098567" lon="8.892325"><ele>171.0</ele><time>2026-04-28T08:55:29.312Z</time></trkpt><trkpt lat="44.50984" lon="8.8924233"><ele>171.0</ele><time>2026-04-28T08:55:31.311Z</time></trkpt><trkpt lat="44.5096983" lon="8.892415"><ele>171.0</ele><time>2026-04-28T08:55:33.312Z</time></trkpt><trkpt lat="44.5096017" lon="8.8923617"><ele>171.0</ele><time>2026-04-28T08:55:34.312Z</time></trkpt><trkpt lat="44.5095067" lon="8.8923033"><ele>171.0</ele><time>2026-04-28T08:55:35.312Z</time></trkpt><trkpt lat="44.5094133" lon="8.892235"><ele>170.60000000000002</ele><time>2026-04-28T08:55:36.312Z</time></trkpt><trkpt lat="44.5093183" lon="8.8921683"><ele>170.2</ele><time>2026-04-28T08:55:37.312Z</time></trkpt><trkpt lat="44.5092267" lon="8.8921217"><ele>169.8</ele><time>2026-04-28T08:55:38.312Z</time></trkpt><trkpt lat="44.5091317" lon="8.8920833"><ele>169.39999999999998</ele><time>2026-04-28T08:55:39.312Z</time></trkpt><trkpt lat="44.50904" lon="8.8920667"><ele>169.0</ele><time>2026-04-28T08:55:40.312Z</time></trkpt><trkpt lat="44.5089467" lon="8.892085"><ele>169.0</ele><time>2026-04-28T08:55:41.312Z</time></trkpt><trkpt lat="44.5088517" lon="8.8921133"><ele>169.0</ele><time>2026-04-28T08:55:42.312Z</time></trkpt><trkpt lat="44.5087617" lon="8.8921533"><ele>169.0</ele><time>2026-04-28T08:55:43.312Z</time></trkpt><trkpt lat="44.508685" lon="8.89219"><ele>169.0</ele><time>2026-04-28T08:55:44.312Z</time></trkpt><trkpt lat="44.5085983" lon="8.8922283"><ele>169.0</ele><time>2026-04-28T08:55:45.312Z</time></trkpt><trkpt lat="44.5085067" lon="8.8922617"><ele>166.79999999999998</ele><time>2026-04-28T08:55:46.311Z</time></trkpt><trkpt lat="44.50841" lon="8.8923"><ele>164.6</ele><time>2026-04-28T08:55:47.312Z</time></trkpt><trkpt lat="44.5083133" lon="8.8923267"><ele>162.4</ele><time>2026-04-28T08:55:48.312Z</time></trkpt><trkpt lat="44.508225" lon="8.8923817"><ele>160.2</ele><time>2026-04-28T08:55:49.312Z</time></trkpt><trkpt lat="44.50815" lon="8.89246"><ele>158.0</ele><time>2026-04-28T08:55:50.312Z</time></trkpt><trkpt lat="44.5080717" lon="8.8925283"><ele>158.33333333333331</ele><time>2026-04-28T08:55:51.311Z</time></trkpt><trkpt lat="44.5080033" lon="8.8926117"><ele>158.66666666666666</ele><time>2026-04-28T08:55:52.312Z</time></trkpt><trkpt lat="44.5079233" lon="8.8926833"><ele>159.0</ele><time>2026-04-28T08:55:53.312Z</time></trkpt><trkpt lat="44.5078483" lon="8.89275"><ele>159.33333333333334</ele><time>2026-04-28T08:55:54.311Z</time></trkpt><trkpt lat="44.5077783" lon="8.8928"><ele>159.66666666666669</ele><time>2026-04-28T08:55:55.312Z</time></trkpt><trkpt lat="44.5077033" lon="8.8928417"><ele>160.0</ele><time>2026-04-28T08:55:56.312Z</time></trkpt><trkpt lat="44.50759" lon="8.8928367"><ele>155.75</ele><time>2026-04-28T08:55:58.312Z</time></trkpt><trkpt lat="44.5075283" lon="8.8926833"><ele>151.5</ele><time>2026-04-28T08:56:00.312Z</time></trkpt><trkpt lat="44.50753" lon="8.8925333"><ele>147.25</ele><time>2026-04-28T08:56:01.312Z</time></trkpt><trkpt lat="44.5075583" lon="8.892355"><ele>143.0</ele><time>2026-04-28T08:56:02.312Z</time></trkpt><trkpt lat="44.5075817" lon="8.8921517"><ele>142.5</ele><time>2026-04-28T08:56:03.312Z</time></trkpt><trkpt lat="44.5075817" lon="8.8919583"><ele>142.0</ele><time>2026-04-28T08:56:04.312Z</time></trkpt><trkpt lat="44.5075933" lon="8.8917717"><ele>141.5</ele><time>2026-04-28T08:56:05.312Z</time></trkpt><trkpt lat="44.507595" lon="8.89161"><ele>141.0</ele><time>2026-04-28T08:56:06.312Z</time></trkpt><trkpt lat="44.507595" lon="8.8914717"><ele>140.0</ele><time>2026-04-28T08:56:07.312Z</time></trkpt><trkpt lat="44.5076083" lon="8.8913167"><ele>139.0</ele><time>2026-04-28T08:56:08.312Z</time></trkpt><trkpt lat="44.50761" lon="8.89116"><ele>138.0</ele><time>2026-04-28T08:56:09.312Z</time></trkpt><trkpt lat="44.50763" lon="8.8910333"><ele>137.0</ele><time>2026-04-28T08:56:10.312Z</time></trkpt><trkpt lat="44.50762" lon="8.890895"><ele>136.0</ele><time>2026-04-28T08:56:11.312Z</time></trkpt><trkpt lat="44.5076133" lon="8.890755"><ele>136.0</ele><time>2026-04-28T08:56:12.311Z</time></trkpt><trkpt lat="44.50759" lon="8.8906333"><ele>136.0</ele><time>2026-04-28T08:56:13.312Z</time></trkpt><trkpt lat="44.5075833" lon="8.8905283"><ele>136.0</ele><time>2026-04-28T08:56:14.311Z</time></trkpt><trkpt lat="44.5075667" lon="8.8904333"><ele>136.0</ele><time>2026-04-28T08:56:15.312Z</time></trkpt><trkpt lat="44.5075367" lon="8.8903283"><ele>136.0</ele><time>2026-04-28T08:56:17.312Z</time></trkpt><trkpt lat="44.5074283" lon="8.8902833"><ele>136.0</ele><time>2026-04-28T08:56:25.312Z</time></trkpt><trkpt lat="44.5073383" lon="8.8902633"><ele>136.0</ele><time>2026-04-28T08:56:27.312Z</time></trkpt><trkpt lat="44.5072117" lon="8.8902517"><ele>136.0</ele><time>2026-04-28T08:56:29.312Z</time></trkpt><trkpt lat="44.5071483" lon="8.8902633"><ele>136.0</ele><time>2026-04-28T08:56:30.312Z</time></trkpt><trkpt lat="44.5070733" lon="8.8902983"><ele>136.0</ele><time>2026-04-28T08:56:34.312Z</time></trkpt><trkpt lat="44.5070367" lon="8.8904033"><ele>136.0</ele><time>2026-04-28T08:56:36.312Z</time></trkpt><trkpt lat="44.5070017" lon="8.8905617"><ele>134.4</ele><time>2026-04-28T08:56:38.312Z</time></trkpt><trkpt lat="44.5069733" lon="8.8906917"><ele>132.8</ele><time>2026-04-28T08:56:40.312Z</time></trkpt><trkpt lat="44.506955" lon="8.8908333"><ele>131.20000000000002</ele><time>2026-04-28T08:56:42.312Z</time></trkpt><trkpt lat="44.5069467" lon="8.8909617"><ele>129.6</ele><time>2026-04-28T08:56:44.312Z</time></trkpt><trkpt lat="44.506955" lon="8.891105"><ele>128.0</ele><time>2026-04-28T08:56:46.312Z</time></trkpt><trkpt lat="44.50692" lon="8.8912483"><ele>128.0</ele><time>2026-04-28T08:56:48.312Z</time></trkpt><trkpt lat="44.5068867" lon="8.891355"><ele>128.0</ele><time>2026-04-28T08:56:50.312Z</time></trkpt><trkpt lat="44.5068617" lon="8.8914633"><ele>128.0</ele><time>2026-04-28T08:56:52.312Z</time></trkpt><trkpt lat="44.5068567" lon="8.8915783"><ele>128.0</ele><time>2026-04-28T08:56:54.312Z</time></trkpt><trkpt lat="44.5068317" lon="8.89176"><ele>128.0</ele><time>2026-04-28T08:56:56.311Z</time></trkpt><trkpt lat="44.5068" lon="8.8918683"><ele>127.66666666666666</ele><time>2026-04-28T08:56:57.312Z</time></trkpt><trkpt lat="44.5067783" lon="8.8919533"><ele>127.33333333333333</ele><time>2026-04-28T08:56:58.312Z</time></trkpt><trkpt lat="44.5067317" lon="8.892025"><ele>127.0</ele><time>2026-04-28T08:56:59.312Z</time></trkpt><trkpt lat="44.50667" lon="8.892165"><ele>126.66666666666666</ele><time>2026-04-28T08:57:01.312Z</time></trkpt><trkpt lat="44.5066183" lon="8.8922933"><ele>126.33333333333333</ele><time>2026-04-28T08:57:03.312Z</time></trkpt><trkpt lat="44.506595" lon="8.8923767"><ele>126.0</ele><time>2026-04-28T08:57:05.312Z</time></trkpt><trkpt lat="44.5065733" lon="8.8925033"><ele>126.0</ele><time>2026-04-28T08:57:08.312Z</time></trkpt><trkpt lat="44.50656" lon="8.892625"><ele>125.0</ele><time>2026-04-28T08:57:12.312Z</time></trkpt><trkpt lat="44.5065333" lon="8.89271"><ele>125.0</ele><time>2026-04-28T08:57:14.312Z</time></trkpt><trkpt lat="44.5065033" lon="8.8928017"><ele>125.0</ele><time>2026-04-28T08:57:16.312Z</time></trkpt></trkseg></trk></gpx>